<?xml version="1.0" encoding="UTF-8" standalone="no" ?>
<gpx xmlns="http://www.topografix.com/GPX/1/1" xmlns:xsi="http://www.w3.org/2001/XMLSchema-instance" xsi:schemaLocation="http://www.topografix.com/GPX/1/1 http://www.topografix.com/GPX/1/1/gpx.xsd" version="1.1" creator="VisuGPX - https://www.visugpx.com">
  <metadata>
    <name>Pas de Cugens Trou du vent</name>
    <desc><![CDATA[Difficulté moyenne,
retour par le vallon de Cabrelle]]></desc>
  </metadata>
  <trk>
    <name><![CDATA[Pas de Cugens Trou du vent_1]]></name>
    <trkseg>
      <trkpt lat="43.29273" lon="5.64152">
        <ele>172.7</ele>
        <time>2022-03-16T08:36:33Z</time>
      </trkpt>
      <trkpt lat="43.29275" lon="5.64146">
        <ele>172.4</ele>
        <time>2022-03-16T08:37:05Z</time>
      </trkpt>
      <trkpt lat="43.29271" lon="5.64151">
        <ele>172.6</ele>
        <time>2022-03-16T08:39:07Z</time>
      </trkpt>
      <trkpt lat="43.29268" lon="5.64157">
        <ele>172.8</ele>
        <time>2022-03-16T08:39:19Z</time>
      </trkpt>
      <trkpt lat="43.29265" lon="5.64163">
        <ele>172.9</ele>
        <time>2022-03-16T08:39:27Z</time>
      </trkpt>
      <trkpt lat="43.29261" lon="5.64168">
        <ele>172.9</ele>
        <time>2022-03-16T08:39:35Z</time>
      </trkpt>
      <trkpt lat="43.29259" lon="5.64175">
        <ele>173.1</ele>
        <time>2022-03-16T08:39:43Z</time>
      </trkpt>
      <trkpt lat="43.29256" lon="5.6418">
        <ele>173.2</ele>
        <time>2022-03-16T08:39:51Z</time>
      </trkpt>
      <trkpt lat="43.29252" lon="5.64181">
        <ele>172.7</ele>
        <time>2022-03-16T08:40:05Z</time>
      </trkpt>
      <trkpt lat="43.29248" lon="5.64187">
        <ele>172.7</ele>
        <time>2022-03-16T08:40:17Z</time>
      </trkpt>
      <trkpt lat="43.29244" lon="5.6419">
        <ele>172.9</ele>
        <time>2022-03-16T08:40:31Z</time>
      </trkpt>
      <trkpt lat="43.2924" lon="5.64194">
        <ele>173</ele>
        <time>2022-03-16T08:42:05Z</time>
      </trkpt>
      <trkpt lat="43.29235" lon="5.64194">
        <ele>173</ele>
        <time>2022-03-16T08:42:11Z</time>
      </trkpt>
      <trkpt lat="43.29229" lon="5.64198">
        <ele>173</ele>
        <time>2022-03-16T08:42:19Z</time>
      </trkpt>
      <trkpt lat="43.29225" lon="5.64203">
        <ele>173</ele>
        <time>2022-03-16T08:42:29Z</time>
      </trkpt>
      <trkpt lat="43.29222" lon="5.64211">
        <ele>173</ele>
        <time>2022-03-16T08:42:35Z</time>
      </trkpt>
      <trkpt lat="43.29218" lon="5.64218">
        <ele>173.4</ele>
        <time>2022-03-16T08:42:41Z</time>
      </trkpt>
      <trkpt lat="43.29215" lon="5.64224">
        <ele>173.8</ele>
        <time>2022-03-16T08:42:47Z</time>
      </trkpt>
      <trkpt lat="43.29214" lon="5.6423">
        <ele>174</ele>
        <time>2022-03-16T08:42:53Z</time>
      </trkpt>
      <trkpt lat="43.29212" lon="5.64237">
        <ele>174.2</ele>
        <time>2022-03-16T08:42:59Z</time>
      </trkpt>
      <trkpt lat="43.29211" lon="5.64246">
        <ele>174.4</ele>
        <time>2022-03-16T08:43:05Z</time>
      </trkpt>
      <trkpt lat="43.29211" lon="5.64253">
        <ele>174.5</ele>
        <time>2022-03-16T08:43:09Z</time>
      </trkpt>
      <trkpt lat="43.29211" lon="5.64261">
        <ele>174.8</ele>
        <time>2022-03-16T08:43:13Z</time>
      </trkpt>
      <trkpt lat="43.29211" lon="5.64268">
        <ele>175.1</ele>
        <time>2022-03-16T08:43:17Z</time>
      </trkpt>
      <trkpt lat="43.29211" lon="5.64275">
        <ele>175.3</ele>
        <time>2022-03-16T08:43:21Z</time>
      </trkpt>
      <trkpt lat="43.29211" lon="5.64283">
        <ele>175.5</ele>
        <time>2022-03-16T08:43:25Z</time>
      </trkpt>
      <trkpt lat="43.2921" lon="5.64292">
        <ele>175.7</ele>
        <time>2022-03-16T08:43:31Z</time>
      </trkpt>
      <trkpt lat="43.29208" lon="5.643">
        <ele>175.9</ele>
        <time>2022-03-16T08:43:37Z</time>
      </trkpt>
      <trkpt lat="43.29206" lon="5.64306">
        <ele>176</ele>
        <time>2022-03-16T08:43:41Z</time>
      </trkpt>
      <trkpt lat="43.29205" lon="5.64314">
        <ele>176.4</ele>
        <time>2022-03-16T08:43:47Z</time>
      </trkpt>
      <trkpt lat="43.29203" lon="5.64323">
        <ele>176.8</ele>
        <time>2022-03-16T08:43:53Z</time>
      </trkpt>
      <trkpt lat="43.29201" lon="5.64331">
        <ele>177.1</ele>
        <time>2022-03-16T08:43:59Z</time>
      </trkpt>
      <trkpt lat="43.29198" lon="5.64338">
        <ele>177.3</ele>
        <time>2022-03-16T08:44:05Z</time>
      </trkpt>
      <trkpt lat="43.29195" lon="5.64346">
        <ele>177.5</ele>
        <time>2022-03-16T08:44:11Z</time>
      </trkpt>
      <trkpt lat="43.29193" lon="5.64355">
        <ele>177.8</ele>
        <time>2022-03-16T08:44:17Z</time>
      </trkpt>
      <trkpt lat="43.29194" lon="5.64362">
        <ele>178</ele>
        <time>2022-03-16T08:44:23Z</time>
      </trkpt>
      <trkpt lat="43.29193" lon="5.64368">
        <ele>178</ele>
        <time>2022-03-16T08:44:29Z</time>
      </trkpt>
      <trkpt lat="43.29191" lon="5.64376">
        <ele>178.1</ele>
        <time>2022-03-16T08:44:35Z</time>
      </trkpt>
      <trkpt lat="43.29189" lon="5.64382">
        <ele>178.2</ele>
        <time>2022-03-16T08:44:41Z</time>
      </trkpt>
      <trkpt lat="43.29187" lon="5.64388">
        <ele>178.3</ele>
        <time>2022-03-16T08:44:49Z</time>
      </trkpt>
      <trkpt lat="43.29185" lon="5.64395">
        <ele>178.6</ele>
        <time>2022-03-16T08:44:57Z</time>
      </trkpt>
      <trkpt lat="43.29181" lon="5.64402">
        <ele>179</ele>
        <time>2022-03-16T08:45:03Z</time>
      </trkpt>
      <trkpt lat="43.2918" lon="5.64409">
        <ele>179.2</ele>
        <time>2022-03-16T08:45:07Z</time>
      </trkpt>
      <trkpt lat="43.29179" lon="5.64416">
        <ele>179.4</ele>
        <time>2022-03-16T08:45:11Z</time>
      </trkpt>
      <trkpt lat="43.29178" lon="5.64425">
        <ele>179.7</ele>
        <time>2022-03-16T08:45:15Z</time>
      </trkpt>
      <trkpt lat="43.29176" lon="5.6443">
        <ele>179.8</ele>
        <time>2022-03-16T08:45:19Z</time>
      </trkpt>
      <trkpt lat="43.2917" lon="5.64432">
        <ele>179.7</ele>
        <time>2022-03-16T08:45:25Z</time>
      </trkpt>
      <trkpt lat="43.29165" lon="5.64434">
        <ele>179.7</ele>
        <time>2022-03-16T08:45:31Z</time>
      </trkpt>
      <trkpt lat="43.29161" lon="5.6444">
        <ele>179.9</ele>
        <time>2022-03-16T08:45:37Z</time>
      </trkpt>
      <trkpt lat="43.29157" lon="5.64446">
        <ele>180.1</ele>
        <time>2022-03-16T08:45:43Z</time>
      </trkpt>
      <trkpt lat="43.29153" lon="5.64451">
        <ele>180.2</ele>
        <time>2022-03-16T08:45:49Z</time>
      </trkpt>
      <trkpt lat="43.29151" lon="5.64457">
        <ele>180.5</ele>
        <time>2022-03-16T08:45:53Z</time>
      </trkpt>
      <trkpt lat="43.2915" lon="5.64466">
        <ele>180.8</ele>
        <time>2022-03-16T08:45:57Z</time>
      </trkpt>
      <trkpt lat="43.29149" lon="5.64472">
        <ele>181</ele>
        <time>2022-03-16T08:46:01Z</time>
      </trkpt>
      <trkpt lat="43.29149" lon="5.64479">
        <ele>181</ele>
        <time>2022-03-16T08:46:05Z</time>
      </trkpt>
      <trkpt lat="43.29151" lon="5.64486">
        <ele>181</ele>
        <time>2022-03-16T08:46:09Z</time>
      </trkpt>
      <trkpt lat="43.29153" lon="5.64495">
        <ele>181</ele>
        <time>2022-03-16T08:46:15Z</time>
      </trkpt>
      <trkpt lat="43.29156" lon="5.64501">
        <ele>181.1</ele>
        <time>2022-03-16T08:46:19Z</time>
      </trkpt>
      <trkpt lat="43.29161" lon="5.64508">
        <ele>181.6</ele>
        <time>2022-03-16T08:46:25Z</time>
      </trkpt>
      <trkpt lat="43.29163" lon="5.64517">
        <ele>182.2</ele>
        <time>2022-03-16T08:46:31Z</time>
      </trkpt>
      <trkpt lat="43.29165" lon="5.64525">
        <ele>182.8</ele>
        <time>2022-03-16T08:46:37Z</time>
      </trkpt>
      <trkpt lat="43.29164" lon="5.64532">
        <ele>183.1</ele>
        <time>2022-03-16T08:46:41Z</time>
      </trkpt>
      <trkpt lat="43.29164" lon="5.64538">
        <ele>183.4</ele>
        <time>2022-03-16T08:46:45Z</time>
      </trkpt>
      <trkpt lat="43.29163" lon="5.64547">
        <ele>183.7</ele>
        <time>2022-03-16T08:46:51Z</time>
      </trkpt>
      <trkpt lat="43.29163" lon="5.64553">
        <ele>183.9</ele>
        <time>2022-03-16T08:46:55Z</time>
      </trkpt>
      <trkpt lat="43.29164" lon="5.64562">
        <ele>184.3</ele>
        <time>2022-03-16T08:47:01Z</time>
      </trkpt>
      <trkpt lat="43.29166" lon="5.64569">
        <ele>184.5</ele>
        <time>2022-03-16T08:47:07Z</time>
      </trkpt>
      <trkpt lat="43.29169" lon="5.64574">
        <ele>184.7</ele>
        <time>2022-03-16T08:47:11Z</time>
      </trkpt>
      <trkpt lat="43.29172" lon="5.64578">
        <ele>184.8</ele>
        <time>2022-03-16T08:47:15Z</time>
      </trkpt>
      <trkpt lat="43.29177" lon="5.64582">
        <ele>185</ele>
        <time>2022-03-16T08:47:19Z</time>
      </trkpt>
      <trkpt lat="43.29181" lon="5.64586">
        <ele>185.2</ele>
        <time>2022-03-16T08:47:23Z</time>
      </trkpt>
      <trkpt lat="43.29185" lon="5.6459">
        <ele>185.5</ele>
        <time>2022-03-16T08:47:27Z</time>
      </trkpt>
      <trkpt lat="43.29188" lon="5.64595">
        <ele>185.8</ele>
        <time>2022-03-16T08:47:31Z</time>
      </trkpt>
      <trkpt lat="43.29192" lon="5.64601">
        <ele>186.3</ele>
        <time>2022-03-16T08:47:37Z</time>
      </trkpt>
      <trkpt lat="43.29194" lon="5.64609">
        <ele>186.8</ele>
        <time>2022-03-16T08:47:43Z</time>
      </trkpt>
      <trkpt lat="43.29195" lon="5.64616">
        <ele>187.2</ele>
        <time>2022-03-16T08:47:49Z</time>
      </trkpt>
      <trkpt lat="43.29194" lon="5.64625">
        <ele>187.5</ele>
        <time>2022-03-16T08:47:55Z</time>
      </trkpt>
      <trkpt lat="43.29192" lon="5.64631">
        <ele>187.9</ele>
        <time>2022-03-16T08:48:01Z</time>
      </trkpt>
      <trkpt lat="43.2919" lon="5.64637">
        <ele>188.3</ele>
        <time>2022-03-16T08:48:07Z</time>
      </trkpt>
      <trkpt lat="43.29187" lon="5.64644">
        <ele>188.8</ele>
        <time>2022-03-16T08:48:11Z</time>
      </trkpt>
      <trkpt lat="43.29185" lon="5.64651">
        <ele>189.4</ele>
        <time>2022-03-16T08:48:15Z</time>
      </trkpt>
      <trkpt lat="43.29184" lon="5.64657">
        <ele>189.9</ele>
        <time>2022-03-16T08:48:19Z</time>
      </trkpt>
      <trkpt lat="43.29181" lon="5.64665">
        <ele>190.8</ele>
        <time>2022-03-16T08:48:25Z</time>
      </trkpt>
      <trkpt lat="43.29179" lon="5.64672">
        <ele>191.4</ele>
        <time>2022-03-16T08:48:31Z</time>
      </trkpt>
      <trkpt lat="43.29174" lon="5.64675">
        <ele>192.1</ele>
        <time>2022-03-16T08:48:37Z</time>
      </trkpt>
      <trkpt lat="43.29171" lon="5.64685">
        <ele>192.5</ele>
        <time>2022-03-16T08:48:43Z</time>
      </trkpt>
      <trkpt lat="43.29172" lon="5.64691">
        <ele>192.6</ele>
        <time>2022-03-16T08:48:47Z</time>
      </trkpt>
      <trkpt lat="43.29173" lon="5.64698">
        <ele>192.7</ele>
        <time>2022-03-16T08:48:51Z</time>
      </trkpt>
      <trkpt lat="43.29174" lon="5.64704">
        <ele>192.9</ele>
        <time>2022-03-16T08:48:57Z</time>
      </trkpt>
      <trkpt lat="43.29171" lon="5.64711">
        <ele>193.4</ele>
        <time>2022-03-16T08:49:05Z</time>
      </trkpt>
      <trkpt lat="43.2917" lon="5.64717">
        <ele>193.7</ele>
        <time>2022-03-16T08:49:13Z</time>
      </trkpt>
      <trkpt lat="43.2917" lon="5.64724">
        <ele>194</ele>
        <time>2022-03-16T08:49:19Z</time>
      </trkpt>
      <trkpt lat="43.29171" lon="5.64731">
        <ele>194.4</ele>
        <time>2022-03-16T08:49:25Z</time>
      </trkpt>
      <trkpt lat="43.29172" lon="5.64738">
        <ele>194.7</ele>
        <time>2022-03-16T08:49:31Z</time>
      </trkpt>
      <trkpt lat="43.29173" lon="5.64745">
        <ele>195</ele>
        <time>2022-03-16T08:49:37Z</time>
      </trkpt>
      <trkpt lat="43.29173" lon="5.64752">
        <ele>195.4</ele>
        <time>2022-03-16T08:49:43Z</time>
      </trkpt>
      <trkpt lat="43.29168" lon="5.64756">
        <ele>196</ele>
        <time>2022-03-16T08:49:51Z</time>
      </trkpt>
      <trkpt lat="43.29163" lon="5.64756">
        <ele>197.4</ele>
        <time>2022-03-16T08:49:57Z</time>
      </trkpt>
      <trkpt lat="43.29159" lon="5.64753">
        <ele>199.1</ele>
        <time>2022-03-16T08:49:59Z</time>
      </trkpt>
      <trkpt lat="43.29154" lon="5.64757">
        <ele>200.6</ele>
        <time>2022-03-16T08:50:07Z</time>
      </trkpt>
      <trkpt lat="43.29154" lon="5.64765">
        <ele>200.1</ele>
        <time>2022-03-16T08:50:15Z</time>
      </trkpt>
      <trkpt lat="43.29152" lon="5.64774">
        <ele>200</ele>
        <time>2022-03-16T08:50:21Z</time>
      </trkpt>
      <trkpt lat="43.29149" lon="5.64781">
        <ele>200.1</ele>
        <time>2022-03-16T08:50:27Z</time>
      </trkpt>
      <trkpt lat="43.29144" lon="5.64788">
        <ele>200.5</ele>
        <time>2022-03-16T08:50:33Z</time>
      </trkpt>
      <trkpt lat="43.2914" lon="5.64793">
        <ele>200.7</ele>
        <time>2022-03-16T08:50:37Z</time>
      </trkpt>
      <trkpt lat="43.29138" lon="5.64799">
        <ele>200.8</ele>
        <time>2022-03-16T08:50:41Z</time>
      </trkpt>
      <trkpt lat="43.29135" lon="5.64804">
        <ele>200.7</ele>
        <time>2022-03-16T08:50:45Z</time>
      </trkpt>
      <trkpt lat="43.2913" lon="5.6481">
        <ele>201.6</ele>
        <time>2022-03-16T08:50:51Z</time>
      </trkpt>
      <trkpt lat="43.29124" lon="5.64812">
        <ele>202.5</ele>
        <time>2022-03-16T08:50:57Z</time>
      </trkpt>
      <trkpt lat="43.29119" lon="5.64814">
        <ele>203.3</ele>
        <time>2022-03-16T08:51:03Z</time>
      </trkpt>
      <trkpt lat="43.29115" lon="5.64818">
        <ele>203.9</ele>
        <time>2022-03-16T08:51:09Z</time>
      </trkpt>
      <trkpt lat="43.29112" lon="5.64823">
        <ele>204.5</ele>
        <time>2022-03-16T08:51:15Z</time>
      </trkpt>
      <trkpt lat="43.2911" lon="5.6483">
        <ele>204.9</ele>
        <time>2022-03-16T08:51:21Z</time>
      </trkpt>
      <trkpt lat="43.2911" lon="5.64837">
        <ele>205.2</ele>
        <time>2022-03-16T08:51:25Z</time>
      </trkpt>
      <trkpt lat="43.29114" lon="5.64848">
        <ele>205.1</ele>
        <time>2022-03-16T08:51:29Z</time>
      </trkpt>
      <trkpt lat="43.29118" lon="5.64854">
        <ele>204.5</ele>
        <time>2022-03-16T08:51:33Z</time>
      </trkpt>
      <trkpt lat="43.29121" lon="5.64858">
        <ele>203.9</ele>
        <time>2022-03-16T08:51:37Z</time>
      </trkpt>
      <trkpt lat="43.29124" lon="5.64863">
        <ele>203.3</ele>
        <time>2022-03-16T08:51:43Z</time>
      </trkpt>
      <trkpt lat="43.29123" lon="5.6487">
        <ele>203.7</ele>
        <time>2022-03-16T08:51:49Z</time>
      </trkpt>
      <trkpt lat="43.29117" lon="5.64873">
        <ele>205.3</ele>
        <time>2022-03-16T08:51:57Z</time>
      </trkpt>
      <trkpt lat="43.29112" lon="5.64875">
        <ele>206.8</ele>
        <time>2022-03-16T08:52:03Z</time>
      </trkpt>
      <trkpt lat="43.29107" lon="5.64876">
        <ele>206.9</ele>
        <time>2022-03-16T08:52:09Z</time>
      </trkpt>
      <trkpt lat="43.29102" lon="5.64881">
        <ele>206.9</ele>
        <time>2022-03-16T08:52:15Z</time>
      </trkpt>
      <trkpt lat="43.29098" lon="5.64886">
        <ele>206.9</ele>
        <time>2022-03-16T08:52:21Z</time>
      </trkpt>
      <trkpt lat="43.29093" lon="5.64892">
        <ele>206.9</ele>
        <time>2022-03-16T08:52:27Z</time>
      </trkpt>
      <trkpt lat="43.2909" lon="5.64896">
        <ele>207</ele>
        <time>2022-03-16T08:52:31Z</time>
      </trkpt>
      <trkpt lat="43.29085" lon="5.64899">
        <ele>206.9</ele>
        <time>2022-03-16T08:52:35Z</time>
      </trkpt>
      <trkpt lat="43.29081" lon="5.64902">
        <ele>207</ele>
        <time>2022-03-16T08:52:39Z</time>
      </trkpt>
      <trkpt lat="43.29075" lon="5.64905">
        <ele>207.5</ele>
        <time>2022-03-16T08:52:45Z</time>
      </trkpt>
      <trkpt lat="43.29069" lon="5.64907">
        <ele>207.8</ele>
        <time>2022-03-16T08:52:51Z</time>
      </trkpt>
      <trkpt lat="43.29064" lon="5.64907">
        <ele>208</ele>
        <time>2022-03-16T08:52:57Z</time>
      </trkpt>
      <trkpt lat="43.29059" lon="5.64906">
        <ele>208.1</ele>
        <time>2022-03-16T08:53:07Z</time>
      </trkpt>
      <trkpt lat="43.29054" lon="5.64907">
        <ele>208.3</ele>
        <time>2022-03-16T08:54:13Z</time>
      </trkpt>
      <trkpt lat="43.29047" lon="5.64909">
        <ele>208.6</ele>
        <time>2022-03-16T08:54:23Z</time>
      </trkpt>
      <trkpt lat="43.29042" lon="5.6491">
        <ele>208.7</ele>
        <time>2022-03-16T08:54:29Z</time>
      </trkpt>
      <trkpt lat="43.29036" lon="5.64909">
        <ele>208.8</ele>
        <time>2022-03-16T08:54:37Z</time>
      </trkpt>
      <trkpt lat="43.29031" lon="5.64908">
        <ele>208.9</ele>
        <time>2022-03-16T08:54:47Z</time>
      </trkpt>
      <trkpt lat="43.29026" lon="5.64911">
        <ele>209.2</ele>
        <time>2022-03-16T08:54:57Z</time>
      </trkpt>
      <trkpt lat="43.29022" lon="5.64913">
        <ele>209.6</ele>
        <time>2022-03-16T08:55:03Z</time>
      </trkpt>
      <trkpt lat="43.29016" lon="5.64916">
        <ele>210.3</ele>
        <time>2022-03-16T08:55:09Z</time>
      </trkpt>
      <trkpt lat="43.2901" lon="5.64916">
        <ele>210.9</ele>
        <time>2022-03-16T08:55:13Z</time>
      </trkpt>
      <trkpt lat="43.29005" lon="5.64919">
        <ele>211.6</ele>
        <time>2022-03-16T08:55:17Z</time>
      </trkpt>
      <trkpt lat="43.29" lon="5.64921">
        <ele>212.3</ele>
        <time>2022-03-16T08:55:27Z</time>
      </trkpt>
      <trkpt lat="43.29" lon="5.64928">
        <ele>212.8</ele>
        <time>2022-03-16T08:55:33Z</time>
      </trkpt>
      <trkpt lat="43.29002" lon="5.64935">
        <ele>213.2</ele>
        <time>2022-03-16T08:55:37Z</time>
      </trkpt>
      <trkpt lat="43.29005" lon="5.64943">
        <ele>213.7</ele>
        <time>2022-03-16T08:55:41Z</time>
      </trkpt>
      <trkpt lat="43.29007" lon="5.6495">
        <ele>215.6</ele>
        <time>2022-03-16T08:55:49Z</time>
      </trkpt>
      <trkpt lat="43.29012" lon="5.64954">
        <ele>216.8</ele>
        <time>2022-03-16T08:55:59Z</time>
      </trkpt>
      <trkpt lat="43.29017" lon="5.64955">
        <ele>217.4</ele>
        <time>2022-03-16T08:56:05Z</time>
      </trkpt>
      <trkpt lat="43.29022" lon="5.64956">
        <ele>218</ele>
        <time>2022-03-16T08:56:11Z</time>
      </trkpt>
      <trkpt lat="43.29028" lon="5.64956">
        <ele>217.9</ele>
        <time>2022-03-16T08:56:17Z</time>
      </trkpt>
      <trkpt lat="43.29033" lon="5.64956">
        <ele>217.7</ele>
        <time>2022-03-16T08:56:21Z</time>
      </trkpt>
      <trkpt lat="43.29038" lon="5.64956">
        <ele>217.6</ele>
        <time>2022-03-16T08:56:25Z</time>
      </trkpt>
      <trkpt lat="43.29045" lon="5.64956">
        <ele>217.6</ele>
        <time>2022-03-16T08:56:31Z</time>
      </trkpt>
      <trkpt lat="43.2905" lon="5.64956">
        <ele>217.2</ele>
        <time>2022-03-16T08:56:35Z</time>
      </trkpt>
      <trkpt lat="43.29054" lon="5.64956">
        <ele>217.1</ele>
        <time>2022-03-16T08:56:39Z</time>
      </trkpt>
      <trkpt lat="43.29059" lon="5.64956">
        <ele>216.7</ele>
        <time>2022-03-16T08:56:43Z</time>
      </trkpt>
      <trkpt lat="43.29064" lon="5.64958">
        <ele>216.5</ele>
        <time>2022-03-16T08:56:47Z</time>
      </trkpt>
      <trkpt lat="43.29069" lon="5.64962">
        <ele>216.7</ele>
        <time>2022-03-16T08:56:51Z</time>
      </trkpt>
      <trkpt lat="43.29072" lon="5.64968">
        <ele>217.6</ele>
        <time>2022-03-16T08:56:55Z</time>
      </trkpt>
      <trkpt lat="43.29074" lon="5.64974">
        <ele>218.7</ele>
        <time>2022-03-16T08:56:59Z</time>
      </trkpt>
      <trkpt lat="43.29074" lon="5.64982">
        <ele>219.8</ele>
        <time>2022-03-16T08:57:05Z</time>
      </trkpt>
      <trkpt lat="43.29075" lon="5.64991">
        <ele>220.7</ele>
        <time>2022-03-16T08:57:11Z</time>
      </trkpt>
      <trkpt lat="43.29076" lon="5.64997">
        <ele>221.1</ele>
        <time>2022-03-16T08:57:15Z</time>
      </trkpt>
      <trkpt lat="43.29076" lon="5.65005">
        <ele>221.7</ele>
        <time>2022-03-16T08:57:21Z</time>
      </trkpt>
      <trkpt lat="43.29077" lon="5.65013">
        <ele>222.1</ele>
        <time>2022-03-16T08:57:27Z</time>
      </trkpt>
      <trkpt lat="43.29078" lon="5.6502">
        <ele>221.8</ele>
        <time>2022-03-16T08:57:33Z</time>
      </trkpt>
      <trkpt lat="43.29078" lon="5.65028">
        <ele>222.4</ele>
        <time>2022-03-16T08:57:39Z</time>
      </trkpt>
      <trkpt lat="43.2908" lon="5.65035">
        <ele>222.1</ele>
        <time>2022-03-16T08:57:47Z</time>
      </trkpt>
      <trkpt lat="43.29084" lon="5.6504">
        <ele>220.4</ele>
        <time>2022-03-16T08:57:59Z</time>
      </trkpt>
      <trkpt lat="43.2909" lon="5.65043">
        <ele>220.4</ele>
        <time>2022-03-16T08:58:05Z</time>
      </trkpt>
      <trkpt lat="43.29095" lon="5.65045">
        <ele>220.3</ele>
        <time>2022-03-16T08:58:09Z</time>
      </trkpt>
      <trkpt lat="43.291" lon="5.65045">
        <ele>220.2</ele>
        <time>2022-03-16T08:58:23Z</time>
      </trkpt>
      <trkpt lat="43.29105" lon="5.65044">
        <ele>220.1</ele>
        <time>2022-03-16T08:58:41Z</time>
      </trkpt>
      <trkpt lat="43.29111" lon="5.65048">
        <ele>220</ele>
        <time>2022-03-16T08:58:53Z</time>
      </trkpt>
      <trkpt lat="43.29114" lon="5.65052">
        <ele>220</ele>
        <time>2022-03-16T08:58:57Z</time>
      </trkpt>
      <trkpt lat="43.29117" lon="5.65059">
        <ele>220.1</ele>
        <time>2022-03-16T08:59:05Z</time>
      </trkpt>
      <trkpt lat="43.29115" lon="5.65066">
        <ele>220.4</ele>
        <time>2022-03-16T08:59:13Z</time>
      </trkpt>
      <trkpt lat="43.29113" lon="5.65072">
        <ele>220.6</ele>
        <time>2022-03-16T08:59:19Z</time>
      </trkpt>
      <trkpt lat="43.2911" lon="5.65077">
        <ele>220.9</ele>
        <time>2022-03-16T08:59:23Z</time>
      </trkpt>
      <trkpt lat="43.29107" lon="5.65083">
        <ele>221.7</ele>
        <time>2022-03-16T08:59:29Z</time>
      </trkpt>
      <trkpt lat="43.29105" lon="5.65088">
        <ele>222.3</ele>
        <time>2022-03-16T08:59:37Z</time>
      </trkpt>
      <trkpt lat="43.29101" lon="5.65095">
        <ele>223.3</ele>
        <time>2022-03-16T08:59:45Z</time>
      </trkpt>
      <trkpt lat="43.29099" lon="5.65102">
        <ele>224.5</ele>
        <time>2022-03-16T08:59:51Z</time>
      </trkpt>
      <trkpt lat="43.29094" lon="5.65109">
        <ele>226.3</ele>
        <time>2022-03-16T08:59:57Z</time>
      </trkpt>
      <trkpt lat="43.29091" lon="5.65116">
        <ele>227</ele>
        <time>2022-03-16T09:00:01Z</time>
      </trkpt>
      <trkpt lat="43.29087" lon="5.65124">
        <ele>226.8</ele>
        <time>2022-03-16T09:00:05Z</time>
      </trkpt>
      <trkpt lat="43.29083" lon="5.65132">
        <ele>226.8</ele>
        <time>2022-03-16T09:00:09Z</time>
      </trkpt>
      <trkpt lat="43.29082" lon="5.65139">
        <ele>226.4</ele>
        <time>2022-03-16T09:00:13Z</time>
      </trkpt>
      <trkpt lat="43.2908" lon="5.65148">
        <ele>226.4</ele>
        <time>2022-03-16T09:00:19Z</time>
      </trkpt>
      <trkpt lat="43.2908" lon="5.65155">
        <ele>226.3</ele>
        <time>2022-03-16T09:00:25Z</time>
      </trkpt>
      <trkpt lat="43.29079" lon="5.65162">
        <ele>225.6</ele>
        <time>2022-03-16T09:00:31Z</time>
      </trkpt>
      <trkpt lat="43.29079" lon="5.65171">
        <ele>225.5</ele>
        <time>2022-03-16T09:00:37Z</time>
      </trkpt>
      <trkpt lat="43.29079" lon="5.65177">
        <ele>225.6</ele>
        <time>2022-03-16T09:00:43Z</time>
      </trkpt>
      <trkpt lat="43.29079" lon="5.65186">
        <ele>225.6</ele>
        <time>2022-03-16T09:00:49Z</time>
      </trkpt>
      <trkpt lat="43.29079" lon="5.65195">
        <ele>225.5</ele>
        <time>2022-03-16T09:00:55Z</time>
      </trkpt>
      <trkpt lat="43.2908" lon="5.65202">
        <ele>225.3</ele>
        <time>2022-03-16T09:00:59Z</time>
      </trkpt>
      <trkpt lat="43.2908" lon="5.65209">
        <ele>225.2</ele>
        <time>2022-03-16T09:01:03Z</time>
      </trkpt>
      <trkpt lat="43.29082" lon="5.65217">
        <ele>224.6</ele>
        <time>2022-03-16T09:01:09Z</time>
      </trkpt>
      <trkpt lat="43.29084" lon="5.65223">
        <ele>224.1</ele>
        <time>2022-03-16T09:01:13Z</time>
      </trkpt>
      <trkpt lat="43.29086" lon="5.6523">
        <ele>225.2</ele>
        <time>2022-03-16T09:01:19Z</time>
      </trkpt>
      <trkpt lat="43.29088" lon="5.65237">
        <ele>226.1</ele>
        <time>2022-03-16T09:01:25Z</time>
      </trkpt>
      <trkpt lat="43.2909" lon="5.65246">
        <ele>227</ele>
        <time>2022-03-16T09:01:31Z</time>
      </trkpt>
      <trkpt lat="43.29092" lon="5.65254">
        <ele>227.6</ele>
        <time>2022-03-16T09:01:37Z</time>
      </trkpt>
      <trkpt lat="43.29094" lon="5.65263">
        <ele>228.3</ele>
        <time>2022-03-16T09:01:43Z</time>
      </trkpt>
      <trkpt lat="43.29096" lon="5.65271">
        <ele>228.6</ele>
        <time>2022-03-16T09:01:49Z</time>
      </trkpt>
      <trkpt lat="43.29097" lon="5.65277">
        <ele>228.9</ele>
        <time>2022-03-16T09:01:53Z</time>
      </trkpt>
      <trkpt lat="43.29099" lon="5.65286">
        <ele>228.9</ele>
        <time>2022-03-16T09:01:59Z</time>
      </trkpt>
      <trkpt lat="43.29102" lon="5.65294">
        <ele>228.4</ele>
        <time>2022-03-16T09:02:05Z</time>
      </trkpt>
      <trkpt lat="43.29104" lon="5.65302">
        <ele>227.8</ele>
        <time>2022-03-16T09:02:11Z</time>
      </trkpt>
      <trkpt lat="43.29106" lon="5.6531">
        <ele>227</ele>
        <time>2022-03-16T09:02:17Z</time>
      </trkpt>
      <trkpt lat="43.29107" lon="5.65317">
        <ele>226.6</ele>
        <time>2022-03-16T09:02:23Z</time>
      </trkpt>
      <trkpt lat="43.29107" lon="5.65323">
        <ele>226.6</ele>
        <time>2022-03-16T09:02:29Z</time>
      </trkpt>
      <trkpt lat="43.29107" lon="5.65331">
        <ele>226.8</ele>
        <time>2022-03-16T09:02:35Z</time>
      </trkpt>
      <trkpt lat="43.29107" lon="5.65339">
        <ele>226.7</ele>
        <time>2022-03-16T09:02:41Z</time>
      </trkpt>
      <trkpt lat="43.29107" lon="5.65345">
        <ele>226.7</ele>
        <time>2022-03-16T09:02:47Z</time>
      </trkpt>
      <trkpt lat="43.29107" lon="5.65353">
        <ele>226.6</ele>
        <time>2022-03-16T09:02:53Z</time>
      </trkpt>
      <trkpt lat="43.29107" lon="5.65361">
        <ele>226.7</ele>
        <time>2022-03-16T09:02:59Z</time>
      </trkpt>
      <trkpt lat="43.29107" lon="5.65369">
        <ele>227.1</ele>
        <time>2022-03-16T09:03:05Z</time>
      </trkpt>
      <trkpt lat="43.29107" lon="5.65376">
        <ele>227.4</ele>
        <time>2022-03-16T09:03:09Z</time>
      </trkpt>
      <trkpt lat="43.29107" lon="5.65383">
        <ele>228.1</ele>
        <time>2022-03-16T09:03:13Z</time>
      </trkpt>
      <trkpt lat="43.29107" lon="5.65389">
        <ele>228.7</ele>
        <time>2022-03-16T09:03:17Z</time>
      </trkpt>
      <trkpt lat="43.29107" lon="5.65396">
        <ele>229.1</ele>
        <time>2022-03-16T09:03:21Z</time>
      </trkpt>
      <trkpt lat="43.29107" lon="5.65403">
        <ele>229.2</ele>
        <time>2022-03-16T09:03:25Z</time>
      </trkpt>
      <trkpt lat="43.29106" lon="5.6541">
        <ele>229.6</ele>
        <time>2022-03-16T09:03:29Z</time>
      </trkpt>
      <trkpt lat="43.29106" lon="5.65416">
        <ele>230.1</ele>
        <time>2022-03-16T09:03:33Z</time>
      </trkpt>
      <trkpt lat="43.29105" lon="5.65424">
        <ele>231</ele>
        <time>2022-03-16T09:03:39Z</time>
      </trkpt>
      <trkpt lat="43.29105" lon="5.65433">
        <ele>231.3</ele>
        <time>2022-03-16T09:03:45Z</time>
      </trkpt>
      <trkpt lat="43.29105" lon="5.65439">
        <ele>231.2</ele>
        <time>2022-03-16T09:03:49Z</time>
      </trkpt>
      <trkpt lat="43.29105" lon="5.65446">
        <ele>231</ele>
        <time>2022-03-16T09:03:53Z</time>
      </trkpt>
      <trkpt lat="43.29105" lon="5.65455">
        <ele>230.7</ele>
        <time>2022-03-16T09:03:59Z</time>
      </trkpt>
      <trkpt lat="43.29104" lon="5.65462">
        <ele>230.6</ele>
        <time>2022-03-16T09:04:05Z</time>
      </trkpt>
      <trkpt lat="43.29103" lon="5.65468">
        <ele>230.5</ele>
        <time>2022-03-16T09:04:09Z</time>
      </trkpt>
      <trkpt lat="43.29101" lon="5.65475">
        <ele>231</ele>
        <time>2022-03-16T09:04:15Z</time>
      </trkpt>
      <trkpt lat="43.29098" lon="5.65481">
        <ele>231.9</ele>
        <time>2022-03-16T09:04:21Z</time>
      </trkpt>
      <trkpt lat="43.29094" lon="5.65487">
        <ele>232.9</ele>
        <time>2022-03-16T09:04:27Z</time>
      </trkpt>
      <trkpt lat="43.2909" lon="5.65493">
        <ele>233.7</ele>
        <time>2022-03-16T09:04:33Z</time>
      </trkpt>
      <trkpt lat="43.29087" lon="5.655">
        <ele>234.2</ele>
        <time>2022-03-16T09:04:39Z</time>
      </trkpt>
      <trkpt lat="43.29082" lon="5.65506">
        <ele>234.7</ele>
        <time>2022-03-16T09:04:45Z</time>
      </trkpt>
      <trkpt lat="43.2908" lon="5.65513">
        <ele>235.2</ele>
        <time>2022-03-16T09:04:51Z</time>
      </trkpt>
      <trkpt lat="43.29077" lon="5.65519">
        <ele>235.4</ele>
        <time>2022-03-16T09:04:57Z</time>
      </trkpt>
      <trkpt lat="43.29074" lon="5.65528">
        <ele>235.1</ele>
        <time>2022-03-16T09:05:03Z</time>
      </trkpt>
      <trkpt lat="43.29071" lon="5.65534">
        <ele>235.1</ele>
        <time>2022-03-16T09:05:07Z</time>
      </trkpt>
      <trkpt lat="43.29068" lon="5.65541">
        <ele>234.9</ele>
        <time>2022-03-16T09:05:11Z</time>
      </trkpt>
      <trkpt lat="43.29065" lon="5.65547">
        <ele>234.2</ele>
        <time>2022-03-16T09:05:15Z</time>
      </trkpt>
      <trkpt lat="43.29063" lon="5.65554">
        <ele>232.8</ele>
        <time>2022-03-16T09:05:21Z</time>
      </trkpt>
      <trkpt lat="43.29063" lon="5.65562">
        <ele>231.7</ele>
        <time>2022-03-16T09:05:27Z</time>
      </trkpt>
      <trkpt lat="43.29062" lon="5.65571">
        <ele>230.4</ele>
        <time>2022-03-16T09:05:33Z</time>
      </trkpt>
      <trkpt lat="43.29061" lon="5.65579">
        <ele>229.3</ele>
        <time>2022-03-16T09:05:37Z</time>
      </trkpt>
      <trkpt lat="43.29061" lon="5.65589">
        <ele>228.8</ele>
        <time>2022-03-16T09:05:41Z</time>
      </trkpt>
      <trkpt lat="43.29063" lon="5.65597">
        <ele>228.9</ele>
        <time>2022-03-16T09:05:45Z</time>
      </trkpt>
      <trkpt lat="43.29064" lon="5.65606">
        <ele>228.9</ele>
        <time>2022-03-16T09:05:49Z</time>
      </trkpt>
      <trkpt lat="43.29067" lon="5.65613">
        <ele>229</ele>
        <time>2022-03-16T09:05:53Z</time>
      </trkpt>
      <trkpt lat="43.2907" lon="5.65621">
        <ele>229.2</ele>
        <time>2022-03-16T09:05:57Z</time>
      </trkpt>
      <trkpt lat="43.29073" lon="5.65629">
        <ele>229.2</ele>
        <time>2022-03-16T09:06:01Z</time>
      </trkpt>
      <trkpt lat="43.29075" lon="5.65636">
        <ele>229.3</ele>
        <time>2022-03-16T09:06:05Z</time>
      </trkpt>
      <trkpt lat="43.29077" lon="5.65642">
        <ele>229.5</ele>
        <time>2022-03-16T09:06:09Z</time>
      </trkpt>
      <trkpt lat="43.2908" lon="5.65651">
        <ele>230</ele>
        <time>2022-03-16T09:06:15Z</time>
      </trkpt>
      <trkpt lat="43.29082" lon="5.65657">
        <ele>230</ele>
        <time>2022-03-16T09:06:19Z</time>
      </trkpt>
      <trkpt lat="43.29083" lon="5.65665">
        <ele>230</ele>
        <time>2022-03-16T09:06:23Z</time>
      </trkpt>
      <trkpt lat="43.29084" lon="5.65673">
        <ele>230.2</ele>
        <time>2022-03-16T09:06:27Z</time>
      </trkpt>
      <trkpt lat="43.29084" lon="5.6568">
        <ele>230.5</ele>
        <time>2022-03-16T09:06:31Z</time>
      </trkpt>
      <trkpt lat="43.29085" lon="5.65688">
        <ele>230.8</ele>
        <time>2022-03-16T09:06:37Z</time>
      </trkpt>
      <trkpt lat="43.29086" lon="5.65695">
        <ele>231</ele>
        <time>2022-03-16T09:06:43Z</time>
      </trkpt>
      <trkpt lat="43.29086" lon="5.65704">
        <ele>231</ele>
        <time>2022-03-16T09:06:49Z</time>
      </trkpt>
      <trkpt lat="43.29086" lon="5.6571">
        <ele>231.1</ele>
        <time>2022-03-16T09:06:53Z</time>
      </trkpt>
      <trkpt lat="43.29086" lon="5.65716">
        <ele>231.1</ele>
        <time>2022-03-16T09:06:57Z</time>
      </trkpt>
      <trkpt lat="43.29085" lon="5.65725">
        <ele>231.1</ele>
        <time>2022-03-16T09:07:05Z</time>
      </trkpt>
      <trkpt lat="43.29084" lon="5.65731">
        <ele>231</ele>
        <time>2022-03-16T09:07:09Z</time>
      </trkpt>
      <trkpt lat="43.29083" lon="5.65737">
        <ele>231.3</ele>
        <time>2022-03-16T09:07:13Z</time>
      </trkpt>
      <trkpt lat="43.29081" lon="5.65743">
        <ele>232.4</ele>
        <time>2022-03-16T09:07:19Z</time>
      </trkpt>
      <trkpt lat="43.29076" lon="5.65741">
        <ele>235.6</ele>
        <time>2022-03-16T09:07:57Z</time>
      </trkpt>
      <trkpt lat="43.29072" lon="5.65747">
        <ele>237.9</ele>
        <time>2022-03-16T09:08:33Z</time>
      </trkpt>
      <trkpt lat="43.29069" lon="5.65753">
        <ele>238.6</ele>
        <time>2022-03-16T09:08:41Z</time>
      </trkpt>
      <trkpt lat="43.29065" lon="5.65757">
        <ele>239.2</ele>
        <time>2022-03-16T09:08:45Z</time>
      </trkpt>
      <trkpt lat="43.2906" lon="5.65763">
        <ele>239.5</ele>
        <time>2022-03-16T09:08:51Z</time>
      </trkpt>
      <trkpt lat="43.29055" lon="5.65766">
        <ele>239.5</ele>
        <time>2022-03-16T09:08:55Z</time>
      </trkpt>
      <trkpt lat="43.29051" lon="5.65768">
        <ele>241.8</ele>
        <time>2022-03-16T09:08:59Z</time>
      </trkpt>
      <trkpt lat="43.29046" lon="5.65771">
        <ele>244.7</ele>
        <time>2022-03-16T09:09:05Z</time>
      </trkpt>
      <trkpt lat="43.29041" lon="5.65775">
        <ele>247.1</ele>
        <time>2022-03-16T09:09:11Z</time>
      </trkpt>
      <trkpt lat="43.29037" lon="5.65783">
        <ele>248.5</ele>
        <time>2022-03-16T09:09:17Z</time>
      </trkpt>
      <trkpt lat="43.29036" lon="5.6579">
        <ele>247.5</ele>
        <time>2022-03-16T09:09:21Z</time>
      </trkpt>
      <trkpt lat="43.29034" lon="5.65798">
        <ele>245.8</ele>
        <time>2022-03-16T09:09:25Z</time>
      </trkpt>
      <trkpt lat="43.29033" lon="5.65805">
        <ele>244</ele>
        <time>2022-03-16T09:09:29Z</time>
      </trkpt>
      <trkpt lat="43.29033" lon="5.65814">
        <ele>242.5</ele>
        <time>2022-03-16T09:09:33Z</time>
      </trkpt>
      <trkpt lat="43.29032" lon="5.65822">
        <ele>240.8</ele>
        <time>2022-03-16T09:09:37Z</time>
      </trkpt>
      <trkpt lat="43.29032" lon="5.65831">
        <ele>238.6</ele>
        <time>2022-03-16T09:09:41Z</time>
      </trkpt>
      <trkpt lat="43.29033" lon="5.6584">
        <ele>237</ele>
        <time>2022-03-16T09:09:45Z</time>
      </trkpt>
      <trkpt lat="43.29033" lon="5.65846">
        <ele>236</ele>
        <time>2022-03-16T09:09:51Z</time>
      </trkpt>
      <trkpt lat="43.29031" lon="5.65852">
        <ele>235.3</ele>
        <time>2022-03-16T09:10:13Z</time>
      </trkpt>
      <trkpt lat="43.29032" lon="5.65858">
        <ele>234.3</ele>
        <time>2022-03-16T09:10:27Z</time>
      </trkpt>
      <trkpt lat="43.29027" lon="5.65862">
        <ele>234.4</ele>
        <time>2022-03-16T09:10:43Z</time>
      </trkpt>
      <trkpt lat="43.29027" lon="5.65868">
        <ele>234.8</ele>
        <time>2022-03-16T09:10:51Z</time>
      </trkpt>
      <trkpt lat="43.29026" lon="5.65875">
        <ele>235.4</ele>
        <time>2022-03-16T09:10:57Z</time>
      </trkpt>
      <trkpt lat="43.29023" lon="5.65881">
        <ele>236.9</ele>
        <time>2022-03-16T09:11:03Z</time>
      </trkpt>
      <trkpt lat="43.29023" lon="5.65891">
        <ele>237.4</ele>
        <time>2022-03-16T09:11:09Z</time>
      </trkpt>
      <trkpt lat="43.29023" lon="5.65899">
        <ele>237.9</ele>
        <time>2022-03-16T09:11:15Z</time>
      </trkpt>
      <trkpt lat="43.29021" lon="5.65906">
        <ele>239.3</ele>
        <time>2022-03-16T09:11:21Z</time>
      </trkpt>
      <trkpt lat="43.29022" lon="5.65913">
        <ele>239.5</ele>
        <time>2022-03-16T09:11:27Z</time>
      </trkpt>
      <trkpt lat="43.29023" lon="5.6592">
        <ele>239</ele>
        <time>2022-03-16T09:11:35Z</time>
      </trkpt>
      <trkpt lat="43.29024" lon="5.65927">
        <ele>238.8</ele>
        <time>2022-03-16T09:11:41Z</time>
      </trkpt>
      <trkpt lat="43.29024" lon="5.65934">
        <ele>239</ele>
        <time>2022-03-16T09:11:47Z</time>
      </trkpt>
      <trkpt lat="43.29025" lon="5.6594">
        <ele>238.8</ele>
        <time>2022-03-16T09:11:53Z</time>
      </trkpt>
      <trkpt lat="43.29027" lon="5.65948">
        <ele>237.8</ele>
        <time>2022-03-16T09:11:59Z</time>
      </trkpt>
      <trkpt lat="43.2903" lon="5.65956">
        <ele>237.7</ele>
        <time>2022-03-16T09:12:05Z</time>
      </trkpt>
      <trkpt lat="43.29032" lon="5.65961">
        <ele>238</ele>
        <time>2022-03-16T09:12:11Z</time>
      </trkpt>
      <trkpt lat="43.29035" lon="5.65968">
        <ele>238.4</ele>
        <time>2022-03-16T09:12:19Z</time>
      </trkpt>
      <trkpt lat="43.29039" lon="5.65973">
        <ele>238.7</ele>
        <time>2022-03-16T09:12:29Z</time>
      </trkpt>
      <trkpt lat="43.29043" lon="5.65979">
        <ele>239.2</ele>
        <time>2022-03-16T09:13:09Z</time>
      </trkpt>
      <trkpt lat="43.29048" lon="5.65984">
        <ele>239.4</ele>
        <time>2022-03-16T09:13:17Z</time>
      </trkpt>
      <trkpt lat="43.29053" lon="5.65986">
        <ele>239.2</ele>
        <time>2022-03-16T09:13:21Z</time>
      </trkpt>
      <trkpt lat="43.29057" lon="5.65986">
        <ele>239.1</ele>
        <time>2022-03-16T09:13:39Z</time>
      </trkpt>
      <trkpt lat="43.29062" lon="5.65984">
        <ele>239.2</ele>
        <time>2022-03-16T09:13:47Z</time>
      </trkpt>
      <trkpt lat="43.29065" lon="5.6598">
        <ele>239.2</ele>
        <time>2022-03-16T09:13:55Z</time>
      </trkpt>
      <trkpt lat="43.2907" lon="5.65975">
        <ele>239.2</ele>
        <time>2022-03-16T09:14:01Z</time>
      </trkpt>
      <trkpt lat="43.29074" lon="5.65972">
        <ele>239.3</ele>
        <time>2022-03-16T09:14:05Z</time>
      </trkpt>
      <trkpt lat="43.29078" lon="5.65967">
        <ele>239.4</ele>
        <time>2022-03-16T09:14:11Z</time>
      </trkpt>
      <trkpt lat="43.2908" lon="5.6596">
        <ele>239.2</ele>
        <time>2022-03-16T09:14:17Z</time>
      </trkpt>
      <trkpt lat="43.2908" lon="5.65945">
        <ele>238.7</ele>
        <time>2022-03-16T09:14:21Z</time>
      </trkpt>
      <trkpt lat="43.2908" lon="5.65936">
        <ele>238.9</ele>
        <time>2022-03-16T09:14:25Z</time>
      </trkpt>
      <trkpt lat="43.29081" lon="5.6593">
        <ele>239.2</ele>
        <time>2022-03-16T09:14:31Z</time>
      </trkpt>
      <trkpt lat="43.29082" lon="5.65923">
        <ele>239.6</ele>
        <time>2022-03-16T09:14:37Z</time>
      </trkpt>
      <trkpt lat="43.29087" lon="5.65922">
        <ele>243.3</ele>
        <time>2022-03-16T09:14:47Z</time>
      </trkpt>
      <trkpt lat="43.2909" lon="5.65929">
        <ele>245.1</ele>
        <time>2022-03-16T09:14:53Z</time>
      </trkpt>
      <trkpt lat="43.29093" lon="5.65934">
        <ele>246</ele>
        <time>2022-03-16T09:14:59Z</time>
      </trkpt>
      <trkpt lat="43.29096" lon="5.65941">
        <ele>246.7</ele>
        <time>2022-03-16T09:15:05Z</time>
      </trkpt>
      <trkpt lat="43.29099" lon="5.65949">
        <ele>246.8</ele>
        <time>2022-03-16T09:15:13Z</time>
      </trkpt>
      <trkpt lat="43.29099" lon="5.65955">
        <ele>246.7</ele>
        <time>2022-03-16T09:15:17Z</time>
      </trkpt>
      <trkpt lat="43.29097" lon="5.65962">
        <ele>245.8</ele>
        <time>2022-03-16T09:15:23Z</time>
      </trkpt>
      <trkpt lat="43.29096" lon="5.6597">
        <ele>244.9</ele>
        <time>2022-03-16T09:15:29Z</time>
      </trkpt>
      <trkpt lat="43.29096" lon="5.65976">
        <ele>245.1</ele>
        <time>2022-03-16T09:15:35Z</time>
      </trkpt>
      <trkpt lat="43.29099" lon="5.65984">
        <ele>245.7</ele>
        <time>2022-03-16T09:15:43Z</time>
      </trkpt>
      <trkpt lat="43.29102" lon="5.65989">
        <ele>246.6</ele>
        <time>2022-03-16T09:15:49Z</time>
      </trkpt>
      <trkpt lat="43.29105" lon="5.65994">
        <ele>247.6</ele>
        <time>2022-03-16T09:15:53Z</time>
      </trkpt>
      <trkpt lat="43.29108" lon="5.66">
        <ele>248.3</ele>
        <time>2022-03-16T09:15:59Z</time>
      </trkpt>
      <trkpt lat="43.29112" lon="5.66005">
        <ele>249.6</ele>
        <time>2022-03-16T09:16:05Z</time>
      </trkpt>
      <trkpt lat="43.29114" lon="5.6601">
        <ele>250.9</ele>
        <time>2022-03-16T09:16:11Z</time>
      </trkpt>
      <trkpt lat="43.29116" lon="5.66017">
        <ele>252</ele>
        <time>2022-03-16T09:16:19Z</time>
      </trkpt>
      <trkpt lat="43.2912" lon="5.66024">
        <ele>253.4</ele>
        <time>2022-03-16T09:16:27Z</time>
      </trkpt>
      <trkpt lat="43.29125" lon="5.66028">
        <ele>255.6</ele>
        <time>2022-03-16T09:16:35Z</time>
      </trkpt>
      <trkpt lat="43.29127" lon="5.66036">
        <ele>254.8</ele>
        <time>2022-03-16T09:16:41Z</time>
      </trkpt>
      <trkpt lat="43.29129" lon="5.66043">
        <ele>254.6</ele>
        <time>2022-03-16T09:16:47Z</time>
      </trkpt>
      <trkpt lat="43.29133" lon="5.66048">
        <ele>255.2</ele>
        <time>2022-03-16T09:16:55Z</time>
      </trkpt>
      <trkpt lat="43.29137" lon="5.66055">
        <ele>255.5</ele>
        <time>2022-03-16T09:17:03Z</time>
      </trkpt>
      <trkpt lat="43.29139" lon="5.66061">
        <ele>254.8</ele>
        <time>2022-03-16T09:17:07Z</time>
      </trkpt>
      <trkpt lat="43.29141" lon="5.66068">
        <ele>254.1</ele>
        <time>2022-03-16T09:17:13Z</time>
      </trkpt>
      <trkpt lat="43.29145" lon="5.66074">
        <ele>254.2</ele>
        <time>2022-03-16T09:17:19Z</time>
      </trkpt>
      <trkpt lat="43.29148" lon="5.66077">
        <ele>254.7</ele>
        <time>2022-03-16T09:17:23Z</time>
      </trkpt>
      <trkpt lat="43.29153" lon="5.66083">
        <ele>255.3</ele>
        <time>2022-03-16T09:17:29Z</time>
      </trkpt>
      <trkpt lat="43.29158" lon="5.66086">
        <ele>256.4</ele>
        <time>2022-03-16T09:17:35Z</time>
      </trkpt>
      <trkpt lat="43.29162" lon="5.66092">
        <ele>257</ele>
        <time>2022-03-16T09:17:41Z</time>
      </trkpt>
      <trkpt lat="43.29166" lon="5.66096">
        <ele>257.9</ele>
        <time>2022-03-16T09:17:47Z</time>
      </trkpt>
      <trkpt lat="43.2917" lon="5.661">
        <ele>258.1</ele>
        <time>2022-03-16T09:17:51Z</time>
      </trkpt>
      <trkpt lat="43.29174" lon="5.66105">
        <ele>257.9</ele>
        <time>2022-03-16T09:17:57Z</time>
      </trkpt>
      <trkpt lat="43.29179" lon="5.66109">
        <ele>257.8</ele>
        <time>2022-03-16T09:18:03Z</time>
      </trkpt>
      <trkpt lat="43.29185" lon="5.66112">
        <ele>258</ele>
        <time>2022-03-16T09:18:09Z</time>
      </trkpt>
      <trkpt lat="43.29191" lon="5.66114">
        <ele>258.4</ele>
        <time>2022-03-16T09:18:15Z</time>
      </trkpt>
      <trkpt lat="43.29195" lon="5.66116">
        <ele>258.8</ele>
        <time>2022-03-16T09:18:21Z</time>
      </trkpt>
      <trkpt lat="43.29201" lon="5.66121">
        <ele>259.5</ele>
        <time>2022-03-16T09:18:27Z</time>
      </trkpt>
      <trkpt lat="43.29206" lon="5.66126">
        <ele>259.8</ele>
        <time>2022-03-16T09:18:33Z</time>
      </trkpt>
      <trkpt lat="43.29211" lon="5.66129">
        <ele>259.9</ele>
        <time>2022-03-16T09:18:39Z</time>
      </trkpt>
      <trkpt lat="43.29216" lon="5.66134">
        <ele>259.7</ele>
        <time>2022-03-16T09:18:45Z</time>
      </trkpt>
      <trkpt lat="43.2922" lon="5.66137">
        <ele>259.2</ele>
        <time>2022-03-16T09:18:49Z</time>
      </trkpt>
      <trkpt lat="43.29224" lon="5.66141">
        <ele>259.2</ele>
        <time>2022-03-16T09:18:53Z</time>
      </trkpt>
      <trkpt lat="43.29228" lon="5.66144">
        <ele>259.8</ele>
        <time>2022-03-16T09:18:57Z</time>
      </trkpt>
      <trkpt lat="43.29233" lon="5.66149">
        <ele>260.3</ele>
        <time>2022-03-16T09:19:03Z</time>
      </trkpt>
      <trkpt lat="43.29238" lon="5.66154">
        <ele>260.4</ele>
        <time>2022-03-16T09:19:09Z</time>
      </trkpt>
      <trkpt lat="43.29243" lon="5.66158">
        <ele>260.2</ele>
        <time>2022-03-16T09:19:15Z</time>
      </trkpt>
      <trkpt lat="43.29247" lon="5.66161">
        <ele>260</ele>
        <time>2022-03-16T09:19:19Z</time>
      </trkpt>
      <trkpt lat="43.29252" lon="5.66166">
        <ele>259.4</ele>
        <time>2022-03-16T09:19:25Z</time>
      </trkpt>
      <trkpt lat="43.29258" lon="5.6617">
        <ele>259.7</ele>
        <time>2022-03-16T09:19:31Z</time>
      </trkpt>
      <trkpt lat="43.29263" lon="5.66173">
        <ele>259.9</ele>
        <time>2022-03-16T09:19:37Z</time>
      </trkpt>
      <trkpt lat="43.29268" lon="5.66177">
        <ele>260.1</ele>
        <time>2022-03-16T09:19:43Z</time>
      </trkpt>
      <trkpt lat="43.29272" lon="5.66181">
        <ele>260.1</ele>
        <time>2022-03-16T09:19:47Z</time>
      </trkpt>
      <trkpt lat="43.29276" lon="5.66186">
        <ele>259.8</ele>
        <time>2022-03-16T09:19:53Z</time>
      </trkpt>
      <trkpt lat="43.29279" lon="5.6619">
        <ele>259.5</ele>
        <time>2022-03-16T09:19:57Z</time>
      </trkpt>
      <trkpt lat="43.29283" lon="5.66195">
        <ele>259.4</ele>
        <time>2022-03-16T09:20:01Z</time>
      </trkpt>
      <trkpt lat="43.29289" lon="5.662">
        <ele>259.6</ele>
        <time>2022-03-16T09:20:05Z</time>
      </trkpt>
      <trkpt lat="43.29294" lon="5.66205">
        <ele>259.8</ele>
        <time>2022-03-16T09:20:09Z</time>
      </trkpt>
      <trkpt lat="43.29299" lon="5.6621">
        <ele>259.9</ele>
        <time>2022-03-16T09:20:15Z</time>
      </trkpt>
      <trkpt lat="43.29302" lon="5.66214">
        <ele>260.1</ele>
        <time>2022-03-16T09:20:19Z</time>
      </trkpt>
      <trkpt lat="43.29307" lon="5.66218">
        <ele>260.3</ele>
        <time>2022-03-16T09:20:27Z</time>
      </trkpt>
      <trkpt lat="43.29312" lon="5.66223">
        <ele>260.6</ele>
        <time>2022-03-16T09:20:39Z</time>
      </trkpt>
      <trkpt lat="43.29319" lon="5.6623">
        <ele>261</ele>
        <time>2022-03-16T09:20:43Z</time>
      </trkpt>
      <trkpt lat="43.29324" lon="5.66235">
        <ele>261.3</ele>
        <time>2022-03-16T09:20:47Z</time>
      </trkpt>
      <trkpt lat="43.29328" lon="5.66239">
        <ele>261.3</ele>
        <time>2022-03-16T09:20:51Z</time>
      </trkpt>
      <trkpt lat="43.29332" lon="5.66243">
        <ele>261.3</ele>
        <time>2022-03-16T09:20:57Z</time>
      </trkpt>
      <trkpt lat="43.29336" lon="5.66247">
        <ele>261.7</ele>
        <time>2022-03-16T09:21:01Z</time>
      </trkpt>
      <trkpt lat="43.2934" lon="5.6625">
        <ele>262.4</ele>
        <time>2022-03-16T09:21:07Z</time>
      </trkpt>
      <trkpt lat="43.29344" lon="5.66252">
        <ele>263.1</ele>
        <time>2022-03-16T09:21:11Z</time>
      </trkpt>
      <trkpt lat="43.29349" lon="5.66255">
        <ele>263.7</ele>
        <time>2022-03-16T09:21:15Z</time>
      </trkpt>
      <trkpt lat="43.29354" lon="5.66257">
        <ele>264.1</ele>
        <time>2022-03-16T09:21:21Z</time>
      </trkpt>
      <trkpt lat="43.29358" lon="5.6626">
        <ele>264.2</ele>
        <time>2022-03-16T09:21:29Z</time>
      </trkpt>
      <trkpt lat="43.29363" lon="5.66261">
        <ele>264.5</ele>
        <time>2022-03-16T09:21:57Z</time>
      </trkpt>
      <trkpt lat="43.29369" lon="5.66262">
        <ele>265.6</ele>
        <time>2022-03-16T09:22:03Z</time>
      </trkpt>
      <trkpt lat="43.29374" lon="5.66263">
        <ele>266.4</ele>
        <time>2022-03-16T09:22:07Z</time>
      </trkpt>
      <trkpt lat="43.2938" lon="5.66266">
        <ele>266.7</ele>
        <time>2022-03-16T09:22:11Z</time>
      </trkpt>
      <trkpt lat="43.29387" lon="5.66267">
        <ele>267.6</ele>
        <time>2022-03-16T09:22:17Z</time>
      </trkpt>
      <trkpt lat="43.29393" lon="5.66269">
        <ele>267.6</ele>
        <time>2022-03-16T09:22:21Z</time>
      </trkpt>
      <trkpt lat="43.29398" lon="5.6627">
        <ele>267.2</ele>
        <time>2022-03-16T09:22:23Z</time>
      </trkpt>
      <trkpt lat="43.29406" lon="5.66273">
        <ele>266.6</ele>
        <time>2022-03-16T09:22:27Z</time>
      </trkpt>
      <trkpt lat="43.2941" lon="5.66274">
        <ele>266.2</ele>
        <time>2022-03-16T09:22:29Z</time>
      </trkpt>
      <trkpt lat="43.29419" lon="5.66277">
        <ele>265.4</ele>
        <time>2022-03-16T09:22:33Z</time>
      </trkpt>
      <trkpt lat="43.29426" lon="5.66277">
        <ele>264.9</ele>
        <time>2022-03-16T09:22:37Z</time>
      </trkpt>
      <trkpt lat="43.29431" lon="5.66278">
        <ele>264.5</ele>
        <time>2022-03-16T09:22:41Z</time>
      </trkpt>
      <trkpt lat="43.29437" lon="5.66281">
        <ele>264.2</ele>
        <time>2022-03-16T09:22:45Z</time>
      </trkpt>
      <trkpt lat="43.29442" lon="5.66283">
        <ele>264.1</ele>
        <time>2022-03-16T09:22:49Z</time>
      </trkpt>
      <trkpt lat="43.29446" lon="5.66286">
        <ele>264</ele>
        <time>2022-03-16T09:22:57Z</time>
      </trkpt>
      <trkpt lat="43.29451" lon="5.66289">
        <ele>264.2</ele>
        <time>2022-03-16T09:23:05Z</time>
      </trkpt>
      <trkpt lat="43.29457" lon="5.66289">
        <ele>264.3</ele>
        <time>2022-03-16T09:23:25Z</time>
      </trkpt>
      <trkpt lat="43.29462" lon="5.6629">
        <ele>264.6</ele>
        <time>2022-03-16T09:23:31Z</time>
      </trkpt>
      <trkpt lat="43.29468" lon="5.66291">
        <ele>264.8</ele>
        <time>2022-03-16T09:23:37Z</time>
      </trkpt>
      <trkpt lat="43.29474" lon="5.66292">
        <ele>265.1</ele>
        <time>2022-03-16T09:23:43Z</time>
      </trkpt>
      <trkpt lat="43.29481" lon="5.66293">
        <ele>265.6</ele>
        <time>2022-03-16T09:23:49Z</time>
      </trkpt>
      <trkpt lat="43.29486" lon="5.66295">
        <ele>266</ele>
        <time>2022-03-16T09:23:53Z</time>
      </trkpt>
      <trkpt lat="43.2949" lon="5.66296">
        <ele>266.4</ele>
        <time>2022-03-16T09:23:57Z</time>
      </trkpt>
      <trkpt lat="43.29495" lon="5.66297">
        <ele>266.8</ele>
        <time>2022-03-16T09:24:01Z</time>
      </trkpt>
      <trkpt lat="43.29501" lon="5.66298">
        <ele>267.3</ele>
        <time>2022-03-16T09:24:05Z</time>
      </trkpt>
      <trkpt lat="43.29506" lon="5.663">
        <ele>268</ele>
        <time>2022-03-16T09:24:09Z</time>
      </trkpt>
      <trkpt lat="43.29511" lon="5.66301">
        <ele>268.7</ele>
        <time>2022-03-16T09:24:13Z</time>
      </trkpt>
      <trkpt lat="43.29516" lon="5.66302">
        <ele>269.2</ele>
        <time>2022-03-16T09:24:17Z</time>
      </trkpt>
      <trkpt lat="43.29522" lon="5.66303">
        <ele>269.9</ele>
        <time>2022-03-16T09:24:23Z</time>
      </trkpt>
      <trkpt lat="43.29528" lon="5.66302">
        <ele>270.5</ele>
        <time>2022-03-16T09:24:29Z</time>
      </trkpt>
      <trkpt lat="43.29534" lon="5.66302">
        <ele>271.1</ele>
        <time>2022-03-16T09:24:35Z</time>
      </trkpt>
      <trkpt lat="43.29542" lon="5.663">
        <ele>271.4</ele>
        <time>2022-03-16T09:24:41Z</time>
      </trkpt>
      <trkpt lat="43.29549" lon="5.66302">
        <ele>272.4</ele>
        <time>2022-03-16T09:24:45Z</time>
      </trkpt>
      <trkpt lat="43.29555" lon="5.66301">
        <ele>272.9</ele>
        <time>2022-03-16T09:24:49Z</time>
      </trkpt>
      <trkpt lat="43.2956" lon="5.66293">
        <ele>271.2</ele>
        <time>2022-03-16T09:24:53Z</time>
      </trkpt>
      <trkpt lat="43.29565" lon="5.66289">
        <ele>270.7</ele>
        <time>2022-03-16T09:24:59Z</time>
      </trkpt>
      <trkpt lat="43.29569" lon="5.66287">
        <ele>270.6</ele>
        <time>2022-03-16T09:25:05Z</time>
      </trkpt>
      <trkpt lat="43.29574" lon="5.66283">
        <ele>270.5</ele>
        <time>2022-03-16T09:25:09Z</time>
      </trkpt>
      <trkpt lat="43.29578" lon="5.6628">
        <ele>270.6</ele>
        <time>2022-03-16T09:25:13Z</time>
      </trkpt>
      <trkpt lat="43.29583" lon="5.66276">
        <ele>271.4</ele>
        <time>2022-03-16T09:25:17Z</time>
      </trkpt>
      <trkpt lat="43.29589" lon="5.66271">
        <ele>272.7</ele>
        <time>2022-03-16T09:25:21Z</time>
      </trkpt>
      <trkpt lat="43.29595" lon="5.66269">
        <ele>273.2</ele>
        <time>2022-03-16T09:25:25Z</time>
      </trkpt>
      <trkpt lat="43.296" lon="5.66263">
        <ele>274.6</ele>
        <time>2022-03-16T09:25:29Z</time>
      </trkpt>
      <trkpt lat="43.29605" lon="5.66263">
        <ele>274.8</ele>
        <time>2022-03-16T09:25:35Z</time>
      </trkpt>
      <trkpt lat="43.29611" lon="5.6626">
        <ele>275.5</ele>
        <time>2022-03-16T09:25:43Z</time>
      </trkpt>
      <trkpt lat="43.29616" lon="5.66257">
        <ele>276.1</ele>
        <time>2022-03-16T09:25:49Z</time>
      </trkpt>
      <trkpt lat="43.29621" lon="5.66256">
        <ele>276.2</ele>
        <time>2022-03-16T09:25:55Z</time>
      </trkpt>
      <trkpt lat="43.29628" lon="5.66256">
        <ele>276.2</ele>
        <time>2022-03-16T09:25:59Z</time>
      </trkpt>
      <trkpt lat="43.29634" lon="5.66255">
        <ele>276.3</ele>
        <time>2022-03-16T09:26:05Z</time>
      </trkpt>
      <trkpt lat="43.2964" lon="5.66255">
        <ele>276.2</ele>
        <time>2022-03-16T09:26:09Z</time>
      </trkpt>
      <trkpt lat="43.29646" lon="5.66254">
        <ele>276.3</ele>
        <time>2022-03-16T09:26:13Z</time>
      </trkpt>
      <trkpt lat="43.29653" lon="5.66254">
        <ele>276.4</ele>
        <time>2022-03-16T09:26:17Z</time>
      </trkpt>
      <trkpt lat="43.2966" lon="5.66255">
        <ele>276.4</ele>
        <time>2022-03-16T09:26:21Z</time>
      </trkpt>
      <trkpt lat="43.29667" lon="5.66256">
        <ele>276.4</ele>
        <time>2022-03-16T09:26:25Z</time>
      </trkpt>
      <trkpt lat="43.29672" lon="5.66257">
        <ele>276.7</ele>
        <time>2022-03-16T09:26:29Z</time>
      </trkpt>
      <trkpt lat="43.29676" lon="5.66258">
        <ele>277</ele>
        <time>2022-03-16T09:26:33Z</time>
      </trkpt>
      <trkpt lat="43.29683" lon="5.6626">
        <ele>277.4</ele>
        <time>2022-03-16T09:26:37Z</time>
      </trkpt>
      <trkpt lat="43.2969" lon="5.66262">
        <ele>277.4</ele>
        <time>2022-03-16T09:26:41Z</time>
      </trkpt>
      <trkpt lat="43.29698" lon="5.66266">
        <ele>277.8</ele>
        <time>2022-03-16T09:26:45Z</time>
      </trkpt>
      <trkpt lat="43.29703" lon="5.66267">
        <ele>278.5</ele>
        <time>2022-03-16T09:26:49Z</time>
      </trkpt>
      <trkpt lat="43.29707" lon="5.66269">
        <ele>279</ele>
        <time>2022-03-16T09:27:05Z</time>
      </trkpt>
      <trkpt lat="43.29712" lon="5.66271">
        <ele>279.6</ele>
        <time>2022-03-16T09:28:13Z</time>
      </trkpt>
      <trkpt lat="43.29718" lon="5.66271">
        <ele>280.5</ele>
        <time>2022-03-16T09:28:19Z</time>
      </trkpt>
      <trkpt lat="43.29722" lon="5.66276">
        <ele>280.3</ele>
        <time>2022-03-16T09:28:25Z</time>
      </trkpt>
      <trkpt lat="43.29725" lon="5.66282">
        <ele>280.9</ele>
        <time>2022-03-16T09:28:33Z</time>
      </trkpt>
      <trkpt lat="43.2973" lon="5.66285">
        <ele>281.8</ele>
        <time>2022-03-16T09:28:39Z</time>
      </trkpt>
      <trkpt lat="43.29735" lon="5.66288">
        <ele>282.8</ele>
        <time>2022-03-16T09:28:51Z</time>
      </trkpt>
      <trkpt lat="43.29741" lon="5.66288">
        <ele>284</ele>
        <time>2022-03-16T09:28:57Z</time>
      </trkpt>
      <trkpt lat="43.29745" lon="5.66291">
        <ele>284.3</ele>
        <time>2022-03-16T09:29:01Z</time>
      </trkpt>
      <trkpt lat="43.2975" lon="5.66293">
        <ele>284.5</ele>
        <time>2022-03-16T09:29:05Z</time>
      </trkpt>
      <trkpt lat="43.29757" lon="5.66294">
        <ele>285.1</ele>
        <time>2022-03-16T09:29:11Z</time>
      </trkpt>
      <trkpt lat="43.29762" lon="5.66291">
        <ele>286.5</ele>
        <time>2022-03-16T09:29:17Z</time>
      </trkpt>
      <trkpt lat="43.29768" lon="5.66288">
        <ele>287.7</ele>
        <time>2022-03-16T09:29:31Z</time>
      </trkpt>
      <trkpt lat="43.29774" lon="5.66289">
        <ele>288.3</ele>
        <time>2022-03-16T09:29:37Z</time>
      </trkpt>
      <trkpt lat="43.2978" lon="5.6629">
        <ele>288.7</ele>
        <time>2022-03-16T09:29:43Z</time>
      </trkpt>
      <trkpt lat="43.29784" lon="5.6629">
        <ele>289.1</ele>
        <time>2022-03-16T09:29:51Z</time>
      </trkpt>
      <trkpt lat="43.29789" lon="5.6629">
        <ele>289.8</ele>
        <time>2022-03-16T09:30:11Z</time>
      </trkpt>
      <trkpt lat="43.29795" lon="5.66291">
        <ele>290.2</ele>
        <time>2022-03-16T09:30:29Z</time>
      </trkpt>
      <trkpt lat="43.29802" lon="5.66294">
        <ele>290.3</ele>
        <time>2022-03-16T09:31:07Z</time>
      </trkpt>
      <trkpt lat="43.29807" lon="5.66296">
        <ele>290.8</ele>
        <time>2022-03-16T09:31:13Z</time>
      </trkpt>
      <trkpt lat="43.29812" lon="5.66298">
        <ele>291</ele>
        <time>2022-03-16T09:31:17Z</time>
      </trkpt>
      <trkpt lat="43.29819" lon="5.66302">
        <ele>291.5</ele>
        <time>2022-03-16T09:31:21Z</time>
      </trkpt>
      <trkpt lat="43.29824" lon="5.66302">
        <ele>292.4</ele>
        <time>2022-03-16T09:31:25Z</time>
      </trkpt>
      <trkpt lat="43.29829" lon="5.66301">
        <ele>293.6</ele>
        <time>2022-03-16T09:31:31Z</time>
      </trkpt>
      <trkpt lat="43.29835" lon="5.66302">
        <ele>294.6</ele>
        <time>2022-03-16T09:31:35Z</time>
      </trkpt>
      <trkpt lat="43.2984" lon="5.66304">
        <ele>295.9</ele>
        <time>2022-03-16T09:31:41Z</time>
      </trkpt>
      <trkpt lat="43.29845" lon="5.66306">
        <ele>297</ele>
        <time>2022-03-16T09:31:47Z</time>
      </trkpt>
      <trkpt lat="43.29851" lon="5.6631">
        <ele>297.5</ele>
        <time>2022-03-16T09:31:55Z</time>
      </trkpt>
      <trkpt lat="43.29856" lon="5.66314">
        <ele>298</ele>
        <time>2022-03-16T09:32:01Z</time>
      </trkpt>
      <trkpt lat="43.29861" lon="5.66318">
        <ele>298.2</ele>
        <time>2022-03-16T09:32:07Z</time>
      </trkpt>
      <trkpt lat="43.29865" lon="5.6632">
        <ele>298.9</ele>
        <time>2022-03-16T09:32:13Z</time>
      </trkpt>
      <trkpt lat="43.2987" lon="5.66323">
        <ele>299.4</ele>
        <time>2022-03-16T09:32:21Z</time>
      </trkpt>
      <trkpt lat="43.29875" lon="5.66325">
        <ele>299.5</ele>
        <time>2022-03-16T09:32:27Z</time>
      </trkpt>
      <trkpt lat="43.2988" lon="5.66327">
        <ele>299.9</ele>
        <time>2022-03-16T09:32:33Z</time>
      </trkpt>
      <trkpt lat="43.29886" lon="5.66328">
        <ele>300.6</ele>
        <time>2022-03-16T09:32:41Z</time>
      </trkpt>
      <trkpt lat="43.29891" lon="5.6633">
        <ele>301.1</ele>
        <time>2022-03-16T09:32:47Z</time>
      </trkpt>
      <trkpt lat="43.29896" lon="5.66332">
        <ele>301.6</ele>
        <time>2022-03-16T09:32:57Z</time>
      </trkpt>
      <trkpt lat="43.299" lon="5.66337">
        <ele>301.3</ele>
        <time>2022-03-16T09:33:01Z</time>
      </trkpt>
      <trkpt lat="43.29905" lon="5.66342">
        <ele>301.8</ele>
        <time>2022-03-16T09:33:09Z</time>
      </trkpt>
      <trkpt lat="43.29907" lon="5.66348">
        <ele>301.5</ele>
        <time>2022-03-16T09:33:17Z</time>
      </trkpt>
      <trkpt lat="43.29912" lon="5.66351">
        <ele>302.5</ele>
        <time>2022-03-16T09:33:23Z</time>
      </trkpt>
      <trkpt lat="43.29918" lon="5.66354">
        <ele>303.5</ele>
        <time>2022-03-16T09:33:27Z</time>
      </trkpt>
      <trkpt lat="43.29923" lon="5.66355">
        <ele>305.1</ele>
        <time>2022-03-16T09:33:33Z</time>
      </trkpt>
      <trkpt lat="43.29929" lon="5.66357">
        <ele>306.3</ele>
        <time>2022-03-16T09:33:41Z</time>
      </trkpt>
      <trkpt lat="43.29934" lon="5.66357">
        <ele>307.8</ele>
        <time>2022-03-16T09:33:47Z</time>
      </trkpt>
      <trkpt lat="43.2994" lon="5.6636">
        <ele>308.4</ele>
        <time>2022-03-16T09:33:53Z</time>
      </trkpt>
      <trkpt lat="43.29946" lon="5.66361">
        <ele>309.4</ele>
        <time>2022-03-16T09:34:01Z</time>
      </trkpt>
      <trkpt lat="43.29952" lon="5.66361">
        <ele>310</ele>
        <time>2022-03-16T09:34:09Z</time>
      </trkpt>
      <trkpt lat="43.29956" lon="5.66362">
        <ele>310.3</ele>
        <time>2022-03-16T09:34:21Z</time>
      </trkpt>
      <trkpt lat="43.29962" lon="5.66361">
        <ele>311.4</ele>
        <time>2022-03-16T09:34:27Z</time>
      </trkpt>
      <trkpt lat="43.29967" lon="5.66361">
        <ele>312.4</ele>
        <time>2022-03-16T09:34:31Z</time>
      </trkpt>
      <trkpt lat="43.29972" lon="5.66361">
        <ele>312.8</ele>
        <time>2022-03-16T09:34:41Z</time>
      </trkpt>
      <trkpt lat="43.29976" lon="5.66364">
        <ele>312.9</ele>
        <time>2022-03-16T09:34:51Z</time>
      </trkpt>
      <trkpt lat="43.29982" lon="5.66364">
        <ele>313.9</ele>
        <time>2022-03-16T09:34:55Z</time>
      </trkpt>
      <trkpt lat="43.29988" lon="5.66365">
        <ele>314.7</ele>
        <time>2022-03-16T09:34:59Z</time>
      </trkpt>
      <trkpt lat="43.29992" lon="5.66367">
        <ele>315.1</ele>
        <time>2022-03-16T09:35:03Z</time>
      </trkpt>
      <trkpt lat="43.29998" lon="5.66369">
        <ele>315.6</ele>
        <time>2022-03-16T09:35:07Z</time>
      </trkpt>
      <trkpt lat="43.30004" lon="5.6637">
        <ele>316.7</ele>
        <time>2022-03-16T09:35:13Z</time>
      </trkpt>
      <trkpt lat="43.30009" lon="5.66372">
        <ele>317.5</ele>
        <time>2022-03-16T09:35:19Z</time>
      </trkpt>
      <trkpt lat="43.30013" lon="5.66375">
        <ele>317.9</ele>
        <time>2022-03-16T09:35:25Z</time>
      </trkpt>
      <trkpt lat="43.30019" lon="5.66379">
        <ele>318</ele>
        <time>2022-03-16T09:35:33Z</time>
      </trkpt>
      <trkpt lat="43.30024" lon="5.66381">
        <ele>318.7</ele>
        <time>2022-03-16T09:35:41Z</time>
      </trkpt>
      <trkpt lat="43.30029" lon="5.66381">
        <ele>319.8</ele>
        <time>2022-03-16T09:35:47Z</time>
      </trkpt>
      <trkpt lat="43.30034" lon="5.66383">
        <ele>320.8</ele>
        <time>2022-03-16T09:35:53Z</time>
      </trkpt>
      <trkpt lat="43.30041" lon="5.66386">
        <ele>322.2</ele>
        <time>2022-03-16T09:36:01Z</time>
      </trkpt>
      <trkpt lat="43.30045" lon="5.66394">
        <ele>321.8</ele>
        <time>2022-03-16T09:36:07Z</time>
      </trkpt>
      <trkpt lat="43.30047" lon="5.664">
        <ele>321.7</ele>
        <time>2022-03-16T09:36:13Z</time>
      </trkpt>
      <trkpt lat="43.30053" lon="5.66406">
        <ele>322.1</ele>
        <time>2022-03-16T09:36:21Z</time>
      </trkpt>
      <trkpt lat="43.30056" lon="5.66409">
        <ele>322.4</ele>
        <time>2022-03-16T09:36:25Z</time>
      </trkpt>
      <trkpt lat="43.3006" lon="5.66413">
        <ele>322.1</ele>
        <time>2022-03-16T09:36:29Z</time>
      </trkpt>
      <trkpt lat="43.30064" lon="5.66417">
        <ele>321.9</ele>
        <time>2022-03-16T09:36:37Z</time>
      </trkpt>
      <trkpt lat="43.30069" lon="5.66417">
        <ele>322.3</ele>
        <time>2022-03-16T09:36:43Z</time>
      </trkpt>
      <trkpt lat="43.30073" lon="5.66413">
        <ele>323.7</ele>
        <time>2022-03-16T09:36:49Z</time>
      </trkpt>
      <trkpt lat="43.30077" lon="5.66407">
        <ele>325.3</ele>
        <time>2022-03-16T09:36:59Z</time>
      </trkpt>
      <trkpt lat="43.30083" lon="5.66404">
        <ele>326.7</ele>
        <time>2022-03-16T09:37:07Z</time>
      </trkpt>
      <trkpt lat="43.30087" lon="5.664">
        <ele>327.9</ele>
        <time>2022-03-16T09:37:15Z</time>
      </trkpt>
      <trkpt lat="43.30091" lon="5.66397">
        <ele>328.6</ele>
        <time>2022-03-16T09:37:21Z</time>
      </trkpt>
      <trkpt lat="43.30093" lon="5.66391">
        <ele>329.9</ele>
        <time>2022-03-16T09:37:29Z</time>
      </trkpt>
      <trkpt lat="43.30097" lon="5.66385">
        <ele>331.8</ele>
        <time>2022-03-16T09:37:39Z</time>
      </trkpt>
      <trkpt lat="43.30102" lon="5.66383">
        <ele>333.1</ele>
        <time>2022-03-16T09:37:47Z</time>
      </trkpt>
      <trkpt lat="43.30106" lon="5.66379">
        <ele>334.9</ele>
        <time>2022-03-16T09:38:19Z</time>
      </trkpt>
      <trkpt lat="43.30101" lon="5.66381">
        <ele>333.9</ele>
        <time>2022-03-16T09:38:51Z</time>
      </trkpt>
      <trkpt lat="43.30101" lon="5.66387">
        <ele>331.5</ele>
        <time>2022-03-16T09:40:43Z</time>
      </trkpt>
      <trkpt lat="43.30106" lon="5.66387">
        <ele>331.6</ele>
        <time>2022-03-16T09:41:01Z</time>
      </trkpt>
      <trkpt lat="43.30112" lon="5.66386">
        <ele>332.3</ele>
        <time>2022-03-16T09:41:07Z</time>
      </trkpt>
      <trkpt lat="43.30117" lon="5.66384">
        <ele>334</ele>
        <time>2022-03-16T09:41:13Z</time>
      </trkpt>
      <trkpt lat="43.30122" lon="5.66385">
        <ele>334.4</ele>
        <time>2022-03-16T09:41:19Z</time>
      </trkpt>
      <trkpt lat="43.30129" lon="5.66383">
        <ele>336.2</ele>
        <time>2022-03-16T09:41:23Z</time>
      </trkpt>
      <trkpt lat="43.30136" lon="5.66379">
        <ele>338.3</ele>
        <time>2022-03-16T09:41:41Z</time>
      </trkpt>
      <trkpt lat="43.3014" lon="5.66381">
        <ele>338.9</ele>
        <time>2022-03-16T09:41:49Z</time>
      </trkpt>
      <trkpt lat="43.30143" lon="5.66388">
        <ele>338.9</ele>
        <time>2022-03-16T09:41:57Z</time>
      </trkpt>
      <trkpt lat="43.30146" lon="5.66396">
        <ele>340.5</ele>
        <time>2022-03-16T09:42:03Z</time>
      </trkpt>
      <trkpt lat="43.30149" lon="5.66403">
        <ele>342.2</ele>
        <time>2022-03-16T09:42:09Z</time>
      </trkpt>
      <trkpt lat="43.30149" lon="5.66414">
        <ele>341.4</ele>
        <time>2022-03-16T09:42:13Z</time>
      </trkpt>
      <trkpt lat="43.30149" lon="5.66421">
        <ele>341.1</ele>
        <time>2022-03-16T09:42:15Z</time>
      </trkpt>
      <trkpt lat="43.30149" lon="5.66427">
        <ele>340.9</ele>
        <time>2022-03-16T09:42:19Z</time>
      </trkpt>
      <trkpt lat="43.30151" lon="5.66434">
        <ele>342</ele>
        <time>2022-03-16T09:42:29Z</time>
      </trkpt>
      <trkpt lat="43.30156" lon="5.66437">
        <ele>344</ele>
        <time>2022-03-16T09:42:37Z</time>
      </trkpt>
      <trkpt lat="43.3016" lon="5.6644">
        <ele>345.9</ele>
        <time>2022-03-16T09:42:59Z</time>
      </trkpt>
      <trkpt lat="43.30163" lon="5.66447">
        <ele>347.2</ele>
        <time>2022-03-16T09:43:03Z</time>
      </trkpt>
      <trkpt lat="43.30165" lon="5.66453">
        <ele>347.7</ele>
        <time>2022-03-16T09:43:07Z</time>
      </trkpt>
      <trkpt lat="43.30168" lon="5.66461">
        <ele>349.1</ele>
        <time>2022-03-16T09:43:13Z</time>
      </trkpt>
      <trkpt lat="43.3017" lon="5.66468">
        <ele>350.6</ele>
        <time>2022-03-16T09:43:19Z</time>
      </trkpt>
      <trkpt lat="43.30172" lon="5.66474">
        <ele>352.6</ele>
        <time>2022-03-16T09:43:27Z</time>
      </trkpt>
      <trkpt lat="43.30177" lon="5.6648">
        <ele>355.5</ele>
        <time>2022-03-16T09:43:35Z</time>
      </trkpt>
      <trkpt lat="43.30177" lon="5.66488">
        <ele>355.7</ele>
        <time>2022-03-16T09:44:03Z</time>
      </trkpt>
      <trkpt lat="43.30177" lon="5.66494">
        <ele>355</ele>
        <time>2022-03-16T09:44:09Z</time>
      </trkpt>
      <trkpt lat="43.30179" lon="5.66501">
        <ele>356.1</ele>
        <time>2022-03-16T09:44:15Z</time>
      </trkpt>
      <trkpt lat="43.30181" lon="5.66508">
        <ele>358.3</ele>
        <time>2022-03-16T09:44:23Z</time>
      </trkpt>
      <trkpt lat="43.30182" lon="5.66515">
        <ele>359.3</ele>
        <time>2022-03-16T09:44:31Z</time>
      </trkpt>
      <trkpt lat="43.30182" lon="5.66522">
        <ele>360.2</ele>
        <time>2022-03-16T09:44:45Z</time>
      </trkpt>
      <trkpt lat="43.30178" lon="5.66527">
        <ele>358.9</ele>
        <time>2022-03-16T09:44:51Z</time>
      </trkpt>
      <trkpt lat="43.3018" lon="5.66534">
        <ele>360.7</ele>
        <time>2022-03-16T09:44:57Z</time>
      </trkpt>
      <trkpt lat="43.3018" lon="5.66541">
        <ele>362.2</ele>
        <time>2022-03-16T09:45:01Z</time>
      </trkpt>
      <trkpt lat="43.30178" lon="5.6655">
        <ele>362.9</ele>
        <time>2022-03-16T09:45:07Z</time>
      </trkpt>
      <trkpt lat="43.30179" lon="5.66556">
        <ele>364.2</ele>
        <time>2022-03-16T09:45:11Z</time>
      </trkpt>
      <trkpt lat="43.30181" lon="5.66561">
        <ele>366.2</ele>
        <time>2022-03-16T09:45:17Z</time>
      </trkpt>
      <trkpt lat="43.30181" lon="5.66569">
        <ele>367.3</ele>
        <time>2022-03-16T09:45:25Z</time>
      </trkpt>
      <trkpt lat="43.30179" lon="5.66575">
        <ele>367</ele>
        <time>2022-03-16T09:45:31Z</time>
      </trkpt>
      <trkpt lat="43.30179" lon="5.66582">
        <ele>368.2</ele>
        <time>2022-03-16T09:45:57Z</time>
      </trkpt>
      <trkpt lat="43.3018" lon="5.66588">
        <ele>369.7</ele>
        <time>2022-03-16T09:46:03Z</time>
      </trkpt>
      <trkpt lat="43.30179" lon="5.66595">
        <ele>370.5</ele>
        <time>2022-03-16T09:46:09Z</time>
      </trkpt>
      <trkpt lat="43.3018" lon="5.66603">
        <ele>372.2</ele>
        <time>2022-03-16T09:46:17Z</time>
      </trkpt>
      <trkpt lat="43.30178" lon="5.66608">
        <ele>372.1</ele>
        <time>2022-03-16T09:46:29Z</time>
      </trkpt>
      <trkpt lat="43.30175" lon="5.66614">
        <ele>372.1</ele>
        <time>2022-03-16T09:46:37Z</time>
      </trkpt>
      <trkpt lat="43.30173" lon="5.66622">
        <ele>372.6</ele>
        <time>2022-03-16T09:46:45Z</time>
      </trkpt>
      <trkpt lat="43.30169" lon="5.6663">
        <ele>372.6</ele>
        <time>2022-03-16T09:46:49Z</time>
      </trkpt>
      <trkpt lat="43.30164" lon="5.66636">
        <ele>372.9</ele>
        <time>2022-03-16T09:46:55Z</time>
      </trkpt>
      <trkpt lat="43.30161" lon="5.66641">
        <ele>374.1</ele>
        <time>2022-03-16T09:47:01Z</time>
      </trkpt>
      <trkpt lat="43.30155" lon="5.66644">
        <ele>374.2</ele>
        <time>2022-03-16T09:47:07Z</time>
      </trkpt>
      <trkpt lat="43.30158" lon="5.66649">
        <ele>376.6</ele>
        <time>2022-03-16T09:48:13Z</time>
      </trkpt>
      <trkpt lat="43.30159" lon="5.66655">
        <ele>378.9</ele>
        <time>2022-03-16T09:49:37Z</time>
      </trkpt>
      <trkpt lat="43.30165" lon="5.66653">
        <ele>378.7</ele>
        <time>2022-03-16T09:50:05Z</time>
      </trkpt>
      <trkpt lat="43.30173" lon="5.66652">
        <ele>380.4</ele>
        <time>2022-03-16T09:50:09Z</time>
      </trkpt>
      <trkpt lat="43.30179" lon="5.66648">
        <ele>381.2</ele>
        <time>2022-03-16T09:50:13Z</time>
      </trkpt>
      <trkpt lat="43.30184" lon="5.66646">
        <ele>382.5</ele>
        <time>2022-03-16T09:50:21Z</time>
      </trkpt>
      <trkpt lat="43.30183" lon="5.66653">
        <ele>383.8</ele>
        <time>2022-03-16T09:50:31Z</time>
      </trkpt>
      <trkpt lat="43.30189" lon="5.66653">
        <ele>385.8</ele>
        <time>2022-03-16T09:50:39Z</time>
      </trkpt>
      <trkpt lat="43.30188" lon="5.6666">
        <ele>387.1</ele>
        <time>2022-03-16T09:50:59Z</time>
      </trkpt>
      <trkpt lat="43.30191" lon="5.66666">
        <ele>389.1</ele>
        <time>2022-03-16T09:51:19Z</time>
      </trkpt>
      <trkpt lat="43.30194" lon="5.66672">
        <ele>390.1</ele>
        <time>2022-03-16T09:51:23Z</time>
      </trkpt>
      <trkpt lat="43.30196" lon="5.66679">
        <ele>390.8</ele>
        <time>2022-03-16T09:51:27Z</time>
      </trkpt>
      <trkpt lat="43.30197" lon="5.66686">
        <ele>391.3</ele>
        <time>2022-03-16T09:51:31Z</time>
      </trkpt>
      <trkpt lat="43.30201" lon="5.66692">
        <ele>392</ele>
        <time>2022-03-16T09:51:37Z</time>
      </trkpt>
      <trkpt lat="43.30204" lon="5.66696">
        <ele>391.7</ele>
        <time>2022-03-16T09:51:45Z</time>
      </trkpt>
      <trkpt lat="43.30209" lon="5.667">
        <ele>390.7</ele>
        <time>2022-03-16T09:51:51Z</time>
      </trkpt>
      <trkpt lat="43.30213" lon="5.66703">
        <ele>390.5</ele>
        <time>2022-03-16T09:51:59Z</time>
      </trkpt>
      <trkpt lat="43.30219" lon="5.66704">
        <ele>391.2</ele>
        <time>2022-03-16T09:52:05Z</time>
      </trkpt>
      <trkpt lat="43.30224" lon="5.66703">
        <ele>392.5</ele>
        <time>2022-03-16T09:52:09Z</time>
      </trkpt>
      <trkpt lat="43.30228" lon="5.66702">
        <ele>394</ele>
        <time>2022-03-16T09:52:13Z</time>
      </trkpt>
      <trkpt lat="43.30234" lon="5.66702">
        <ele>395.2</ele>
        <time>2022-03-16T09:52:19Z</time>
      </trkpt>
      <trkpt lat="43.30238" lon="5.66703">
        <ele>396.2</ele>
        <time>2022-03-16T09:52:25Z</time>
      </trkpt>
      <trkpt lat="43.30245" lon="5.66702">
        <ele>398</ele>
        <time>2022-03-16T09:52:31Z</time>
      </trkpt>
      <trkpt lat="43.30252" lon="5.66702">
        <ele>399.5</ele>
        <time>2022-03-16T09:52:37Z</time>
      </trkpt>
      <trkpt lat="43.30258" lon="5.66706">
        <ele>399.6</ele>
        <time>2022-03-16T09:52:43Z</time>
      </trkpt>
      <trkpt lat="43.3026" lon="5.66712">
        <ele>398.6</ele>
        <time>2022-03-16T09:52:49Z</time>
      </trkpt>
      <trkpt lat="43.30262" lon="5.66719">
        <ele>397.4</ele>
        <time>2022-03-16T09:52:55Z</time>
      </trkpt>
      <trkpt lat="43.30266" lon="5.66726">
        <ele>397.7</ele>
        <time>2022-03-16T09:53:01Z</time>
      </trkpt>
      <trkpt lat="43.30269" lon="5.66731">
        <ele>398.8</ele>
        <time>2022-03-16T09:53:11Z</time>
      </trkpt>
      <trkpt lat="43.3027" lon="5.66741">
        <ele>399.7</ele>
        <time>2022-03-16T09:53:19Z</time>
      </trkpt>
      <trkpt lat="43.3027" lon="5.66747">
        <ele>400.2</ele>
        <time>2022-03-16T09:53:27Z</time>
      </trkpt>
      <trkpt lat="43.30273" lon="5.66757">
        <ele>401.1</ele>
        <time>2022-03-16T09:53:33Z</time>
      </trkpt>
      <trkpt lat="43.30277" lon="5.66764">
        <ele>402.3</ele>
        <time>2022-03-16T09:53:37Z</time>
      </trkpt>
      <trkpt lat="43.30282" lon="5.66768">
        <ele>404.2</ele>
        <time>2022-03-16T09:53:41Z</time>
      </trkpt>
      <trkpt lat="43.30286" lon="5.66772">
        <ele>405.5</ele>
        <time>2022-03-16T09:53:45Z</time>
      </trkpt>
      <trkpt lat="43.30291" lon="5.66772">
        <ele>408</ele>
        <time>2022-03-16T09:53:49Z</time>
      </trkpt>
      <trkpt lat="43.30296" lon="5.66775">
        <ele>410</ele>
        <time>2022-03-16T09:53:53Z</time>
      </trkpt>
      <trkpt lat="43.30301" lon="5.66779">
        <ele>411.3</ele>
        <time>2022-03-16T09:53:59Z</time>
      </trkpt>
      <trkpt lat="43.30305" lon="5.66784">
        <ele>411.8</ele>
        <time>2022-03-16T09:54:05Z</time>
      </trkpt>
      <trkpt lat="43.30309" lon="5.6679">
        <ele>411.3</ele>
        <time>2022-03-16T09:54:13Z</time>
      </trkpt>
      <trkpt lat="43.30312" lon="5.66795">
        <ele>411.5</ele>
        <time>2022-03-16T09:54:19Z</time>
      </trkpt>
      <trkpt lat="43.30316" lon="5.668">
        <ele>412.2</ele>
        <time>2022-03-16T09:54:25Z</time>
      </trkpt>
      <trkpt lat="43.30321" lon="5.66803">
        <ele>414.3</ele>
        <time>2022-03-16T09:54:31Z</time>
      </trkpt>
      <trkpt lat="43.30325" lon="5.66809">
        <ele>414.4</ele>
        <time>2022-03-16T09:54:39Z</time>
      </trkpt>
      <trkpt lat="43.30327" lon="5.66815">
        <ele>413.6</ele>
        <time>2022-03-16T09:54:49Z</time>
      </trkpt>
      <trkpt lat="43.30329" lon="5.66823">
        <ele>411.6</ele>
        <time>2022-03-16T09:54:53Z</time>
      </trkpt>
      <trkpt lat="43.30331" lon="5.66834">
        <ele>408.9</ele>
        <time>2022-03-16T09:54:57Z</time>
      </trkpt>
      <trkpt lat="43.30331" lon="5.66844">
        <ele>407.4</ele>
        <time>2022-03-16T09:55:01Z</time>
      </trkpt>
      <trkpt lat="43.30333" lon="5.66851">
        <ele>407.8</ele>
        <time>2022-03-16T09:55:07Z</time>
      </trkpt>
      <trkpt lat="43.30336" lon="5.66858">
        <ele>408.3</ele>
        <time>2022-03-16T09:55:13Z</time>
      </trkpt>
      <trkpt lat="43.3034" lon="5.66862">
        <ele>409</ele>
        <time>2022-03-16T09:55:17Z</time>
      </trkpt>
      <trkpt lat="43.30344" lon="5.66866">
        <ele>409.3</ele>
        <time>2022-03-16T09:55:21Z</time>
      </trkpt>
      <trkpt lat="43.30346" lon="5.66872">
        <ele>408.8</ele>
        <time>2022-03-16T09:55:31Z</time>
      </trkpt>
      <trkpt lat="43.3035" lon="5.66876">
        <ele>408.9</ele>
        <time>2022-03-16T09:55:43Z</time>
      </trkpt>
      <trkpt lat="43.30349" lon="5.66883">
        <ele>407.2</ele>
        <time>2022-03-16T09:56:41Z</time>
      </trkpt>
      <trkpt lat="43.30345" lon="5.66888">
        <ele>406</ele>
        <time>2022-03-16T09:58:45Z</time>
      </trkpt>
      <trkpt lat="43.30345" lon="5.66895">
        <ele>405.5</ele>
        <time>2022-03-16T10:07:07Z</time>
      </trkpt>
      <trkpt lat="43.30345" lon="5.66902">
        <ele>405.2</ele>
        <time>2022-03-16T10:07:13Z</time>
      </trkpt>
      <trkpt lat="43.30346" lon="5.6691">
        <ele>405</ele>
        <time>2022-03-16T10:07:21Z</time>
      </trkpt>
      <trkpt lat="43.30346" lon="5.66916">
        <ele>404.8</ele>
        <time>2022-03-16T10:07:29Z</time>
      </trkpt>
      <trkpt lat="43.30347" lon="5.66922">
        <ele>404</ele>
        <time>2022-03-16T10:07:51Z</time>
      </trkpt>
      <trkpt lat="43.30348" lon="5.66928">
        <ele>404.2</ele>
        <time>2022-03-16T10:07:59Z</time>
      </trkpt>
      <trkpt lat="43.30349" lon="5.66934">
        <ele>404.6</ele>
        <time>2022-03-16T10:08:11Z</time>
      </trkpt>
      <trkpt lat="43.30353" lon="5.66938">
        <ele>407.7</ele>
        <time>2022-03-16T10:08:17Z</time>
      </trkpt>
      <trkpt lat="43.30356" lon="5.66946">
        <ele>411.3</ele>
        <time>2022-03-16T10:08:25Z</time>
      </trkpt>
      <trkpt lat="43.30359" lon="5.66952">
        <ele>415.1</ele>
        <time>2022-03-16T10:08:43Z</time>
      </trkpt>
      <trkpt lat="43.30363" lon="5.66957">
        <ele>418.3</ele>
        <time>2022-03-16T10:09:05Z</time>
      </trkpt>
      <trkpt lat="43.30368" lon="5.66961">
        <ele>420.1</ele>
        <time>2022-03-16T10:09:13Z</time>
      </trkpt>
      <trkpt lat="43.30369" lon="5.66968">
        <ele>421.2</ele>
        <time>2022-03-16T10:09:25Z</time>
      </trkpt>
      <trkpt lat="43.30375" lon="5.66969">
        <ele>423.9</ele>
        <time>2022-03-16T10:09:45Z</time>
      </trkpt>
      <trkpt lat="43.30378" lon="5.66974">
        <ele>426</ele>
        <time>2022-03-16T10:09:55Z</time>
      </trkpt>
      <trkpt lat="43.30384" lon="5.66976">
        <ele>428.8</ele>
        <time>2022-03-16T10:10:21Z</time>
      </trkpt>
      <trkpt lat="43.30388" lon="5.66979">
        <ele>431.2</ele>
        <time>2022-03-16T10:10:33Z</time>
      </trkpt>
      <trkpt lat="43.30392" lon="5.66982">
        <ele>432.7</ele>
        <time>2022-03-16T10:11:18Z</time>
      </trkpt>
      <trkpt lat="43.30396" lon="5.66986">
        <ele>434.1</ele>
        <time>2022-03-16T10:11:24Z</time>
      </trkpt>
      <trkpt lat="43.30402" lon="5.66988">
        <ele>435.6</ele>
        <time>2022-03-16T10:11:32Z</time>
      </trkpt>
      <trkpt lat="43.30406" lon="5.66991">
        <ele>437.4</ele>
        <time>2022-03-16T10:11:44Z</time>
      </trkpt>
      <trkpt lat="43.30412" lon="5.66994">
        <ele>439.6</ele>
        <time>2022-03-16T10:11:52Z</time>
      </trkpt>
      <trkpt lat="43.30417" lon="5.66997">
        <ele>442</ele>
        <time>2022-03-16T10:12:00Z</time>
      </trkpt>
      <trkpt lat="43.30417" lon="5.67003">
        <ele>443</ele>
        <time>2022-03-16T10:12:10Z</time>
      </trkpt>
      <trkpt lat="43.30421" lon="5.67007">
        <ele>443.9</ele>
        <time>2022-03-16T10:12:22Z</time>
      </trkpt>
      <trkpt lat="43.30426" lon="5.67009">
        <ele>445.3</ele>
        <time>2022-03-16T10:12:30Z</time>
      </trkpt>
      <trkpt lat="43.30431" lon="5.6701">
        <ele>447.1</ele>
        <time>2022-03-16T10:12:40Z</time>
      </trkpt>
      <trkpt lat="43.30437" lon="5.67013">
        <ele>449.4</ele>
        <time>2022-03-16T10:12:52Z</time>
      </trkpt>
      <trkpt lat="43.30441" lon="5.67016">
        <ele>451.6</ele>
        <time>2022-03-16T10:13:02Z</time>
      </trkpt>
      <trkpt lat="43.30446" lon="5.67017">
        <ele>453.7</ele>
        <time>2022-03-16T10:13:12Z</time>
      </trkpt>
      <trkpt lat="43.30445" lon="5.67024">
        <ele>455.3</ele>
        <time>2022-03-16T10:13:30Z</time>
      </trkpt>
      <trkpt lat="43.30447" lon="5.67031">
        <ele>456.3</ele>
        <time>2022-03-16T10:13:42Z</time>
      </trkpt>
      <trkpt lat="43.3045" lon="5.67035">
        <ele>456.8</ele>
        <time>2022-03-16T10:13:54Z</time>
      </trkpt>
      <trkpt lat="43.30454" lon="5.67039">
        <ele>457.9</ele>
        <time>2022-03-16T10:14:12Z</time>
      </trkpt>
      <trkpt lat="43.30458" lon="5.67042">
        <ele>459.1</ele>
        <time>2022-03-16T10:14:20Z</time>
      </trkpt>
      <trkpt lat="43.30461" lon="5.67047">
        <ele>460.2</ele>
        <time>2022-03-16T10:18:14Z</time>
      </trkpt>
      <trkpt lat="43.30466" lon="5.67053">
        <ele>462</ele>
        <time>2022-03-16T10:18:22Z</time>
      </trkpt>
      <trkpt lat="43.3047" lon="5.67058">
        <ele>463.3</ele>
        <time>2022-03-16T10:18:28Z</time>
      </trkpt>
      <trkpt lat="43.30474" lon="5.67064">
        <ele>463.9</ele>
        <time>2022-03-16T10:18:34Z</time>
      </trkpt>
      <trkpt lat="43.30478" lon="5.67069">
        <ele>464.4</ele>
        <time>2022-03-16T10:18:40Z</time>
      </trkpt>
      <trkpt lat="43.30482" lon="5.67073">
        <ele>464.9</ele>
        <time>2022-03-16T10:18:44Z</time>
      </trkpt>
      <trkpt lat="43.30486" lon="5.6708">
        <ele>465.1</ele>
        <time>2022-03-16T10:18:50Z</time>
      </trkpt>
      <trkpt lat="43.3049" lon="5.67085">
        <ele>465.6</ele>
        <time>2022-03-16T10:18:56Z</time>
      </trkpt>
      <trkpt lat="43.30493" lon="5.67091">
        <ele>465.3</ele>
        <time>2022-03-16T10:19:02Z</time>
      </trkpt>
      <trkpt lat="43.30497" lon="5.67095">
        <ele>465.8</ele>
        <time>2022-03-16T10:19:08Z</time>
      </trkpt>
      <trkpt lat="43.30501" lon="5.67102">
        <ele>466.1</ele>
        <time>2022-03-16T10:19:14Z</time>
      </trkpt>
      <trkpt lat="43.30505" lon="5.67108">
        <ele>466.1</ele>
        <time>2022-03-16T10:19:20Z</time>
      </trkpt>
      <trkpt lat="43.30509" lon="5.67115">
        <ele>466.8</ele>
        <time>2022-03-16T10:19:26Z</time>
      </trkpt>
      <trkpt lat="43.30507" lon="5.67123">
        <ele>467</ele>
        <time>2022-03-16T10:19:32Z</time>
      </trkpt>
      <trkpt lat="43.30505" lon="5.67131">
        <ele>467</ele>
        <time>2022-03-16T10:19:38Z</time>
      </trkpt>
      <trkpt lat="43.30504" lon="5.67139">
        <ele>466.9</ele>
        <time>2022-03-16T10:19:44Z</time>
      </trkpt>
      <trkpt lat="43.30503" lon="5.67146">
        <ele>465.9</ele>
        <time>2022-03-16T10:19:50Z</time>
      </trkpt>
      <trkpt lat="43.30505" lon="5.67152">
        <ele>466.7</ele>
        <time>2022-03-16T10:19:56Z</time>
      </trkpt>
      <trkpt lat="43.30507" lon="5.67158">
        <ele>467.7</ele>
        <time>2022-03-16T10:20:02Z</time>
      </trkpt>
      <trkpt lat="43.3051" lon="5.67166">
        <ele>468.9</ele>
        <time>2022-03-16T10:20:08Z</time>
      </trkpt>
      <trkpt lat="43.30511" lon="5.67172">
        <ele>469</ele>
        <time>2022-03-16T10:20:16Z</time>
      </trkpt>
      <trkpt lat="43.30513" lon="5.67179">
        <ele>469.6</ele>
        <time>2022-03-16T10:20:22Z</time>
      </trkpt>
      <trkpt lat="43.30515" lon="5.67185">
        <ele>469.9</ele>
        <time>2022-03-16T10:20:28Z</time>
      </trkpt>
      <trkpt lat="43.30519" lon="5.6719">
        <ele>472</ele>
        <time>2022-03-16T10:20:34Z</time>
      </trkpt>
      <trkpt lat="43.30521" lon="5.67195">
        <ele>472.4</ele>
        <time>2022-03-16T10:20:40Z</time>
      </trkpt>
      <trkpt lat="43.30524" lon="5.67201">
        <ele>471.8</ele>
        <time>2022-03-16T10:20:46Z</time>
      </trkpt>
      <trkpt lat="43.30528" lon="5.67207">
        <ele>472.3</ele>
        <time>2022-03-16T10:20:52Z</time>
      </trkpt>
      <trkpt lat="43.30533" lon="5.67213">
        <ele>472</ele>
        <time>2022-03-16T10:20:58Z</time>
      </trkpt>
      <trkpt lat="43.30537" lon="5.67218">
        <ele>471.3</ele>
        <time>2022-03-16T10:21:04Z</time>
      </trkpt>
      <trkpt lat="43.30541" lon="5.67224">
        <ele>470.3</ele>
        <time>2022-03-16T10:21:10Z</time>
      </trkpt>
      <trkpt lat="43.30545" lon="5.67229">
        <ele>470</ele>
        <time>2022-03-16T10:21:16Z</time>
      </trkpt>
      <trkpt lat="43.3055" lon="5.67233">
        <ele>469.9</ele>
        <time>2022-03-16T10:21:22Z</time>
      </trkpt>
      <trkpt lat="43.30553" lon="5.67238">
        <ele>469.2</ele>
        <time>2022-03-16T10:21:26Z</time>
      </trkpt>
      <trkpt lat="43.30558" lon="5.67243">
        <ele>468</ele>
        <time>2022-03-16T10:21:32Z</time>
      </trkpt>
      <trkpt lat="43.30564" lon="5.67245">
        <ele>466.5</ele>
        <time>2022-03-16T10:21:38Z</time>
      </trkpt>
      <trkpt lat="43.30569" lon="5.67247">
        <ele>465.2</ele>
        <time>2022-03-16T10:21:42Z</time>
      </trkpt>
      <trkpt lat="43.30574" lon="5.67247">
        <ele>464.9</ele>
        <time>2022-03-16T10:21:50Z</time>
      </trkpt>
      <trkpt lat="43.3058" lon="5.67246">
        <ele>465</ele>
        <time>2022-03-16T10:21:56Z</time>
      </trkpt>
      <trkpt lat="43.30585" lon="5.67246">
        <ele>464.6</ele>
        <time>2022-03-16T10:22:02Z</time>
      </trkpt>
      <trkpt lat="43.30591" lon="5.67246">
        <ele>464.6</ele>
        <time>2022-03-16T10:22:08Z</time>
      </trkpt>
      <trkpt lat="43.30597" lon="5.67244">
        <ele>464.9</ele>
        <time>2022-03-16T10:22:14Z</time>
      </trkpt>
      <trkpt lat="43.30603" lon="5.67244">
        <ele>464.8</ele>
        <time>2022-03-16T10:22:20Z</time>
      </trkpt>
      <trkpt lat="43.30609" lon="5.67243">
        <ele>464.6</ele>
        <time>2022-03-16T10:22:26Z</time>
      </trkpt>
      <trkpt lat="43.30615" lon="5.67243">
        <ele>465.3</ele>
        <time>2022-03-16T10:22:32Z</time>
      </trkpt>
      <trkpt lat="43.3062" lon="5.67242">
        <ele>466.7</ele>
        <time>2022-03-16T10:22:38Z</time>
      </trkpt>
      <trkpt lat="43.30625" lon="5.67238">
        <ele>467.5</ele>
        <time>2022-03-16T10:22:44Z</time>
      </trkpt>
      <trkpt lat="43.3063" lon="5.67233">
        <ele>467.6</ele>
        <time>2022-03-16T10:22:50Z</time>
      </trkpt>
      <trkpt lat="43.30632" lon="5.67228">
        <ele>466.9</ele>
        <time>2022-03-16T10:22:58Z</time>
      </trkpt>
      <trkpt lat="43.30637" lon="5.6723">
        <ele>467.3</ele>
        <time>2022-03-16T10:24:38Z</time>
      </trkpt>
      <trkpt lat="43.30642" lon="5.67232">
        <ele>467.9</ele>
        <time>2022-03-16T10:24:50Z</time>
      </trkpt>
      <trkpt lat="43.30646" lon="5.67234">
        <ele>468.8</ele>
        <time>2022-03-16T10:24:56Z</time>
      </trkpt>
      <trkpt lat="43.3065" lon="5.67236">
        <ele>469.2</ele>
        <time>2022-03-16T10:25:02Z</time>
      </trkpt>
      <trkpt lat="43.30656" lon="5.67238">
        <ele>469.5</ele>
        <time>2022-03-16T10:25:10Z</time>
      </trkpt>
      <trkpt lat="43.3066" lon="5.67242">
        <ele>469.6</ele>
        <time>2022-03-16T10:25:16Z</time>
      </trkpt>
      <trkpt lat="43.30664" lon="5.67245">
        <ele>469.4</ele>
        <time>2022-03-16T10:25:22Z</time>
      </trkpt>
      <trkpt lat="43.30669" lon="5.67248">
        <ele>469.3</ele>
        <time>2022-03-16T10:25:30Z</time>
      </trkpt>
      <trkpt lat="43.30674" lon="5.6725">
        <ele>469.6</ele>
        <time>2022-03-16T10:25:38Z</time>
      </trkpt>
      <trkpt lat="43.30678" lon="5.67253">
        <ele>470.9</ele>
        <time>2022-03-16T10:25:52Z</time>
      </trkpt>
      <trkpt lat="43.30682" lon="5.67257">
        <ele>472.2</ele>
        <time>2022-03-16T10:26:00Z</time>
      </trkpt>
      <trkpt lat="43.30687" lon="5.67259">
        <ele>473</ele>
        <time>2022-03-16T10:26:06Z</time>
      </trkpt>
      <trkpt lat="43.30692" lon="5.67261">
        <ele>473.6</ele>
        <time>2022-03-16T10:26:12Z</time>
      </trkpt>
      <trkpt lat="43.30697" lon="5.6726">
        <ele>473.8</ele>
        <time>2022-03-16T10:26:18Z</time>
      </trkpt>
      <trkpt lat="43.30702" lon="5.67261">
        <ele>474.6</ele>
        <time>2022-03-16T10:26:24Z</time>
      </trkpt>
      <trkpt lat="43.30706" lon="5.67263">
        <ele>475.4</ele>
        <time>2022-03-16T10:26:30Z</time>
      </trkpt>
      <trkpt lat="43.30713" lon="5.67264">
        <ele>476.1</ele>
        <time>2022-03-16T10:26:36Z</time>
      </trkpt>
      <trkpt lat="43.30717" lon="5.67267">
        <ele>476.5</ele>
        <time>2022-03-16T10:26:42Z</time>
      </trkpt>
      <trkpt lat="43.30722" lon="5.67269">
        <ele>476.6</ele>
        <time>2022-03-16T10:26:48Z</time>
      </trkpt>
      <trkpt lat="43.30728" lon="5.6727">
        <ele>477.4</ele>
        <time>2022-03-16T10:26:56Z</time>
      </trkpt>
      <trkpt lat="43.30732" lon="5.67271">
        <ele>478</ele>
        <time>2022-03-16T10:27:02Z</time>
      </trkpt>
      <trkpt lat="43.30737" lon="5.67272">
        <ele>478.6</ele>
        <time>2022-03-16T10:27:10Z</time>
      </trkpt>
      <trkpt lat="43.30742" lon="5.67275">
        <ele>479.1</ele>
        <time>2022-03-16T10:27:18Z</time>
      </trkpt>
      <trkpt lat="43.30748" lon="5.67277">
        <ele>479.8</ele>
        <time>2022-03-16T10:27:26Z</time>
      </trkpt>
      <trkpt lat="43.30753" lon="5.67278">
        <ele>480.4</ele>
        <time>2022-03-16T10:27:32Z</time>
      </trkpt>
      <trkpt lat="43.30758" lon="5.67279">
        <ele>481.4</ele>
        <time>2022-03-16T10:27:38Z</time>
      </trkpt>
      <trkpt lat="43.30763" lon="5.67279">
        <ele>481.8</ele>
        <time>2022-03-16T10:27:44Z</time>
      </trkpt>
      <trkpt lat="43.30769" lon="5.6728">
        <ele>482.6</ele>
        <time>2022-03-16T10:27:52Z</time>
      </trkpt>
      <trkpt lat="43.30774" lon="5.67281">
        <ele>483.1</ele>
        <time>2022-03-16T10:27:58Z</time>
      </trkpt>
      <trkpt lat="43.30779" lon="5.6728">
        <ele>483.2</ele>
        <time>2022-03-16T10:28:04Z</time>
      </trkpt>
      <trkpt lat="43.30784" lon="5.67279">
        <ele>483.3</ele>
        <time>2022-03-16T10:28:10Z</time>
      </trkpt>
      <trkpt lat="43.30789" lon="5.67279">
        <ele>483.6</ele>
        <time>2022-03-16T10:28:16Z</time>
      </trkpt>
      <trkpt lat="43.30795" lon="5.6728">
        <ele>484.2</ele>
        <time>2022-03-16T10:28:24Z</time>
      </trkpt>
      <trkpt lat="43.30801" lon="5.67281">
        <ele>484.6</ele>
        <time>2022-03-16T10:28:32Z</time>
      </trkpt>
      <trkpt lat="43.30806" lon="5.67283">
        <ele>485.1</ele>
        <time>2022-03-16T10:28:40Z</time>
      </trkpt>
      <trkpt lat="43.30812" lon="5.67287">
        <ele>487.6</ele>
        <time>2022-03-16T10:28:48Z</time>
      </trkpt>
      <trkpt lat="43.30816" lon="5.67291">
        <ele>488.9</ele>
        <time>2022-03-16T10:28:56Z</time>
      </trkpt>
      <trkpt lat="43.30819" lon="5.67295">
        <ele>490.1</ele>
        <time>2022-03-16T10:29:02Z</time>
      </trkpt>
      <trkpt lat="43.30822" lon="5.673">
        <ele>490.9</ele>
        <time>2022-03-16T10:29:08Z</time>
      </trkpt>
      <trkpt lat="43.30824" lon="5.67307">
        <ele>491.3</ele>
        <time>2022-03-16T10:29:14Z</time>
      </trkpt>
      <trkpt lat="43.30827" lon="5.67312">
        <ele>491.9</ele>
        <time>2022-03-16T10:29:20Z</time>
      </trkpt>
      <trkpt lat="43.30828" lon="5.67319">
        <ele>491.8</ele>
        <time>2022-03-16T10:29:28Z</time>
      </trkpt>
      <trkpt lat="43.30827" lon="5.67326">
        <ele>491.1</ele>
        <time>2022-03-16T10:29:38Z</time>
      </trkpt>
      <trkpt lat="43.30826" lon="5.67333">
        <ele>490.5</ele>
        <time>2022-03-16T10:29:46Z</time>
      </trkpt>
      <trkpt lat="43.30825" lon="5.67339">
        <ele>491</ele>
        <time>2022-03-16T10:30:54Z</time>
      </trkpt>
      <trkpt lat="43.30826" lon="5.67346">
        <ele>491.7</ele>
        <time>2022-03-16T10:31:02Z</time>
      </trkpt>
      <trkpt lat="43.30826" lon="5.67352">
        <ele>492.3</ele>
        <time>2022-03-16T10:31:10Z</time>
      </trkpt>
      <trkpt lat="43.30827" lon="5.67358">
        <ele>492.7</ele>
        <time>2022-03-16T10:31:16Z</time>
      </trkpt>
      <trkpt lat="43.30827" lon="5.67365">
        <ele>493.8</ele>
        <time>2022-03-16T10:31:22Z</time>
      </trkpt>
      <trkpt lat="43.3083" lon="5.67372">
        <ele>494.7</ele>
        <time>2022-03-16T10:31:30Z</time>
      </trkpt>
      <trkpt lat="43.3083" lon="5.67379">
        <ele>496</ele>
        <time>2022-03-16T10:31:38Z</time>
      </trkpt>
      <trkpt lat="43.30831" lon="5.67387">
        <ele>497.4</ele>
        <time>2022-03-16T10:31:46Z</time>
      </trkpt>
      <trkpt lat="43.3083" lon="5.67394">
        <ele>498.9</ele>
        <time>2022-03-16T10:31:54Z</time>
      </trkpt>
      <trkpt lat="43.3083" lon="5.67401">
        <ele>499.7</ele>
        <time>2022-03-16T10:32:02Z</time>
      </trkpt>
      <trkpt lat="43.30831" lon="5.67407">
        <ele>500.1</ele>
        <time>2022-03-16T10:32:10Z</time>
      </trkpt>
      <trkpt lat="43.30833" lon="5.67414">
        <ele>499.8</ele>
        <time>2022-03-16T10:32:18Z</time>
      </trkpt>
      <trkpt lat="43.30837" lon="5.6742">
        <ele>501.9</ele>
        <time>2022-03-16T10:32:24Z</time>
      </trkpt>
      <trkpt lat="43.30833" lon="5.67425">
        <ele>501.4</ele>
        <time>2022-03-16T10:32:32Z</time>
      </trkpt>
      <trkpt lat="43.30832" lon="5.67432">
        <ele>502.6</ele>
        <time>2022-03-16T10:32:42Z</time>
      </trkpt>
      <trkpt lat="43.3083" lon="5.6744">
        <ele>504.3</ele>
        <time>2022-03-16T10:32:52Z</time>
      </trkpt>
      <trkpt lat="43.30831" lon="5.67447">
        <ele>504.9</ele>
        <time>2022-03-16T10:32:58Z</time>
      </trkpt>
      <trkpt lat="43.30829" lon="5.67455">
        <ele>506.6</ele>
        <time>2022-03-16T10:33:06Z</time>
      </trkpt>
      <trkpt lat="43.30829" lon="5.67462">
        <ele>507.7</ele>
        <time>2022-03-16T10:33:16Z</time>
      </trkpt>
      <trkpt lat="43.30828" lon="5.67469">
        <ele>508.7</ele>
        <time>2022-03-16T10:33:28Z</time>
      </trkpt>
      <trkpt lat="43.30824" lon="5.67475">
        <ele>509.5</ele>
        <time>2022-03-16T10:34:00Z</time>
      </trkpt>
      <trkpt lat="43.30822" lon="5.67483">
        <ele>510</ele>
        <time>2022-03-16T10:34:06Z</time>
      </trkpt>
      <trkpt lat="43.30818" lon="5.67489">
        <ele>510</ele>
        <time>2022-03-16T10:34:12Z</time>
      </trkpt>
      <trkpt lat="43.30818" lon="5.67496">
        <ele>510.2</ele>
        <time>2022-03-16T10:34:18Z</time>
      </trkpt>
      <trkpt lat="43.30815" lon="5.67501">
        <ele>509.9</ele>
        <time>2022-03-16T10:34:26Z</time>
      </trkpt>
      <trkpt lat="43.3081" lon="5.67502">
        <ele>509</ele>
        <time>2022-03-16T10:34:34Z</time>
      </trkpt>
      <trkpt lat="43.30808" lon="5.67496">
        <ele>508.6</ele>
        <time>2022-03-16T10:34:42Z</time>
      </trkpt>
      <trkpt lat="43.30809" lon="5.6749">
        <ele>509.1</ele>
        <time>2022-03-16T10:34:48Z</time>
      </trkpt>
      <trkpt lat="43.3081" lon="5.67482">
        <ele>509.5</ele>
        <time>2022-03-16T10:34:54Z</time>
      </trkpt>
      <trkpt lat="43.30811" lon="5.67475">
        <ele>509.7</ele>
        <time>2022-03-16T10:35:00Z</time>
      </trkpt>
      <trkpt lat="43.3081" lon="5.67467">
        <ele>509.9</ele>
        <time>2022-03-16T10:35:08Z</time>
      </trkpt>
      <trkpt lat="43.30809" lon="5.67459">
        <ele>510</ele>
        <time>2022-03-16T10:35:14Z</time>
      </trkpt>
      <trkpt lat="43.3081" lon="5.67451">
        <ele>509.9</ele>
        <time>2022-03-16T10:35:18Z</time>
      </trkpt>
      <trkpt lat="43.30811" lon="5.67445">
        <ele>509.5</ele>
        <time>2022-03-16T10:35:22Z</time>
      </trkpt>
      <trkpt lat="43.3081" lon="5.67436">
        <ele>510</ele>
        <time>2022-03-16T10:35:28Z</time>
      </trkpt>
      <trkpt lat="43.3081" lon="5.67429">
        <ele>509.9</ele>
        <time>2022-03-16T10:35:32Z</time>
      </trkpt>
      <trkpt lat="43.30811" lon="5.67422">
        <ele>509.8</ele>
        <time>2022-03-16T10:35:36Z</time>
      </trkpt>
      <trkpt lat="43.3081" lon="5.67415">
        <ele>509.8</ele>
        <time>2022-03-16T10:35:42Z</time>
      </trkpt>
      <trkpt lat="43.30808" lon="5.67409">
        <ele>510.1</ele>
        <time>2022-03-16T10:35:58Z</time>
      </trkpt>
      <trkpt lat="43.30806" lon="5.67402">
        <ele>510.2</ele>
        <time>2022-03-16T10:36:04Z</time>
      </trkpt>
      <trkpt lat="43.30803" lon="5.67397">
        <ele>511.7</ele>
        <time>2022-03-16T10:36:10Z</time>
      </trkpt>
      <trkpt lat="43.308" lon="5.67391">
        <ele>513.5</ele>
        <time>2022-03-16T10:36:16Z</time>
      </trkpt>
      <trkpt lat="43.30795" lon="5.67384">
        <ele>514.5</ele>
        <time>2022-03-16T10:36:22Z</time>
      </trkpt>
      <trkpt lat="43.3079" lon="5.67379">
        <ele>515.2</ele>
        <time>2022-03-16T10:36:28Z</time>
      </trkpt>
      <trkpt lat="43.30786" lon="5.67373">
        <ele>515</ele>
        <time>2022-03-16T10:36:34Z</time>
      </trkpt>
      <trkpt lat="43.30781" lon="5.67369">
        <ele>515.7</ele>
        <time>2022-03-16T10:36:40Z</time>
      </trkpt>
      <trkpt lat="43.30777" lon="5.67365">
        <ele>515.4</ele>
        <time>2022-03-16T10:36:46Z</time>
      </trkpt>
      <trkpt lat="43.30773" lon="5.67359">
        <ele>513</ele>
        <time>2022-03-16T10:36:52Z</time>
      </trkpt>
      <trkpt lat="43.3077" lon="5.67354">
        <ele>511.9</ele>
        <time>2022-03-16T10:36:56Z</time>
      </trkpt>
      <trkpt lat="43.30766" lon="5.67349">
        <ele>510.7</ele>
        <time>2022-03-16T10:37:00Z</time>
      </trkpt>
      <trkpt lat="43.3076" lon="5.67346">
        <ele>510.5</ele>
        <time>2022-03-16T10:37:06Z</time>
      </trkpt>
      <trkpt lat="43.30755" lon="5.67345">
        <ele>511.1</ele>
        <time>2022-03-16T10:37:12Z</time>
      </trkpt>
      <trkpt lat="43.3075" lon="5.67347">
        <ele>512.9</ele>
        <time>2022-03-16T10:37:16Z</time>
      </trkpt>
      <trkpt lat="43.30745" lon="5.67349">
        <ele>514.1</ele>
        <time>2022-03-16T10:37:20Z</time>
      </trkpt>
      <trkpt lat="43.30739" lon="5.67352">
        <ele>515.8</ele>
        <time>2022-03-16T10:37:26Z</time>
      </trkpt>
      <trkpt lat="43.30734" lon="5.67353">
        <ele>516.4</ele>
        <time>2022-03-16T10:37:32Z</time>
      </trkpt>
      <trkpt lat="43.30729" lon="5.67353">
        <ele>516.3</ele>
        <time>2022-03-16T10:37:38Z</time>
      </trkpt>
      <trkpt lat="43.30723" lon="5.67353">
        <ele>516.9</ele>
        <time>2022-03-16T10:37:44Z</time>
      </trkpt>
      <trkpt lat="43.30719" lon="5.67353">
        <ele>517.1</ele>
        <time>2022-03-16T10:37:50Z</time>
      </trkpt>
      <trkpt lat="43.30714" lon="5.67354">
        <ele>517.8</ele>
        <time>2022-03-16T10:37:56Z</time>
      </trkpt>
      <trkpt lat="43.30709" lon="5.67354">
        <ele>518.4</ele>
        <time>2022-03-16T10:38:04Z</time>
      </trkpt>
      <trkpt lat="43.30704" lon="5.67355">
        <ele>519.2</ele>
        <time>2022-03-16T10:38:12Z</time>
      </trkpt>
      <trkpt lat="43.30698" lon="5.67356">
        <ele>520.2</ele>
        <time>2022-03-16T10:38:20Z</time>
      </trkpt>
      <trkpt lat="43.30692" lon="5.67357">
        <ele>521.1</ele>
        <time>2022-03-16T10:38:28Z</time>
      </trkpt>
      <trkpt lat="43.30687" lon="5.67358">
        <ele>521.7</ele>
        <time>2022-03-16T10:38:34Z</time>
      </trkpt>
      <trkpt lat="43.30682" lon="5.6736">
        <ele>522.6</ele>
        <time>2022-03-16T10:38:42Z</time>
      </trkpt>
      <trkpt lat="43.30677" lon="5.67363">
        <ele>523.9</ele>
        <time>2022-03-16T10:38:48Z</time>
      </trkpt>
      <trkpt lat="43.30671" lon="5.67367">
        <ele>525.2</ele>
        <time>2022-03-16T10:38:58Z</time>
      </trkpt>
      <trkpt lat="43.30666" lon="5.6737">
        <ele>526.3</ele>
        <time>2022-03-16T10:39:06Z</time>
      </trkpt>
      <trkpt lat="43.30669" lon="5.67375">
        <ele>528.3</ele>
        <time>2022-03-16T10:40:08Z</time>
      </trkpt>
      <trkpt lat="43.30673" lon="5.67379">
        <ele>529.8</ele>
        <time>2022-03-16T10:40:42Z</time>
      </trkpt>
      <trkpt lat="43.30678" lon="5.67378">
        <ele>529.5</ele>
        <time>2022-03-16T10:40:50Z</time>
      </trkpt>
      <trkpt lat="43.30683" lon="5.67377">
        <ele>528.8</ele>
        <time>2022-03-16T10:40:58Z</time>
      </trkpt>
      <trkpt lat="43.30688" lon="5.6738">
        <ele>529.9</ele>
        <time>2022-03-16T10:41:06Z</time>
      </trkpt>
      <trkpt lat="43.30693" lon="5.67382">
        <ele>530.4</ele>
        <time>2022-03-16T10:41:14Z</time>
      </trkpt>
      <trkpt lat="43.30698" lon="5.67386">
        <ele>531.9</ele>
        <time>2022-03-16T10:41:22Z</time>
      </trkpt>
      <trkpt lat="43.30701" lon="5.6739">
        <ele>533.1</ele>
        <time>2022-03-16T10:41:30Z</time>
      </trkpt>
      <trkpt lat="43.30705" lon="5.67395">
        <ele>534.6</ele>
        <time>2022-03-16T10:41:38Z</time>
      </trkpt>
      <trkpt lat="43.30709" lon="5.67399">
        <ele>535.6</ele>
        <time>2022-03-16T10:41:46Z</time>
      </trkpt>
      <trkpt lat="43.30714" lon="5.67402">
        <ele>536.2</ele>
        <time>2022-03-16T10:41:54Z</time>
      </trkpt>
      <trkpt lat="43.30718" lon="5.67405">
        <ele>537</ele>
        <time>2022-03-16T10:42:02Z</time>
      </trkpt>
      <trkpt lat="43.30723" lon="5.67409">
        <ele>537.7</ele>
        <time>2022-03-16T10:42:12Z</time>
      </trkpt>
      <trkpt lat="43.30727" lon="5.67413">
        <ele>538.7</ele>
        <time>2022-03-16T10:42:20Z</time>
      </trkpt>
      <trkpt lat="43.30732" lon="5.67417">
        <ele>539.6</ele>
        <time>2022-03-16T10:42:28Z</time>
      </trkpt>
      <trkpt lat="43.30736" lon="5.6742">
        <ele>540.2</ele>
        <time>2022-03-16T10:42:36Z</time>
      </trkpt>
      <trkpt lat="43.3074" lon="5.67423">
        <ele>540.9</ele>
        <time>2022-03-16T10:42:44Z</time>
      </trkpt>
      <trkpt lat="43.30744" lon="5.67426">
        <ele>541.5</ele>
        <time>2022-03-16T10:42:50Z</time>
      </trkpt>
      <trkpt lat="43.30749" lon="5.67429">
        <ele>541.7</ele>
        <time>2022-03-16T10:42:58Z</time>
      </trkpt>
      <trkpt lat="43.30754" lon="5.6743">
        <ele>540.9</ele>
        <time>2022-03-16T10:43:10Z</time>
      </trkpt>
      <trkpt lat="43.30758" lon="5.67434">
        <ele>540.1</ele>
        <time>2022-03-16T10:43:26Z</time>
      </trkpt>
      <trkpt lat="43.30752" lon="5.67435">
        <ele>542.2</ele>
        <time>2022-03-16T10:46:40Z</time>
      </trkpt>
      <trkpt lat="43.30746" lon="5.67436">
        <ele>543.5</ele>
        <time>2022-03-16T10:46:46Z</time>
      </trkpt>
      <trkpt lat="43.30741" lon="5.67437">
        <ele>544.2</ele>
        <time>2022-03-16T10:46:52Z</time>
      </trkpt>
      <trkpt lat="43.30735" lon="5.67438">
        <ele>545</ele>
        <time>2022-03-16T10:46:58Z</time>
      </trkpt>
      <trkpt lat="43.3073" lon="5.67438">
        <ele>545.4</ele>
        <time>2022-03-16T10:47:04Z</time>
      </trkpt>
      <trkpt lat="43.30726" lon="5.67439">
        <ele>546.1</ele>
        <time>2022-03-16T10:47:10Z</time>
      </trkpt>
      <trkpt lat="43.30721" lon="5.67439">
        <ele>546.5</ele>
        <time>2022-03-16T10:47:16Z</time>
      </trkpt>
      <trkpt lat="43.30716" lon="5.67441">
        <ele>546.6</ele>
        <time>2022-03-16T10:47:22Z</time>
      </trkpt>
      <trkpt lat="43.30712" lon="5.67447">
        <ele>547.1</ele>
        <time>2022-03-16T10:47:32Z</time>
      </trkpt>
      <trkpt lat="43.30712" lon="5.67455">
        <ele>546.4</ele>
        <time>2022-03-16T10:47:38Z</time>
      </trkpt>
      <trkpt lat="43.30714" lon="5.67464">
        <ele>546.2</ele>
        <time>2022-03-16T10:47:44Z</time>
      </trkpt>
      <trkpt lat="43.30716" lon="5.6747">
        <ele>546.6</ele>
        <time>2022-03-16T10:47:48Z</time>
      </trkpt>
      <trkpt lat="43.30719" lon="5.67475">
        <ele>546.9</ele>
        <time>2022-03-16T10:47:52Z</time>
      </trkpt>
      <trkpt lat="43.30721" lon="5.6748">
        <ele>546.8</ele>
        <time>2022-03-16T10:47:56Z</time>
      </trkpt>
      <trkpt lat="43.30725" lon="5.67488">
        <ele>545.5</ele>
        <time>2022-03-16T10:48:02Z</time>
      </trkpt>
      <trkpt lat="43.30728" lon="5.67493">
        <ele>544.5</ele>
        <time>2022-03-16T10:48:06Z</time>
      </trkpt>
      <trkpt lat="43.30732" lon="5.67497">
        <ele>543.8</ele>
        <time>2022-03-16T10:48:12Z</time>
      </trkpt>
      <trkpt lat="43.30736" lon="5.67502">
        <ele>543.3</ele>
        <time>2022-03-16T10:48:16Z</time>
      </trkpt>
      <trkpt lat="43.30742" lon="5.67505">
        <ele>543.4</ele>
        <time>2022-03-16T10:48:22Z</time>
      </trkpt>
      <trkpt lat="43.30747" lon="5.67507">
        <ele>543.7</ele>
        <time>2022-03-16T10:48:26Z</time>
      </trkpt>
      <trkpt lat="43.30751" lon="5.67512">
        <ele>543.5</ele>
        <time>2022-03-16T10:48:30Z</time>
      </trkpt>
      <trkpt lat="43.30755" lon="5.67519">
        <ele>541.8</ele>
        <time>2022-03-16T10:48:36Z</time>
      </trkpt>
      <trkpt lat="43.30758" lon="5.67526">
        <ele>541.2</ele>
        <time>2022-03-16T10:48:42Z</time>
      </trkpt>
      <trkpt lat="43.30759" lon="5.67534">
        <ele>541.2</ele>
        <time>2022-03-16T10:48:48Z</time>
      </trkpt>
      <trkpt lat="43.30761" lon="5.67542">
        <ele>541.1</ele>
        <time>2022-03-16T10:48:54Z</time>
      </trkpt>
      <trkpt lat="43.30762" lon="5.67551">
        <ele>541.3</ele>
        <time>2022-03-16T10:49:00Z</time>
      </trkpt>
      <trkpt lat="43.30763" lon="5.67559">
        <ele>541.7</ele>
        <time>2022-03-16T10:49:06Z</time>
      </trkpt>
      <trkpt lat="43.30765" lon="5.67568">
        <ele>542.2</ele>
        <time>2022-03-16T10:49:12Z</time>
      </trkpt>
      <trkpt lat="43.30766" lon="5.67574">
        <ele>542.6</ele>
        <time>2022-03-16T10:49:16Z</time>
      </trkpt>
      <trkpt lat="43.30768" lon="5.67582">
        <ele>543.2</ele>
        <time>2022-03-16T10:49:22Z</time>
      </trkpt>
      <trkpt lat="43.3077" lon="5.67589">
        <ele>544.2</ele>
        <time>2022-03-16T10:49:28Z</time>
      </trkpt>
      <trkpt lat="43.30771" lon="5.67597">
        <ele>545.5</ele>
        <time>2022-03-16T10:49:34Z</time>
      </trkpt>
      <trkpt lat="43.30774" lon="5.67605">
        <ele>547.2</ele>
        <time>2022-03-16T10:49:40Z</time>
      </trkpt>
      <trkpt lat="43.30776" lon="5.67612">
        <ele>548.7</ele>
        <time>2022-03-16T10:49:46Z</time>
      </trkpt>
      <trkpt lat="43.30776" lon="5.6762">
        <ele>549.3</ele>
        <time>2022-03-16T10:49:54Z</time>
      </trkpt>
      <trkpt lat="43.30777" lon="5.67626">
        <ele>549.9</ele>
        <time>2022-03-16T10:50:00Z</time>
      </trkpt>
      <trkpt lat="43.30779" lon="5.67634">
        <ele>549.9</ele>
        <time>2022-03-16T10:50:08Z</time>
      </trkpt>
      <trkpt lat="43.30781" lon="5.6764">
        <ele>549.7</ele>
        <time>2022-03-16T10:50:14Z</time>
      </trkpt>
      <trkpt lat="43.30783" lon="5.67647">
        <ele>549.9</ele>
        <time>2022-03-16T10:50:22Z</time>
      </trkpt>
      <trkpt lat="43.30784" lon="5.67654">
        <ele>550.6</ele>
        <time>2022-03-16T10:50:30Z</time>
      </trkpt>
      <trkpt lat="43.30787" lon="5.6766">
        <ele>551</ele>
        <time>2022-03-16T10:50:38Z</time>
      </trkpt>
      <trkpt lat="43.30788" lon="5.67667">
        <ele>552.3</ele>
        <time>2022-03-16T10:50:46Z</time>
      </trkpt>
      <trkpt lat="43.30789" lon="5.67674">
        <ele>553.3</ele>
        <time>2022-03-16T10:50:54Z</time>
      </trkpt>
      <trkpt lat="43.30791" lon="5.6768">
        <ele>554.3</ele>
        <time>2022-03-16T10:51:02Z</time>
      </trkpt>
      <trkpt lat="43.30792" lon="5.67686">
        <ele>555.6</ele>
        <time>2022-03-16T10:51:30Z</time>
      </trkpt>
      <trkpt lat="43.30794" lon="5.67692">
        <ele>556.7</ele>
        <time>2022-03-16T10:51:36Z</time>
      </trkpt>
      <trkpt lat="43.30795" lon="5.677">
        <ele>558.5</ele>
        <time>2022-03-16T10:51:44Z</time>
      </trkpt>
      <trkpt lat="43.30795" lon="5.67707">
        <ele>559.9</ele>
        <time>2022-03-16T10:51:50Z</time>
      </trkpt>
      <trkpt lat="43.30796" lon="5.67714">
        <ele>561.4</ele>
        <time>2022-03-16T10:51:56Z</time>
      </trkpt>
      <trkpt lat="43.30795" lon="5.67721">
        <ele>562.8</ele>
        <time>2022-03-16T10:52:04Z</time>
      </trkpt>
      <trkpt lat="43.30794" lon="5.67728">
        <ele>564.2</ele>
        <time>2022-03-16T10:52:14Z</time>
      </trkpt>
      <trkpt lat="43.30792" lon="5.67735">
        <ele>565.6</ele>
        <time>2022-03-16T10:52:22Z</time>
      </trkpt>
      <trkpt lat="43.30789" lon="5.67741">
        <ele>566.5</ele>
        <time>2022-03-16T10:52:32Z</time>
      </trkpt>
      <trkpt lat="43.30786" lon="5.67746">
        <ele>567.4</ele>
        <time>2022-03-16T10:52:40Z</time>
      </trkpt>
      <trkpt lat="43.30784" lon="5.67752">
        <ele>568.5</ele>
        <time>2022-03-16T10:54:00Z</time>
      </trkpt>
      <trkpt lat="43.3078" lon="5.67757">
        <ele>569.2</ele>
        <time>2022-03-16T10:54:12Z</time>
      </trkpt>
      <trkpt lat="43.30776" lon="5.67762">
        <ele>570.4</ele>
        <time>2022-03-16T10:54:20Z</time>
      </trkpt>
      <trkpt lat="43.30772" lon="5.67765">
        <ele>571.1</ele>
        <time>2022-03-16T10:54:26Z</time>
      </trkpt>
      <trkpt lat="43.30767" lon="5.67764">
        <ele>570.6</ele>
        <time>2022-03-16T10:54:32Z</time>
      </trkpt>
      <trkpt lat="43.30763" lon="5.67768">
        <ele>571.8</ele>
        <time>2022-03-16T10:54:38Z</time>
      </trkpt>
      <trkpt lat="43.30758" lon="5.67773">
        <ele>573.3</ele>
        <time>2022-03-16T10:54:44Z</time>
      </trkpt>
      <trkpt lat="43.30753" lon="5.67775">
        <ele>574.1</ele>
        <time>2022-03-16T10:54:52Z</time>
      </trkpt>
      <trkpt lat="43.30749" lon="5.67779">
        <ele>575.5</ele>
        <time>2022-03-16T10:55:02Z</time>
      </trkpt>
      <trkpt lat="43.30745" lon="5.67782">
        <ele>577</ele>
        <time>2022-03-16T10:55:14Z</time>
      </trkpt>
      <trkpt lat="43.3074" lon="5.67786">
        <ele>578.8</ele>
        <time>2022-03-16T10:55:20Z</time>
      </trkpt>
      <trkpt lat="43.30735" lon="5.67787">
        <ele>579.5</ele>
        <time>2022-03-16T10:55:28Z</time>
      </trkpt>
      <trkpt lat="43.30729" lon="5.67784">
        <ele>579.3</ele>
        <time>2022-03-16T10:55:38Z</time>
      </trkpt>
      <trkpt lat="43.30724" lon="5.67783">
        <ele>579.5</ele>
        <time>2022-03-16T10:55:44Z</time>
      </trkpt>
      <trkpt lat="43.30719" lon="5.67783">
        <ele>578.9</ele>
        <time>2022-03-16T10:55:52Z</time>
      </trkpt>
      <trkpt lat="43.30714" lon="5.67782">
        <ele>577</ele>
        <time>2022-03-16T10:56:00Z</time>
      </trkpt>
      <trkpt lat="43.30711" lon="5.67787">
        <ele>577.6</ele>
        <time>2022-03-16T10:56:44Z</time>
      </trkpt>
      <trkpt lat="43.30708" lon="5.67792">
        <ele>578.1</ele>
        <time>2022-03-16T10:56:52Z</time>
      </trkpt>
      <trkpt lat="43.30709" lon="5.67799">
        <ele>580.6</ele>
        <time>2022-03-16T10:56:58Z</time>
      </trkpt>
      <trkpt lat="43.30708" lon="5.67806">
        <ele>582.5</ele>
        <time>2022-03-16T10:57:06Z</time>
      </trkpt>
      <trkpt lat="43.30705" lon="5.67813">
        <ele>583.9</ele>
        <time>2022-03-16T10:57:14Z</time>
      </trkpt>
      <trkpt lat="43.30705" lon="5.67823">
        <ele>586.8</ele>
        <time>2022-03-16T10:57:58Z</time>
      </trkpt>
      <trkpt lat="43.30703" lon="5.67833">
        <ele>589.3</ele>
        <time>2022-03-16T10:58:02Z</time>
      </trkpt>
      <trkpt lat="43.307" lon="5.67837">
        <ele>589.6</ele>
        <time>2022-03-16T10:58:08Z</time>
      </trkpt>
      <trkpt lat="43.30697" lon="5.67844">
        <ele>590.7</ele>
        <time>2022-03-16T10:58:16Z</time>
      </trkpt>
      <trkpt lat="43.30694" lon="5.67851">
        <ele>591.7</ele>
        <time>2022-03-16T10:58:22Z</time>
      </trkpt>
      <trkpt lat="43.30693" lon="5.67858">
        <ele>593.5</ele>
        <time>2022-03-16T10:58:30Z</time>
      </trkpt>
      <trkpt lat="43.30691" lon="5.67866">
        <ele>593.9</ele>
        <time>2022-03-16T10:58:38Z</time>
      </trkpt>
      <trkpt lat="43.3069" lon="5.67873">
        <ele>594.5</ele>
        <time>2022-03-16T10:58:46Z</time>
      </trkpt>
      <trkpt lat="43.30689" lon="5.67882">
        <ele>594.9</ele>
        <time>2022-03-16T10:58:52Z</time>
      </trkpt>
      <trkpt lat="43.30686" lon="5.6789">
        <ele>595.2</ele>
        <time>2022-03-16T10:58:58Z</time>
      </trkpt>
      <trkpt lat="43.30686" lon="5.67897">
        <ele>596.5</ele>
        <time>2022-03-16T10:59:06Z</time>
      </trkpt>
      <trkpt lat="43.30686" lon="5.67905">
        <ele>598.1</ele>
        <time>2022-03-16T10:59:14Z</time>
      </trkpt>
      <trkpt lat="43.30684" lon="5.67912">
        <ele>599.3</ele>
        <time>2022-03-16T10:59:22Z</time>
      </trkpt>
      <trkpt lat="43.30685" lon="5.67919">
        <ele>600.8</ele>
        <time>2022-03-16T10:59:30Z</time>
      </trkpt>
      <trkpt lat="43.30685" lon="5.67926">
        <ele>601.5</ele>
        <time>2022-03-16T10:59:38Z</time>
      </trkpt>
      <trkpt lat="43.30683" lon="5.67933">
        <ele>601.6</ele>
        <time>2022-03-16T10:59:46Z</time>
      </trkpt>
      <trkpt lat="43.30682" lon="5.67939">
        <ele>601.8</ele>
        <time>2022-03-16T10:59:54Z</time>
      </trkpt>
      <trkpt lat="43.30681" lon="5.67945">
        <ele>602.1</ele>
        <time>2022-03-16T11:00:02Z</time>
      </trkpt>
      <trkpt lat="43.30682" lon="5.67952">
        <ele>602.8</ele>
        <time>2022-03-16T11:00:12Z</time>
      </trkpt>
      <trkpt lat="43.30684" lon="5.67958">
        <ele>603.9</ele>
        <time>2022-03-16T11:00:20Z</time>
      </trkpt>
      <trkpt lat="43.30685" lon="5.67964">
        <ele>604.8</ele>
        <time>2022-03-16T11:00:28Z</time>
      </trkpt>
      <trkpt lat="43.30687" lon="5.67971">
        <ele>605.9</ele>
        <time>2022-03-16T11:00:36Z</time>
      </trkpt>
      <trkpt lat="43.30688" lon="5.67978">
        <ele>606.9</ele>
        <time>2022-03-16T11:00:44Z</time>
      </trkpt>
      <trkpt lat="43.3069" lon="5.67985">
        <ele>608.1</ele>
        <time>2022-03-16T11:00:54Z</time>
      </trkpt>
      <trkpt lat="43.30692" lon="5.67991">
        <ele>609.1</ele>
        <time>2022-03-16T11:01:04Z</time>
      </trkpt>
      <trkpt lat="43.30693" lon="5.67997">
        <ele>609.9</ele>
        <time>2022-03-16T11:01:16Z</time>
      </trkpt>
      <trkpt lat="43.30694" lon="5.68004">
        <ele>610.9</ele>
        <time>2022-03-16T11:01:24Z</time>
      </trkpt>
      <trkpt lat="43.30694" lon="5.68011">
        <ele>610.9</ele>
        <time>2022-03-16T11:01:32Z</time>
      </trkpt>
      <trkpt lat="43.30698" lon="5.68016">
        <ele>612.8</ele>
        <time>2022-03-16T11:01:46Z</time>
      </trkpt>
      <trkpt lat="43.30701" lon="5.68021">
        <ele>614.5</ele>
        <time>2022-03-16T11:01:54Z</time>
      </trkpt>
      <trkpt lat="43.30703" lon="5.68028">
        <ele>615.7</ele>
        <time>2022-03-16T11:02:00Z</time>
      </trkpt>
      <trkpt lat="43.30703" lon="5.68035">
        <ele>615.9</ele>
        <time>2022-03-16T11:02:06Z</time>
      </trkpt>
      <trkpt lat="43.30703" lon="5.68041">
        <ele>616.2</ele>
        <time>2022-03-16T11:02:22Z</time>
      </trkpt>
      <trkpt lat="43.30701" lon="5.68048">
        <ele>615.5</ele>
        <time>2022-03-16T11:03:48Z</time>
      </trkpt>
      <trkpt lat="43.30704" lon="5.68054">
        <ele>617</ele>
        <time>2022-03-16T11:04:24Z</time>
      </trkpt>
      <trkpt lat="43.30705" lon="5.6806">
        <ele>617.6</ele>
        <time>2022-03-16T11:04:32Z</time>
      </trkpt>
      <trkpt lat="43.30707" lon="5.68068">
        <ele>618.5</ele>
        <time>2022-03-16T11:04:40Z</time>
      </trkpt>
      <trkpt lat="43.30708" lon="5.68074">
        <ele>619.1</ele>
        <time>2022-03-16T11:04:46Z</time>
      </trkpt>
      <trkpt lat="43.3071" lon="5.6808">
        <ele>620.1</ele>
        <time>2022-03-16T11:04:54Z</time>
      </trkpt>
      <trkpt lat="43.30712" lon="5.68087">
        <ele>621.2</ele>
        <time>2022-03-16T11:05:02Z</time>
      </trkpt>
      <trkpt lat="43.30714" lon="5.68095">
        <ele>622.2</ele>
        <time>2022-03-16T11:05:16Z</time>
      </trkpt>
      <trkpt lat="43.30718" lon="5.681">
        <ele>623.3</ele>
        <time>2022-03-16T11:05:22Z</time>
      </trkpt>
      <trkpt lat="43.30718" lon="5.68108">
        <ele>623.2</ele>
        <time>2022-03-16T11:05:30Z</time>
      </trkpt>
      <trkpt lat="43.3072" lon="5.68114">
        <ele>623.7</ele>
        <time>2022-03-16T11:05:38Z</time>
      </trkpt>
      <trkpt lat="43.30722" lon="5.68122">
        <ele>624.3</ele>
        <time>2022-03-16T11:05:46Z</time>
      </trkpt>
      <trkpt lat="43.30722" lon="5.6813">
        <ele>624.8</ele>
        <time>2022-03-16T11:05:56Z</time>
      </trkpt>
      <trkpt lat="43.30723" lon="5.68137">
        <ele>625.2</ele>
        <time>2022-03-16T11:06:04Z</time>
      </trkpt>
      <trkpt lat="43.30724" lon="5.68144">
        <ele>626.7</ele>
        <time>2022-03-16T11:06:14Z</time>
      </trkpt>
      <trkpt lat="43.30728" lon="5.6815">
        <ele>628.9</ele>
        <time>2022-03-16T11:06:24Z</time>
      </trkpt>
      <trkpt lat="43.30731" lon="5.68156">
        <ele>630.9</ele>
        <time>2022-03-16T11:06:38Z</time>
      </trkpt>
      <trkpt lat="43.30732" lon="5.68162">
        <ele>632.3</ele>
        <time>2022-03-16T11:06:46Z</time>
      </trkpt>
      <trkpt lat="43.30734" lon="5.68167">
        <ele>633.9</ele>
        <time>2022-03-16T11:06:50Z</time>
      </trkpt>
      <trkpt lat="43.30732" lon="5.68174">
        <ele>633.5</ele>
        <time>2022-03-16T11:06:58Z</time>
      </trkpt>
      <trkpt lat="43.30733" lon="5.6818">
        <ele>634.6</ele>
        <time>2022-03-16T11:07:08Z</time>
      </trkpt>
      <trkpt lat="43.30732" lon="5.68188">
        <ele>634.8</ele>
        <time>2022-03-16T11:07:16Z</time>
      </trkpt>
      <trkpt lat="43.30734" lon="5.68194">
        <ele>636</ele>
        <time>2022-03-16T11:07:30Z</time>
      </trkpt>
      <trkpt lat="43.30735" lon="5.68201">
        <ele>637.3</ele>
        <time>2022-03-16T11:07:42Z</time>
      </trkpt>
      <trkpt lat="43.30735" lon="5.68209">
        <ele>638.5</ele>
        <time>2022-03-16T11:07:50Z</time>
      </trkpt>
      <trkpt lat="43.30735" lon="5.68216">
        <ele>639.6</ele>
        <time>2022-03-16T11:08:00Z</time>
      </trkpt>
      <trkpt lat="43.30736" lon="5.68223">
        <ele>641.1</ele>
        <time>2022-03-16T11:08:12Z</time>
      </trkpt>
      <trkpt lat="43.30738" lon="5.68229">
        <ele>643.3</ele>
        <time>2022-03-16T11:08:18Z</time>
      </trkpt>
      <trkpt lat="43.30742" lon="5.68236">
        <ele>645.8</ele>
        <time>2022-03-16T11:08:28Z</time>
      </trkpt>
      <trkpt lat="43.30743" lon="5.68243">
        <ele>647.4</ele>
        <time>2022-03-16T11:08:36Z</time>
      </trkpt>
      <trkpt lat="43.30743" lon="5.68249">
        <ele>648.3</ele>
        <time>2022-03-16T11:08:44Z</time>
      </trkpt>
      <trkpt lat="43.30741" lon="5.68256">
        <ele>648.4</ele>
        <time>2022-03-16T11:08:52Z</time>
      </trkpt>
      <trkpt lat="43.30743" lon="5.68263">
        <ele>648.9</ele>
        <time>2022-03-16T11:08:58Z</time>
      </trkpt>
      <trkpt lat="43.30745" lon="5.6827">
        <ele>649.4</ele>
        <time>2022-03-16T11:09:04Z</time>
      </trkpt>
      <trkpt lat="43.30746" lon="5.68277">
        <ele>649.7</ele>
        <time>2022-03-16T11:09:12Z</time>
      </trkpt>
      <trkpt lat="43.30748" lon="5.68282">
        <ele>650.9</ele>
        <time>2022-03-16T11:09:30Z</time>
      </trkpt>
      <trkpt lat="43.30749" lon="5.68289">
        <ele>652.3</ele>
        <time>2022-03-16T11:10:38Z</time>
      </trkpt>
      <trkpt lat="43.30753" lon="5.68293">
        <ele>654.4</ele>
        <time>2022-03-16T11:10:46Z</time>
      </trkpt>
      <trkpt lat="43.30757" lon="5.68288">
        <ele>655</ele>
        <time>2022-03-16T11:10:56Z</time>
      </trkpt>
      <trkpt lat="43.30759" lon="5.68282">
        <ele>654.8</ele>
        <time>2022-03-16T11:11:04Z</time>
      </trkpt>
      <trkpt lat="43.30758" lon="5.68275">
        <ele>653.7</ele>
        <time>2022-03-16T11:11:20Z</time>
      </trkpt>
      <trkpt lat="43.3076" lon="5.68269">
        <ele>654.7</ele>
        <time>2022-03-16T11:12:06Z</time>
      </trkpt>
      <trkpt lat="43.30762" lon="5.68263">
        <ele>655.7</ele>
        <time>2022-03-16T11:12:12Z</time>
      </trkpt>
      <trkpt lat="43.30763" lon="5.68256">
        <ele>656</ele>
        <time>2022-03-16T11:12:18Z</time>
      </trkpt>
      <trkpt lat="43.30765" lon="5.68249">
        <ele>657.1</ele>
        <time>2022-03-16T11:12:26Z</time>
      </trkpt>
      <trkpt lat="43.30768" lon="5.68241">
        <ele>658.1</ele>
        <time>2022-03-16T11:12:34Z</time>
      </trkpt>
      <trkpt lat="43.3077" lon="5.68233">
        <ele>658.2</ele>
        <time>2022-03-16T11:12:40Z</time>
      </trkpt>
      <trkpt lat="43.30771" lon="5.68227">
        <ele>658.8</ele>
        <time>2022-03-16T11:12:48Z</time>
      </trkpt>
      <trkpt lat="43.30773" lon="5.68219">
        <ele>659.2</ele>
        <time>2022-03-16T11:12:56Z</time>
      </trkpt>
      <trkpt lat="43.30775" lon="5.6821">
        <ele>659.1</ele>
        <time>2022-03-16T11:13:02Z</time>
      </trkpt>
      <trkpt lat="43.30777" lon="5.68203">
        <ele>658.9</ele>
        <time>2022-03-16T11:13:08Z</time>
      </trkpt>
      <trkpt lat="43.30778" lon="5.68195">
        <ele>658.1</ele>
        <time>2022-03-16T11:13:14Z</time>
      </trkpt>
      <trkpt lat="43.3078" lon="5.68187">
        <ele>658.1</ele>
        <time>2022-03-16T11:13:20Z</time>
      </trkpt>
      <trkpt lat="43.30781" lon="5.6818">
        <ele>657.5</ele>
        <time>2022-03-16T11:13:26Z</time>
      </trkpt>
      <trkpt lat="43.30784" lon="5.68175">
        <ele>658.5</ele>
        <time>2022-03-16T11:13:38Z</time>
      </trkpt>
      <trkpt lat="43.30784" lon="5.68168">
        <ele>657.6</ele>
        <time>2022-03-16T11:13:46Z</time>
      </trkpt>
      <trkpt lat="43.30785" lon="5.6816">
        <ele>657.2</ele>
        <time>2022-03-16T11:13:52Z</time>
      </trkpt>
      <trkpt lat="43.30787" lon="5.68154">
        <ele>657.8</ele>
        <time>2022-03-16T11:13:56Z</time>
      </trkpt>
      <trkpt lat="43.30788" lon="5.68146">
        <ele>657.6</ele>
        <time>2022-03-16T11:14:02Z</time>
      </trkpt>
      <trkpt lat="43.30788" lon="5.68139">
        <ele>656.8</ele>
        <time>2022-03-16T11:14:12Z</time>
      </trkpt>
      <trkpt lat="43.3079" lon="5.68132">
        <ele>657.1</ele>
        <time>2022-03-16T11:14:24Z</time>
      </trkpt>
      <trkpt lat="43.3079" lon="5.68123">
        <ele>656.4</ele>
        <time>2022-03-16T11:14:30Z</time>
      </trkpt>
      <trkpt lat="43.30791" lon="5.68115">
        <ele>656.1</ele>
        <time>2022-03-16T11:14:36Z</time>
      </trkpt>
      <trkpt lat="43.30792" lon="5.68109">
        <ele>655.9</ele>
        <time>2022-03-16T11:14:40Z</time>
      </trkpt>
      <trkpt lat="43.30794" lon="5.68101">
        <ele>655.5</ele>
        <time>2022-03-16T11:14:46Z</time>
      </trkpt>
      <trkpt lat="43.30797" lon="5.68096">
        <ele>655.7</ele>
        <time>2022-03-16T11:14:54Z</time>
      </trkpt>
      <trkpt lat="43.30802" lon="5.68099">
        <ele>656.6</ele>
        <time>2022-03-16T11:15:32Z</time>
      </trkpt>
      <trkpt lat="43.308" lon="5.68091">
        <ele>655.8</ele>
        <time>2022-03-16T11:15:38Z</time>
      </trkpt>
      <trkpt lat="43.30796" lon="5.68086">
        <ele>654.8</ele>
        <time>2022-03-16T11:15:46Z</time>
      </trkpt>
      <trkpt lat="43.3079" lon="5.68086">
        <ele>654</ele>
        <time>2022-03-16T11:15:58Z</time>
      </trkpt>
      <trkpt lat="43.30787" lon="5.68092">
        <ele>653.9</ele>
        <time>2022-03-16T11:16:06Z</time>
      </trkpt>
      <trkpt lat="43.3079" lon="5.68097">
        <ele>654.7</ele>
        <time>2022-03-16T11:16:34Z</time>
      </trkpt>
      <trkpt lat="43.30785" lon="5.68093">
        <ele>653.8</ele>
        <time>2022-03-16T11:17:10Z</time>
      </trkpt>
      <trkpt lat="43.30784" lon="5.68101">
        <ele>654.1</ele>
        <time>2022-03-16T11:17:18Z</time>
      </trkpt>
      <trkpt lat="43.30787" lon="5.68108">
        <ele>655.1</ele>
        <time>2022-03-16T11:17:26Z</time>
      </trkpt>
      <trkpt lat="43.3079" lon="5.68114">
        <ele>656</ele>
        <time>2022-03-16T11:17:30Z</time>
      </trkpt>
      <trkpt lat="43.30794" lon="5.6812">
        <ele>657.1</ele>
        <time>2022-03-16T11:17:36Z</time>
      </trkpt>
      <trkpt lat="43.30798" lon="5.68124">
        <ele>658.4</ele>
        <time>2022-03-16T11:17:56Z</time>
      </trkpt>
      <trkpt lat="43.30797" lon="5.68131">
        <ele>659.1</ele>
        <time>2022-03-16T11:19:06Z</time>
      </trkpt>
      <trkpt lat="43.30797" lon="5.68139">
        <ele>660</ele>
        <time>2022-03-16T11:20:56Z</time>
      </trkpt>
      <trkpt lat="43.30801" lon="5.68141">
        <ele>661.9</ele>
        <time>2022-03-16T11:21:00Z</time>
      </trkpt>
      <trkpt lat="43.30806" lon="5.68144">
        <ele>664.2</ele>
        <time>2022-03-16T11:21:10Z</time>
      </trkpt>
      <trkpt lat="43.3081" lon="5.68147">
        <ele>665.7</ele>
        <time>2022-03-16T11:21:20Z</time>
      </trkpt>
      <trkpt lat="43.30816" lon="5.68148">
        <ele>666.8</ele>
        <time>2022-03-16T11:21:28Z</time>
      </trkpt>
      <trkpt lat="43.30821" lon="5.68147">
        <ele>667.6</ele>
        <time>2022-03-16T11:21:38Z</time>
      </trkpt>
      <trkpt lat="43.30824" lon="5.68154">
        <ele>669.8</ele>
        <time>2022-03-16T11:21:50Z</time>
      </trkpt>
      <trkpt lat="43.30826" lon="5.68159">
        <ele>672</ele>
        <time>2022-03-16T11:22:00Z</time>
      </trkpt>
      <trkpt lat="43.30831" lon="5.68163">
        <ele>674.2</ele>
        <time>2022-03-16T11:22:34Z</time>
      </trkpt>
      <trkpt lat="43.30834" lon="5.68168">
        <ele>676.3</ele>
        <time>2022-03-16T11:22:38Z</time>
      </trkpt>
      <trkpt lat="43.30838" lon="5.68173">
        <ele>677.7</ele>
        <time>2022-03-16T11:22:44Z</time>
      </trkpt>
      <trkpt lat="43.30841" lon="5.68176">
        <ele>678.9</ele>
        <time>2022-03-16T11:22:54Z</time>
      </trkpt>
      <trkpt lat="43.30838" lon="5.68183">
        <ele>679.7</ele>
        <time>2022-03-16T11:23:02Z</time>
      </trkpt>
      <trkpt lat="43.30838" lon="5.6819">
        <ele>681.2</ele>
        <time>2022-03-16T11:23:08Z</time>
      </trkpt>
      <trkpt lat="43.3084" lon="5.68198">
        <ele>682.9</ele>
        <time>2022-03-16T11:23:18Z</time>
      </trkpt>
      <trkpt lat="43.30835" lon="5.68202">
        <ele>682.1</ele>
        <time>2022-03-16T11:23:26Z</time>
      </trkpt>
      <trkpt lat="43.30835" lon="5.68211">
        <ele>682.8</ele>
        <time>2022-03-16T11:23:30Z</time>
      </trkpt>
      <trkpt lat="43.30835" lon="5.68218">
        <ele>683.2</ele>
        <time>2022-03-16T11:23:34Z</time>
      </trkpt>
      <trkpt lat="43.30836" lon="5.68225">
        <ele>684.2</ele>
        <time>2022-03-16T11:23:40Z</time>
      </trkpt>
      <trkpt lat="43.30838" lon="5.68231">
        <ele>685.7</ele>
        <time>2022-03-16T11:23:46Z</time>
      </trkpt>
      <trkpt lat="43.30835" lon="5.68237">
        <ele>685.2</ele>
        <time>2022-03-16T11:23:50Z</time>
      </trkpt>
      <trkpt lat="43.30833" lon="5.68244">
        <ele>685.2</ele>
        <time>2022-03-16T11:23:54Z</time>
      </trkpt>
      <trkpt lat="43.30829" lon="5.6825">
        <ele>684.8</ele>
        <time>2022-03-16T11:24:00Z</time>
      </trkpt>
      <trkpt lat="43.30829" lon="5.68258">
        <ele>686.1</ele>
        <time>2022-03-16T11:24:12Z</time>
      </trkpt>
      <trkpt lat="43.30828" lon="5.68266">
        <ele>687</ele>
        <time>2022-03-16T11:24:22Z</time>
      </trkpt>
      <trkpt lat="43.3083" lon="5.68273">
        <ele>688.5</ele>
        <time>2022-03-16T11:24:30Z</time>
      </trkpt>
      <trkpt lat="43.3083" lon="5.68281">
        <ele>689.6</ele>
        <time>2022-03-16T11:24:38Z</time>
      </trkpt>
      <trkpt lat="43.30829" lon="5.68288">
        <ele>689.9</ele>
        <time>2022-03-16T11:24:46Z</time>
      </trkpt>
      <trkpt lat="43.30831" lon="5.68294">
        <ele>691.4</ele>
        <time>2022-03-16T11:24:56Z</time>
      </trkpt>
      <trkpt lat="43.30834" lon="5.68298">
        <ele>693.5</ele>
        <time>2022-03-16T11:25:02Z</time>
      </trkpt>
      <trkpt lat="43.30837" lon="5.68304">
        <ele>695.1</ele>
        <time>2022-03-16T11:25:16Z</time>
      </trkpt>
      <trkpt lat="43.30838" lon="5.6831">
        <ele>696.1</ele>
        <time>2022-03-16T11:25:22Z</time>
      </trkpt>
      <trkpt lat="43.30841" lon="5.68316">
        <ele>697.8</ele>
        <time>2022-03-16T11:25:42Z</time>
      </trkpt>
      <trkpt lat="43.3084" lon="5.68323">
        <ele>698.5</ele>
        <time>2022-03-16T11:25:50Z</time>
      </trkpt>
      <trkpt lat="43.30842" lon="5.6833">
        <ele>699.8</ele>
        <time>2022-03-16T11:25:56Z</time>
      </trkpt>
      <trkpt lat="43.30846" lon="5.68335">
        <ele>702.4</ele>
        <time>2022-03-16T11:26:04Z</time>
      </trkpt>
      <trkpt lat="43.30849" lon="5.6834">
        <ele>704.2</ele>
        <time>2022-03-16T11:26:14Z</time>
      </trkpt>
      <trkpt lat="43.30852" lon="5.68348">
        <ele>705.9</ele>
        <time>2022-03-16T11:26:26Z</time>
      </trkpt>
      <trkpt lat="43.30854" lon="5.68356">
        <ele>707.8</ele>
        <time>2022-03-16T11:26:34Z</time>
      </trkpt>
      <trkpt lat="43.30853" lon="5.68362">
        <ele>708.5</ele>
        <time>2022-03-16T11:27:32Z</time>
      </trkpt>
      <trkpt lat="43.30854" lon="5.68369">
        <ele>709.8</ele>
        <time>2022-03-16T11:27:40Z</time>
      </trkpt>
      <trkpt lat="43.30856" lon="5.68375">
        <ele>711.3</ele>
        <time>2022-03-16T11:27:46Z</time>
      </trkpt>
      <trkpt lat="43.3086" lon="5.68381">
        <ele>714.5</ele>
        <time>2022-03-16T11:28:10Z</time>
      </trkpt>
      <trkpt lat="43.30863" lon="5.68387">
        <ele>716.4</ele>
        <time>2022-03-16T11:28:38Z</time>
      </trkpt>
      <trkpt lat="43.30865" lon="5.68394">
        <ele>718.7</ele>
        <time>2022-03-16T11:28:42Z</time>
      </trkpt>
      <trkpt lat="43.30864" lon="5.684">
        <ele>719.8</ele>
        <time>2022-03-16T11:28:52Z</time>
      </trkpt>
      <trkpt lat="43.30864" lon="5.68407">
        <ele>721.6</ele>
        <time>2022-03-16T11:29:12Z</time>
      </trkpt>
      <trkpt lat="43.30867" lon="5.68412">
        <ele>723.9</ele>
        <time>2022-03-16T11:29:22Z</time>
      </trkpt>
      <trkpt lat="43.30872" lon="5.68416">
        <ele>726.3</ele>
        <time>2022-03-16T11:29:28Z</time>
      </trkpt>
      <trkpt lat="43.30873" lon="5.68424">
        <ele>728</ele>
        <time>2022-03-16T11:29:38Z</time>
      </trkpt>
      <trkpt lat="43.30873" lon="5.68431">
        <ele>729.1</ele>
        <time>2022-03-16T11:29:48Z</time>
      </trkpt>
      <trkpt lat="43.30873" lon="5.68438">
        <ele>730.4</ele>
        <time>2022-03-16T11:30:04Z</time>
      </trkpt>
      <trkpt lat="43.30872" lon="5.68445">
        <ele>731</ele>
        <time>2022-03-16T11:30:12Z</time>
      </trkpt>
      <trkpt lat="43.30872" lon="5.68453">
        <ele>731.2</ele>
        <time>2022-03-16T11:30:20Z</time>
      </trkpt>
      <trkpt lat="43.30875" lon="5.68459">
        <ele>732.2</ele>
        <time>2022-03-16T11:30:28Z</time>
      </trkpt>
      <trkpt lat="43.30877" lon="5.68465">
        <ele>733.1</ele>
        <time>2022-03-16T11:30:40Z</time>
      </trkpt>
      <trkpt lat="43.30878" lon="5.68472">
        <ele>733.5</ele>
        <time>2022-03-16T11:30:48Z</time>
      </trkpt>
      <trkpt lat="43.3088" lon="5.68477">
        <ele>735</ele>
        <time>2022-03-16T11:30:56Z</time>
      </trkpt>
      <trkpt lat="43.30882" lon="5.68486">
        <ele>736.8</ele>
        <time>2022-03-16T11:31:16Z</time>
      </trkpt>
      <trkpt lat="43.30886" lon="5.68489">
        <ele>739</ele>
        <time>2022-03-16T11:31:22Z</time>
      </trkpt>
      <trkpt lat="43.30888" lon="5.68497">
        <ele>741.2</ele>
        <time>2022-03-16T11:31:52Z</time>
      </trkpt>
      <trkpt lat="43.30887" lon="5.68503">
        <ele>741.9</ele>
        <time>2022-03-16T11:32:12Z</time>
      </trkpt>
      <trkpt lat="43.30887" lon="5.68513">
        <ele>743.6</ele>
        <time>2022-03-16T11:32:20Z</time>
      </trkpt>
      <trkpt lat="43.30891" lon="5.68518">
        <ele>746.5</ele>
        <time>2022-03-16T11:32:32Z</time>
      </trkpt>
      <trkpt lat="43.30896" lon="5.68521">
        <ele>749.1</ele>
        <time>2022-03-16T11:33:10Z</time>
      </trkpt>
      <trkpt lat="43.30899" lon="5.68527">
        <ele>751.6</ele>
        <time>2022-03-16T11:33:18Z</time>
      </trkpt>
      <trkpt lat="43.30899" lon="5.68533">
        <ele>752.8</ele>
        <time>2022-03-16T11:33:30Z</time>
      </trkpt>
      <trkpt lat="43.309" lon="5.6854">
        <ele>754.2</ele>
        <time>2022-03-16T11:33:40Z</time>
      </trkpt>
      <trkpt lat="43.30903" lon="5.68546">
        <ele>756</ele>
        <time>2022-03-16T11:33:50Z</time>
      </trkpt>
      <trkpt lat="43.30905" lon="5.68552">
        <ele>758.1</ele>
        <time>2022-03-16T11:34:06Z</time>
      </trkpt>
      <trkpt lat="43.30907" lon="5.68558">
        <ele>760</ele>
        <time>2022-03-16T11:34:36Z</time>
      </trkpt>
      <trkpt lat="43.30911" lon="5.68563">
        <ele>762.4</ele>
        <time>2022-03-16T11:35:04Z</time>
      </trkpt>
      <trkpt lat="43.30915" lon="5.68569">
        <ele>765.3</ele>
        <time>2022-03-16T11:35:12Z</time>
      </trkpt>
      <trkpt lat="43.30915" lon="5.68576">
        <ele>766.9</ele>
        <time>2022-03-16T11:35:24Z</time>
      </trkpt>
      <trkpt lat="43.30917" lon="5.68582">
        <ele>768.8</ele>
        <time>2022-03-16T11:35:42Z</time>
      </trkpt>
      <trkpt lat="43.3092" lon="5.68587">
        <ele>770.9</ele>
        <time>2022-03-16T11:36:00Z</time>
      </trkpt>
      <trkpt lat="43.30923" lon="5.68592">
        <ele>773</ele>
        <time>2022-03-16T11:36:10Z</time>
      </trkpt>
      <trkpt lat="43.30923" lon="5.68598">
        <ele>774.3</ele>
        <time>2022-03-16T11:36:32Z</time>
      </trkpt>
      <trkpt lat="43.30922" lon="5.68606">
        <ele>775.6</ele>
        <time>2022-03-16T11:37:20Z</time>
      </trkpt>
      <trkpt lat="43.30923" lon="5.68613">
        <ele>777.6</ele>
        <time>2022-03-16T11:37:28Z</time>
      </trkpt>
      <trkpt lat="43.30926" lon="5.68618">
        <ele>780.6</ele>
        <time>2022-03-16T11:37:38Z</time>
      </trkpt>
      <trkpt lat="43.30928" lon="5.68624">
        <ele>783</ele>
        <time>2022-03-16T11:37:56Z</time>
      </trkpt>
      <trkpt lat="43.30932" lon="5.68629">
        <ele>785.8</ele>
        <time>2022-03-16T11:38:14Z</time>
      </trkpt>
      <trkpt lat="43.30929" lon="5.68634">
        <ele>786.3</ele>
        <time>2022-03-16T11:38:34Z</time>
      </trkpt>
      <trkpt lat="43.30932" lon="5.6864">
        <ele>789.3</ele>
        <time>2022-03-16T11:38:46Z</time>
      </trkpt>
      <trkpt lat="43.30934" lon="5.68647">
        <ele>791.8</ele>
        <time>2022-03-16T11:39:20Z</time>
      </trkpt>
      <trkpt lat="43.30938" lon="5.6865">
        <ele>794.3</ele>
        <time>2022-03-16T11:39:34Z</time>
      </trkpt>
      <trkpt lat="43.30942" lon="5.68654">
        <ele>796.9</ele>
        <time>2022-03-16T11:39:46Z</time>
      </trkpt>
      <trkpt lat="43.30938" lon="5.6866">
        <ele>797.1</ele>
        <time>2022-03-16T11:39:58Z</time>
      </trkpt>
      <trkpt lat="43.30937" lon="5.68667">
        <ele>798.7</ele>
        <time>2022-03-16T11:40:16Z</time>
      </trkpt>
      <trkpt lat="43.30937" lon="5.68675">
        <ele>801.3</ele>
        <time>2022-03-16T11:41:32Z</time>
      </trkpt>
      <trkpt lat="43.30931" lon="5.68676">
        <ele>799.8</ele>
        <time>2022-03-16T11:41:36Z</time>
      </trkpt>
      <trkpt lat="43.30926" lon="5.68678">
        <ele>798.2</ele>
        <time>2022-03-16T11:41:42Z</time>
      </trkpt>
      <trkpt lat="43.30929" lon="5.68673">
        <ele>797.9</ele>
        <time>2022-03-16T11:42:50Z</time>
      </trkpt>
      <trkpt lat="43.30934" lon="5.6867">
        <ele>798.7</ele>
        <time>2022-03-16T11:42:58Z</time>
      </trkpt>
      <trkpt lat="43.30934" lon="5.68663">
        <ele>796.8</ele>
        <time>2022-03-16T11:45:38Z</time>
      </trkpt>
      <trkpt lat="43.30939" lon="5.68661">
        <ele>797.8</ele>
        <time>2022-03-16T11:46:26Z</time>
      </trkpt>
      <trkpt lat="43.30936" lon="5.68666">
        <ele>798.1</ele>
        <time>2022-03-16T11:47:24Z</time>
      </trkpt>
      <trkpt lat="43.30935" lon="5.68673">
        <ele>800.2</ele>
        <time>2022-03-16T12:51:46Z</time>
      </trkpt>
      <trkpt lat="43.3093" lon="5.68676">
        <ele>799.2</ele>
        <time>2022-03-16T12:51:54Z</time>
      </trkpt>
      <trkpt lat="43.30925" lon="5.68677">
        <ele>797.6</ele>
        <time>2022-03-16T12:52:04Z</time>
      </trkpt>
      <trkpt lat="43.3092" lon="5.6868">
        <ele>796.7</ele>
        <time>2022-03-16T12:52:16Z</time>
      </trkpt>
      <trkpt lat="43.30915" lon="5.68683">
        <ele>795.4</ele>
        <time>2022-03-16T12:52:30Z</time>
      </trkpt>
      <trkpt lat="43.3091" lon="5.68685">
        <ele>793.4</ele>
        <time>2022-03-16T12:52:38Z</time>
      </trkpt>
      <trkpt lat="43.30906" lon="5.68688">
        <ele>792</ele>
        <time>2022-03-16T12:52:48Z</time>
      </trkpt>
      <trkpt lat="43.30902" lon="5.68693">
        <ele>791.2</ele>
        <time>2022-03-16T12:52:58Z</time>
      </trkpt>
      <trkpt lat="43.30898" lon="5.68697">
        <ele>790.1</ele>
        <time>2022-03-16T12:53:10Z</time>
      </trkpt>
      <trkpt lat="43.30896" lon="5.68703">
        <ele>790.6</ele>
        <time>2022-03-16T12:53:22Z</time>
      </trkpt>
      <trkpt lat="43.30892" lon="5.68709">
        <ele>790.5</ele>
        <time>2022-03-16T12:53:40Z</time>
      </trkpt>
      <trkpt lat="43.3089" lon="5.68717">
        <ele>791.2</ele>
        <time>2022-03-16T12:53:46Z</time>
      </trkpt>
      <trkpt lat="43.30885" lon="5.6872">
        <ele>789.6</ele>
        <time>2022-03-16T12:53:54Z</time>
      </trkpt>
      <trkpt lat="43.30881" lon="5.68725">
        <ele>788.7</ele>
        <time>2022-03-16T12:54:02Z</time>
      </trkpt>
      <trkpt lat="43.30877" lon="5.6873">
        <ele>787.5</ele>
        <time>2022-03-16T12:54:10Z</time>
      </trkpt>
      <trkpt lat="43.30874" lon="5.68735">
        <ele>787.1</ele>
        <time>2022-03-16T12:54:18Z</time>
      </trkpt>
      <trkpt lat="43.30871" lon="5.6874">
        <ele>786.5</ele>
        <time>2022-03-16T12:54:26Z</time>
      </trkpt>
      <trkpt lat="43.30866" lon="5.68745">
        <ele>785.3</ele>
        <time>2022-03-16T12:54:38Z</time>
      </trkpt>
      <trkpt lat="43.30864" lon="5.6875">
        <ele>785.2</ele>
        <time>2022-03-16T12:54:54Z</time>
      </trkpt>
      <trkpt lat="43.30864" lon="5.68758">
        <ele>784.5</ele>
        <time>2022-03-16T12:55:38Z</time>
      </trkpt>
      <trkpt lat="43.30864" lon="5.68767">
        <ele>783.6</ele>
        <time>2022-03-16T12:55:54Z</time>
      </trkpt>
      <trkpt lat="43.30865" lon="5.68775">
        <ele>782.9</ele>
        <time>2022-03-16T12:56:00Z</time>
      </trkpt>
      <trkpt lat="43.30865" lon="5.68782">
        <ele>782.2</ele>
        <time>2022-03-16T12:56:06Z</time>
      </trkpt>
      <trkpt lat="43.30865" lon="5.68788">
        <ele>781.5</ele>
        <time>2022-03-16T12:56:16Z</time>
      </trkpt>
      <trkpt lat="43.30864" lon="5.68794">
        <ele>780.2</ele>
        <time>2022-03-16T12:56:30Z</time>
      </trkpt>
      <trkpt lat="43.3086" lon="5.68799">
        <ele>777.4</ele>
        <time>2022-03-16T12:56:44Z</time>
      </trkpt>
      <trkpt lat="43.30855" lon="5.68801">
        <ele>775.8</ele>
        <time>2022-03-16T12:56:56Z</time>
      </trkpt>
      <trkpt lat="43.3085" lon="5.68801">
        <ele>774</ele>
        <time>2022-03-16T12:57:06Z</time>
      </trkpt>
      <trkpt lat="43.30845" lon="5.688">
        <ele>772.3</ele>
        <time>2022-03-16T12:57:18Z</time>
      </trkpt>
      <trkpt lat="43.30841" lon="5.68803">
        <ele>771.5</ele>
        <time>2022-03-16T12:57:36Z</time>
      </trkpt>
      <trkpt lat="43.30837" lon="5.68808">
        <ele>772.1</ele>
        <time>2022-03-16T12:57:58Z</time>
      </trkpt>
      <trkpt lat="43.30832" lon="5.68807">
        <ele>770.9</ele>
        <time>2022-03-16T12:58:12Z</time>
      </trkpt>
      <trkpt lat="43.30827" lon="5.68807">
        <ele>771.5</ele>
        <time>2022-03-16T12:58:20Z</time>
      </trkpt>
      <trkpt lat="43.30821" lon="5.68803">
        <ele>770.7</ele>
        <time>2022-03-16T12:58:28Z</time>
      </trkpt>
      <trkpt lat="43.30817" lon="5.68801">
        <ele>770.5</ele>
        <time>2022-03-16T12:58:34Z</time>
      </trkpt>
      <trkpt lat="43.30802" lon="5.68796">
        <ele>770.3</ele>
        <time>2022-03-16T12:59:36Z</time>
      </trkpt>
      <trkpt lat="43.308" lon="5.6879">
        <ele>767.9</ele>
        <time>2022-03-16T12:59:57Z</time>
      </trkpt>
      <trkpt lat="43.30794" lon="5.6879">
        <ele>769</ele>
        <time>2022-03-16T13:00:05Z</time>
      </trkpt>
      <trkpt lat="43.3079" lon="5.68786">
        <ele>768</ele>
        <time>2022-03-16T13:00:25Z</time>
      </trkpt>
      <trkpt lat="43.30784" lon="5.68784">
        <ele>768</ele>
        <time>2022-03-16T13:00:35Z</time>
      </trkpt>
      <trkpt lat="43.30781" lon="5.68779">
        <ele>766</ele>
        <time>2022-03-16T13:00:47Z</time>
      </trkpt>
      <trkpt lat="43.30777" lon="5.68776">
        <ele>765.4</ele>
        <time>2022-03-16T13:01:09Z</time>
      </trkpt>
      <trkpt lat="43.30771" lon="5.68772">
        <ele>765.1</ele>
        <time>2022-03-16T13:01:15Z</time>
      </trkpt>
      <trkpt lat="43.30764" lon="5.68769">
        <ele>765.4</ele>
        <time>2022-03-16T13:01:19Z</time>
      </trkpt>
      <trkpt lat="43.30759" lon="5.68769">
        <ele>766.6</ele>
        <time>2022-03-16T13:01:23Z</time>
      </trkpt>
      <trkpt lat="43.30755" lon="5.68764">
        <ele>764.9</ele>
        <time>2022-03-16T13:01:29Z</time>
      </trkpt>
      <trkpt lat="43.3075" lon="5.68761">
        <ele>764.6</ele>
        <time>2022-03-16T13:01:33Z</time>
      </trkpt>
      <trkpt lat="43.30744" lon="5.68756">
        <ele>763.1</ele>
        <time>2022-03-16T13:01:39Z</time>
      </trkpt>
      <trkpt lat="43.3074" lon="5.68754">
        <ele>762.2</ele>
        <time>2022-03-16T13:01:43Z</time>
      </trkpt>
      <trkpt lat="43.30735" lon="5.68752">
        <ele>762</ele>
        <time>2022-03-16T13:01:47Z</time>
      </trkpt>
      <trkpt lat="43.30729" lon="5.68748">
        <ele>761.2</ele>
        <time>2022-03-16T13:01:53Z</time>
      </trkpt>
      <trkpt lat="43.30725" lon="5.68747">
        <ele>761.5</ele>
        <time>2022-03-16T13:01:59Z</time>
      </trkpt>
      <trkpt lat="43.30719" lon="5.68748">
        <ele>762</ele>
        <time>2022-03-16T13:02:05Z</time>
      </trkpt>
      <trkpt lat="43.30714" lon="5.68747">
        <ele>761.6</ele>
        <time>2022-03-16T13:02:13Z</time>
      </trkpt>
      <trkpt lat="43.30709" lon="5.68748">
        <ele>761.8</ele>
        <time>2022-03-16T13:02:17Z</time>
      </trkpt>
      <trkpt lat="43.30705" lon="5.68752">
        <ele>763.4</ele>
        <time>2022-03-16T13:02:23Z</time>
      </trkpt>
      <trkpt lat="43.307" lon="5.68752">
        <ele>763.4</ele>
        <time>2022-03-16T13:02:33Z</time>
      </trkpt>
      <trkpt lat="43.30696" lon="5.68757">
        <ele>766.9</ele>
        <time>2022-03-16T13:03:11Z</time>
      </trkpt>
      <trkpt lat="43.3069" lon="5.68759">
        <ele>769.5</ele>
        <time>2022-03-16T13:03:19Z</time>
      </trkpt>
      <trkpt lat="43.30685" lon="5.6876">
        <ele>771.2</ele>
        <time>2022-03-16T13:03:25Z</time>
      </trkpt>
      <trkpt lat="43.30683" lon="5.68765">
        <ele>776.1</ele>
        <time>2022-03-16T13:03:33Z</time>
      </trkpt>
      <trkpt lat="43.30678" lon="5.68765">
        <ele>776.9</ele>
        <time>2022-03-16T13:03:41Z</time>
      </trkpt>
      <trkpt lat="43.30672" lon="5.68764">
        <ele>777.8</ele>
        <time>2022-03-16T13:03:47Z</time>
      </trkpt>
      <trkpt lat="43.30667" lon="5.68764">
        <ele>779.8</ele>
        <time>2022-03-16T13:03:53Z</time>
      </trkpt>
      <trkpt lat="43.30663" lon="5.68763">
        <ele>779.3</ele>
        <time>2022-03-16T13:03:59Z</time>
      </trkpt>
      <trkpt lat="43.30657" lon="5.68758">
        <ele>776.8</ele>
        <time>2022-03-16T13:04:03Z</time>
      </trkpt>
      <trkpt lat="43.30653" lon="5.68753">
        <ele>774.7</ele>
        <time>2022-03-16T13:04:07Z</time>
      </trkpt>
      <trkpt lat="43.30649" lon="5.68747">
        <ele>772.7</ele>
        <time>2022-03-16T13:04:13Z</time>
      </trkpt>
      <trkpt lat="43.30646" lon="5.68742">
        <ele>772.9</ele>
        <time>2022-03-16T13:04:21Z</time>
      </trkpt>
      <trkpt lat="43.30641" lon="5.68736">
        <ele>773.2</ele>
        <time>2022-03-16T13:04:27Z</time>
      </trkpt>
      <trkpt lat="43.30637" lon="5.68732">
        <ele>774.1</ele>
        <time>2022-03-16T13:04:31Z</time>
      </trkpt>
      <trkpt lat="43.30631" lon="5.68728">
        <ele>774.9</ele>
        <time>2022-03-16T13:04:37Z</time>
      </trkpt>
      <trkpt lat="43.30628" lon="5.68723">
        <ele>774.6</ele>
        <time>2022-03-16T13:04:41Z</time>
      </trkpt>
      <trkpt lat="43.30624" lon="5.68721">
        <ele>775.6</ele>
        <time>2022-03-16T13:04:45Z</time>
      </trkpt>
      <trkpt lat="43.30618" lon="5.68717">
        <ele>776.7</ele>
        <time>2022-03-16T13:04:51Z</time>
      </trkpt>
      <trkpt lat="43.30615" lon="5.68714">
        <ele>777.2</ele>
        <time>2022-03-16T13:04:57Z</time>
      </trkpt>
      <trkpt lat="43.3061" lon="5.68711">
        <ele>778.1</ele>
        <time>2022-03-16T13:05:03Z</time>
      </trkpt>
      <trkpt lat="43.30605" lon="5.6871">
        <ele>780.3</ele>
        <time>2022-03-16T13:05:13Z</time>
      </trkpt>
      <trkpt lat="43.30601" lon="5.68709">
        <ele>782.3</ele>
        <time>2022-03-16T13:05:19Z</time>
      </trkpt>
      <trkpt lat="43.30596" lon="5.68711">
        <ele>785.4</ele>
        <time>2022-03-16T13:05:27Z</time>
      </trkpt>
      <trkpt lat="43.30591" lon="5.68711">
        <ele>788.3</ele>
        <time>2022-03-16T13:05:39Z</time>
      </trkpt>
      <trkpt lat="43.30586" lon="5.68708">
        <ele>788.8</ele>
        <time>2022-03-16T13:05:47Z</time>
      </trkpt>
      <trkpt lat="43.30581" lon="5.68707">
        <ele>790.4</ele>
        <time>2022-03-16T13:05:57Z</time>
      </trkpt>
      <trkpt lat="43.30576" lon="5.68703">
        <ele>789.4</ele>
        <time>2022-03-16T13:06:05Z</time>
      </trkpt>
      <trkpt lat="43.30573" lon="5.68699">
        <ele>788</ele>
        <time>2022-03-16T13:06:11Z</time>
      </trkpt>
      <trkpt lat="43.30569" lon="5.68696">
        <ele>787.5</ele>
        <time>2022-03-16T13:06:17Z</time>
      </trkpt>
      <trkpt lat="43.30565" lon="5.68692">
        <ele>787.3</ele>
        <time>2022-03-16T13:06:31Z</time>
      </trkpt>
      <trkpt lat="43.3056" lon="5.68692">
        <ele>789.2</ele>
        <time>2022-03-16T13:06:41Z</time>
      </trkpt>
      <trkpt lat="43.30555" lon="5.6869">
        <ele>790.7</ele>
        <time>2022-03-16T13:06:49Z</time>
      </trkpt>
      <trkpt lat="43.30551" lon="5.68694">
        <ele>795.3</ele>
        <time>2022-03-16T13:06:59Z</time>
      </trkpt>
      <trkpt lat="43.30555" lon="5.68698">
        <ele>795.4</ele>
        <time>2022-03-16T13:07:27Z</time>
      </trkpt>
      <trkpt lat="43.30558" lon="5.68701">
        <ele>796</ele>
        <time>2022-03-16T13:07:35Z</time>
      </trkpt>
      <trkpt lat="43.30562" lon="5.68707">
        <ele>799</ele>
        <time>2022-03-16T13:07:45Z</time>
      </trkpt>
      <trkpt lat="43.30566" lon="5.6871">
        <ele>799</ele>
        <time>2022-03-16T13:07:51Z</time>
      </trkpt>
      <trkpt lat="43.30571" lon="5.68711">
        <ele>797.5</ele>
        <time>2022-03-16T13:07:57Z</time>
      </trkpt>
      <trkpt lat="43.30575" lon="5.68713">
        <ele>797.2</ele>
        <time>2022-03-16T13:08:03Z</time>
      </trkpt>
      <trkpt lat="43.30574" lon="5.6872">
        <ele>802.8</ele>
        <time>2022-03-16T13:08:15Z</time>
      </trkpt>
      <trkpt lat="43.30577" lon="5.68725">
        <ele>804</ele>
        <time>2022-03-16T13:08:27Z</time>
      </trkpt>
      <trkpt lat="43.30582" lon="5.68728">
        <ele>802.9</ele>
        <time>2022-03-16T13:08:39Z</time>
      </trkpt>
      <trkpt lat="43.30581" lon="5.68734">
        <ele>805.8</ele>
        <time>2022-03-16T13:09:03Z</time>
      </trkpt>
      <trkpt lat="43.3058" lon="5.6874">
        <ele>808.6</ele>
        <time>2022-03-16T13:09:13Z</time>
      </trkpt>
      <trkpt lat="43.30584" lon="5.68746">
        <ele>809</ele>
        <time>2022-03-16T13:09:21Z</time>
      </trkpt>
      <trkpt lat="43.30587" lon="5.68751">
        <ele>808.9</ele>
        <time>2022-03-16T13:09:29Z</time>
      </trkpt>
      <trkpt lat="43.30587" lon="5.68757">
        <ele>810.9</ele>
        <time>2022-03-16T13:09:41Z</time>
      </trkpt>
      <trkpt lat="43.30583" lon="5.68759">
        <ele>814.2</ele>
        <time>2022-03-16T13:09:51Z</time>
      </trkpt>
      <trkpt lat="43.30587" lon="5.68761">
        <ele>812.3</ele>
        <time>2022-03-16T13:10:09Z</time>
      </trkpt>
      <trkpt lat="43.3059" lon="5.68767">
        <ele>812.3</ele>
        <time>2022-03-16T13:10:29Z</time>
      </trkpt>
      <trkpt lat="43.30595" lon="5.6877">
        <ele>810.9</ele>
        <time>2022-03-16T13:10:37Z</time>
      </trkpt>
      <trkpt lat="43.30594" lon="5.68777">
        <ele>814.2</ele>
        <time>2022-03-16T13:10:49Z</time>
      </trkpt>
      <trkpt lat="43.30595" lon="5.68784">
        <ele>818</ele>
        <time>2022-03-16T13:10:59Z</time>
      </trkpt>
      <trkpt lat="43.30595" lon="5.68791">
        <ele>822.3</ele>
        <time>2022-03-16T13:11:09Z</time>
      </trkpt>
      <trkpt lat="43.3059" lon="5.68787">
        <ele>822.4</ele>
        <time>2022-03-16T13:11:31Z</time>
      </trkpt>
      <trkpt lat="43.30588" lon="5.68781">
        <ele>819.8</ele>
        <time>2022-03-16T13:11:51Z</time>
      </trkpt>
      <trkpt lat="43.30583" lon="5.68776">
        <ele>819.6</ele>
        <time>2022-03-16T13:13:27Z</time>
      </trkpt>
      <trkpt lat="43.30578" lon="5.68774">
        <ele>821.5</ele>
        <time>2022-03-16T13:13:31Z</time>
      </trkpt>
      <trkpt lat="43.30572" lon="5.68774">
        <ele>824.3</ele>
        <time>2022-03-16T13:13:35Z</time>
      </trkpt>
      <trkpt lat="43.30567" lon="5.6877">
        <ele>825.5</ele>
        <time>2022-03-16T13:13:43Z</time>
      </trkpt>
      <trkpt lat="43.30565" lon="5.68764">
        <ele>824.9</ele>
        <time>2022-03-16T13:13:51Z</time>
      </trkpt>
      <trkpt lat="43.30561" lon="5.68757">
        <ele>824.3</ele>
        <time>2022-03-16T13:14:01Z</time>
      </trkpt>
      <trkpt lat="43.30559" lon="5.68752">
        <ele>823.9</ele>
        <time>2022-03-16T13:14:11Z</time>
      </trkpt>
      <trkpt lat="43.30556" lon="5.68748">
        <ele>823.9</ele>
        <time>2022-03-16T13:14:21Z</time>
      </trkpt>
      <trkpt lat="43.30552" lon="5.68743">
        <ele>822</ele>
        <time>2022-03-16T13:14:35Z</time>
      </trkpt>
      <trkpt lat="43.30548" lon="5.68739">
        <ele>820.5</ele>
        <time>2022-03-16T13:14:45Z</time>
      </trkpt>
      <trkpt lat="43.30545" lon="5.68734">
        <ele>819</ele>
        <time>2022-03-16T13:14:51Z</time>
      </trkpt>
      <trkpt lat="43.30543" lon="5.68728">
        <ele>817.4</ele>
        <time>2022-03-16T13:15:03Z</time>
      </trkpt>
      <trkpt lat="43.3054" lon="5.68723">
        <ele>816.6</ele>
        <time>2022-03-16T13:15:47Z</time>
      </trkpt>
      <trkpt lat="43.30537" lon="5.68718">
        <ele>815.2</ele>
        <time>2022-03-16T13:15:59Z</time>
      </trkpt>
      <trkpt lat="43.30536" lon="5.68711">
        <ele>813.4</ele>
        <time>2022-03-16T13:16:11Z</time>
      </trkpt>
      <trkpt lat="43.30532" lon="5.68707">
        <ele>813.9</ele>
        <time>2022-03-16T13:16:19Z</time>
      </trkpt>
      <trkpt lat="43.3053" lon="5.68701">
        <ele>813.8</ele>
        <time>2022-03-16T13:16:25Z</time>
      </trkpt>
      <trkpt lat="43.30529" lon="5.68694">
        <ele>812.7</ele>
        <time>2022-03-16T13:16:39Z</time>
      </trkpt>
      <trkpt lat="43.30525" lon="5.6869">
        <ele>812.8</ele>
        <time>2022-03-16T13:16:53Z</time>
      </trkpt>
      <trkpt lat="43.30522" lon="5.68685">
        <ele>811.2</ele>
        <time>2022-03-16T13:17:05Z</time>
      </trkpt>
      <trkpt lat="43.30517" lon="5.68683">
        <ele>809.5</ele>
        <time>2022-03-16T13:18:13Z</time>
      </trkpt>
      <trkpt lat="43.30515" lon="5.68678">
        <ele>807.9</ele>
        <time>2022-03-16T13:18:25Z</time>
      </trkpt>
      <trkpt lat="43.30514" lon="5.68671">
        <ele>806.7</ele>
        <time>2022-03-16T13:18:43Z</time>
      </trkpt>
      <trkpt lat="43.30515" lon="5.68664">
        <ele>806</ele>
        <time>2022-03-16T13:19:13Z</time>
      </trkpt>
      <trkpt lat="43.30519" lon="5.68659">
        <ele>806.3</ele>
        <time>2022-03-16T13:19:19Z</time>
      </trkpt>
      <trkpt lat="43.30521" lon="5.68652">
        <ele>805.6</ele>
        <time>2022-03-16T13:19:25Z</time>
      </trkpt>
      <trkpt lat="43.30525" lon="5.68649">
        <ele>806</ele>
        <time>2022-03-16T13:19:33Z</time>
      </trkpt>
      <trkpt lat="43.30531" lon="5.68653">
        <ele>804.7</ele>
        <time>2022-03-16T13:19:39Z</time>
      </trkpt>
      <trkpt lat="43.30535" lon="5.68657">
        <ele>801.4</ele>
        <time>2022-03-16T13:19:43Z</time>
      </trkpt>
      <trkpt lat="43.30529" lon="5.68657">
        <ele>806.9</ele>
        <time>2022-03-16T13:19:59Z</time>
      </trkpt>
      <trkpt lat="43.30525" lon="5.68653">
        <ele>806.8</ele>
        <time>2022-03-16T13:20:03Z</time>
      </trkpt>
      <trkpt lat="43.30519" lon="5.6865">
        <ele>804.8</ele>
        <time>2022-03-16T13:20:09Z</time>
      </trkpt>
      <trkpt lat="43.30515" lon="5.68646">
        <ele>803.2</ele>
        <time>2022-03-16T13:20:15Z</time>
      </trkpt>
      <trkpt lat="43.30509" lon="5.68647">
        <ele>802.2</ele>
        <time>2022-03-16T13:20:23Z</time>
      </trkpt>
      <trkpt lat="43.30503" lon="5.68647">
        <ele>801</ele>
        <time>2022-03-16T13:20:31Z</time>
      </trkpt>
      <trkpt lat="43.30499" lon="5.68652">
        <ele>800</ele>
        <time>2022-03-16T13:20:39Z</time>
      </trkpt>
      <trkpt lat="43.30495" lon="5.68657">
        <ele>798.8</ele>
        <time>2022-03-16T13:20:47Z</time>
      </trkpt>
      <trkpt lat="43.30492" lon="5.68652">
        <ele>797.1</ele>
        <time>2022-03-16T13:20:57Z</time>
      </trkpt>
      <trkpt lat="43.30493" lon="5.68646">
        <ele>797.2</ele>
        <time>2022-03-16T13:21:07Z</time>
      </trkpt>
      <trkpt lat="43.30491" lon="5.6864">
        <ele>796.4</ele>
        <time>2022-03-16T13:21:19Z</time>
      </trkpt>
      <trkpt lat="43.3049" lon="5.68633">
        <ele>795.1</ele>
        <time>2022-03-16T13:21:27Z</time>
      </trkpt>
      <trkpt lat="43.30488" lon="5.68627">
        <ele>793.9</ele>
        <time>2022-03-16T13:21:35Z</time>
      </trkpt>
      <trkpt lat="43.30488" lon="5.6862">
        <ele>793.6</ele>
        <time>2022-03-16T13:22:23Z</time>
      </trkpt>
      <trkpt lat="43.30486" lon="5.68614">
        <ele>792.3</ele>
        <time>2022-03-16T13:22:31Z</time>
      </trkpt>
      <trkpt lat="43.30484" lon="5.68607">
        <ele>791</ele>
        <time>2022-03-16T13:22:39Z</time>
      </trkpt>
      <trkpt lat="43.30484" lon="5.68601">
        <ele>791.1</ele>
        <time>2022-03-16T13:22:49Z</time>
      </trkpt>
      <trkpt lat="43.3048" lon="5.68596">
        <ele>789.4</ele>
        <time>2022-03-16T13:22:59Z</time>
      </trkpt>
      <trkpt lat="43.30476" lon="5.68592">
        <ele>787.5</ele>
        <time>2022-03-16T13:23:07Z</time>
      </trkpt>
      <trkpt lat="43.30472" lon="5.68587">
        <ele>786.1</ele>
        <time>2022-03-16T13:23:13Z</time>
      </trkpt>
      <trkpt lat="43.30473" lon="5.6858">
        <ele>786.2</ele>
        <time>2022-03-16T13:23:19Z</time>
      </trkpt>
      <trkpt lat="43.30472" lon="5.68573">
        <ele>786</ele>
        <time>2022-03-16T13:23:25Z</time>
      </trkpt>
      <trkpt lat="43.3047" lon="5.68568">
        <ele>785.4</ele>
        <time>2022-03-16T13:23:31Z</time>
      </trkpt>
      <trkpt lat="43.30467" lon="5.68563">
        <ele>784.5</ele>
        <time>2022-03-16T13:23:37Z</time>
      </trkpt>
      <trkpt lat="43.30463" lon="5.68556">
        <ele>783.7</ele>
        <time>2022-03-16T13:23:43Z</time>
      </trkpt>
      <trkpt lat="43.3046" lon="5.6855">
        <ele>783.3</ele>
        <time>2022-03-16T13:23:49Z</time>
      </trkpt>
      <trkpt lat="43.30458" lon="5.68544">
        <ele>783.1</ele>
        <time>2022-03-16T13:23:55Z</time>
      </trkpt>
      <trkpt lat="43.30456" lon="5.68538">
        <ele>783.1</ele>
        <time>2022-03-16T13:24:01Z</time>
      </trkpt>
      <trkpt lat="43.30453" lon="5.68531">
        <ele>782.8</ele>
        <time>2022-03-16T13:24:07Z</time>
      </trkpt>
      <trkpt lat="43.3045" lon="5.68526">
        <ele>782.5</ele>
        <time>2022-03-16T13:24:11Z</time>
      </trkpt>
      <trkpt lat="43.30448" lon="5.6852">
        <ele>782.1</ele>
        <time>2022-03-16T13:24:17Z</time>
      </trkpt>
      <trkpt lat="43.30446" lon="5.68513">
        <ele>781.9</ele>
        <time>2022-03-16T13:24:23Z</time>
      </trkpt>
      <trkpt lat="43.30444" lon="5.68506">
        <ele>781.6</ele>
        <time>2022-03-16T13:24:29Z</time>
      </trkpt>
      <trkpt lat="43.30442" lon="5.685">
        <ele>781.6</ele>
        <time>2022-03-16T13:24:35Z</time>
      </trkpt>
      <trkpt lat="43.30442" lon="5.68494">
        <ele>780.9</ele>
        <time>2022-03-16T13:24:43Z</time>
      </trkpt>
      <trkpt lat="43.30439" lon="5.68487">
        <ele>779.9</ele>
        <time>2022-03-16T13:24:51Z</time>
      </trkpt>
      <trkpt lat="43.30435" lon="5.68483">
        <ele>778.9</ele>
        <time>2022-03-16T13:24:59Z</time>
      </trkpt>
      <trkpt lat="43.3043" lon="5.68481">
        <ele>777.9</ele>
        <time>2022-03-16T13:25:05Z</time>
      </trkpt>
      <trkpt lat="43.30426" lon="5.68477">
        <ele>776.9</ele>
        <time>2022-03-16T13:25:13Z</time>
      </trkpt>
      <trkpt lat="43.30422" lon="5.68472">
        <ele>775.9</ele>
        <time>2022-03-16T13:25:21Z</time>
      </trkpt>
      <trkpt lat="43.30419" lon="5.68466">
        <ele>774.9</ele>
        <time>2022-03-16T13:25:27Z</time>
      </trkpt>
      <trkpt lat="43.30415" lon="5.6846">
        <ele>773.9</ele>
        <time>2022-03-16T13:25:33Z</time>
      </trkpt>
      <trkpt lat="43.30412" lon="5.68456">
        <ele>773</ele>
        <time>2022-03-16T13:25:39Z</time>
      </trkpt>
      <trkpt lat="43.30408" lon="5.6845">
        <ele>772.1</ele>
        <time>2022-03-16T13:25:47Z</time>
      </trkpt>
      <trkpt lat="43.30403" lon="5.68445">
        <ele>771.1</ele>
        <time>2022-03-16T13:25:55Z</time>
      </trkpt>
      <trkpt lat="43.304" lon="5.6844">
        <ele>770.3</ele>
        <time>2022-03-16T13:26:01Z</time>
      </trkpt>
      <trkpt lat="43.30396" lon="5.68436">
        <ele>769.5</ele>
        <time>2022-03-16T13:26:07Z</time>
      </trkpt>
      <trkpt lat="43.30392" lon="5.6843">
        <ele>768.5</ele>
        <time>2022-03-16T13:26:13Z</time>
      </trkpt>
      <trkpt lat="43.30388" lon="5.68424">
        <ele>767.5</ele>
        <time>2022-03-16T13:26:19Z</time>
      </trkpt>
      <trkpt lat="43.30385" lon="5.68418">
        <ele>766.9</ele>
        <time>2022-03-16T13:26:25Z</time>
      </trkpt>
      <trkpt lat="43.30382" lon="5.68411">
        <ele>766.2</ele>
        <time>2022-03-16T13:26:31Z</time>
      </trkpt>
      <trkpt lat="43.3038" lon="5.68405">
        <ele>765.5</ele>
        <time>2022-03-16T13:26:37Z</time>
      </trkpt>
      <trkpt lat="43.30374" lon="5.684">
        <ele>765</ele>
        <time>2022-03-16T13:26:43Z</time>
      </trkpt>
      <trkpt lat="43.3037" lon="5.68396">
        <ele>764.6</ele>
        <time>2022-03-16T13:26:47Z</time>
      </trkpt>
      <trkpt lat="43.30366" lon="5.68392">
        <ele>764.3</ele>
        <time>2022-03-16T13:26:51Z</time>
      </trkpt>
      <trkpt lat="43.30361" lon="5.68387">
        <ele>763.8</ele>
        <time>2022-03-16T13:26:57Z</time>
      </trkpt>
      <trkpt lat="43.30357" lon="5.68381">
        <ele>763.7</ele>
        <time>2022-03-16T13:27:03Z</time>
      </trkpt>
      <trkpt lat="43.30353" lon="5.68377">
        <ele>763.6</ele>
        <time>2022-03-16T13:27:09Z</time>
      </trkpt>
      <trkpt lat="43.30349" lon="5.68373">
        <ele>763.4</ele>
        <time>2022-03-16T13:27:17Z</time>
      </trkpt>
      <trkpt lat="43.30348" lon="5.68365">
        <ele>762.8</ele>
        <time>2022-03-16T13:27:25Z</time>
      </trkpt>
      <trkpt lat="43.30344" lon="5.6836">
        <ele>762.5</ele>
        <time>2022-03-16T13:27:35Z</time>
      </trkpt>
      <trkpt lat="43.3034" lon="5.68356">
        <ele>762.3</ele>
        <time>2022-03-16T13:27:41Z</time>
      </trkpt>
      <trkpt lat="43.30338" lon="5.6835">
        <ele>761.9</ele>
        <time>2022-03-16T13:27:47Z</time>
      </trkpt>
      <trkpt lat="43.30335" lon="5.68343">
        <ele>761.6</ele>
        <time>2022-03-16T13:27:53Z</time>
      </trkpt>
      <trkpt lat="43.30332" lon="5.68336">
        <ele>761.3</ele>
        <time>2022-03-16T13:27:59Z</time>
      </trkpt>
      <trkpt lat="43.30333" lon="5.68329">
        <ele>760.5</ele>
        <time>2022-03-16T13:28:05Z</time>
      </trkpt>
      <trkpt lat="43.30333" lon="5.68323">
        <ele>759.8</ele>
        <time>2022-03-16T13:28:17Z</time>
      </trkpt>
      <trkpt lat="43.30328" lon="5.68323">
        <ele>759.9</ele>
        <time>2022-03-16T13:28:45Z</time>
      </trkpt>
      <trkpt lat="43.30323" lon="5.68321">
        <ele>759.9</ele>
        <time>2022-03-16T13:28:53Z</time>
      </trkpt>
      <trkpt lat="43.30322" lon="5.68315">
        <ele>759.2</ele>
        <time>2022-03-16T13:28:59Z</time>
      </trkpt>
      <trkpt lat="43.30318" lon="5.6831">
        <ele>758.5</ele>
        <time>2022-03-16T13:29:07Z</time>
      </trkpt>
      <trkpt lat="43.30313" lon="5.68307">
        <ele>758.2</ele>
        <time>2022-03-16T13:29:15Z</time>
      </trkpt>
      <trkpt lat="43.30311" lon="5.683">
        <ele>757.1</ele>
        <time>2022-03-16T13:29:23Z</time>
      </trkpt>
      <trkpt lat="43.30307" lon="5.68295">
        <ele>756.1</ele>
        <time>2022-03-16T13:29:31Z</time>
      </trkpt>
      <trkpt lat="43.30303" lon="5.68291">
        <ele>755.2</ele>
        <time>2022-03-16T13:29:37Z</time>
      </trkpt>
      <trkpt lat="43.30298" lon="5.68288">
        <ele>754.2</ele>
        <time>2022-03-16T13:29:43Z</time>
      </trkpt>
      <trkpt lat="43.30295" lon="5.68283">
        <ele>753.2</ele>
        <time>2022-03-16T13:29:49Z</time>
      </trkpt>
      <trkpt lat="43.30292" lon="5.68277">
        <ele>751.8</ele>
        <time>2022-03-16T13:29:57Z</time>
      </trkpt>
      <trkpt lat="43.30291" lon="5.6827">
        <ele>750.7</ele>
        <time>2022-03-16T13:30:07Z</time>
      </trkpt>
      <trkpt lat="43.30289" lon="5.68264">
        <ele>749.4</ele>
        <time>2022-03-16T13:30:17Z</time>
      </trkpt>
      <trkpt lat="43.30285" lon="5.6826">
        <ele>748.5</ele>
        <time>2022-03-16T13:30:23Z</time>
      </trkpt>
      <trkpt lat="43.30282" lon="5.68256">
        <ele>747.4</ele>
        <time>2022-03-16T13:30:31Z</time>
      </trkpt>
      <trkpt lat="43.30277" lon="5.68252">
        <ele>746.2</ele>
        <time>2022-03-16T13:30:39Z</time>
      </trkpt>
      <trkpt lat="43.30273" lon="5.68246">
        <ele>744.4</ele>
        <time>2022-03-16T13:30:49Z</time>
      </trkpt>
      <trkpt lat="43.3027" lon="5.6824">
        <ele>742.4</ele>
        <time>2022-03-16T13:30:57Z</time>
      </trkpt>
      <trkpt lat="43.30265" lon="5.68237">
        <ele>741.2</ele>
        <time>2022-03-16T13:31:03Z</time>
      </trkpt>
      <trkpt lat="43.30261" lon="5.68233">
        <ele>740.1</ele>
        <time>2022-03-16T13:31:13Z</time>
      </trkpt>
      <trkpt lat="43.30256" lon="5.68229">
        <ele>739.2</ele>
        <time>2022-03-16T13:31:19Z</time>
      </trkpt>
      <trkpt lat="43.30252" lon="5.68225">
        <ele>738.5</ele>
        <time>2022-03-16T13:31:27Z</time>
      </trkpt>
      <trkpt lat="43.30247" lon="5.6822">
        <ele>737.2</ele>
        <time>2022-03-16T13:31:35Z</time>
      </trkpt>
      <trkpt lat="43.30244" lon="5.68214">
        <ele>735.6</ele>
        <time>2022-03-16T13:31:43Z</time>
      </trkpt>
      <trkpt lat="43.3024" lon="5.6821">
        <ele>734.2</ele>
        <time>2022-03-16T13:31:49Z</time>
      </trkpt>
      <trkpt lat="43.30237" lon="5.68206">
        <ele>733.1</ele>
        <time>2022-03-16T13:31:55Z</time>
      </trkpt>
      <trkpt lat="43.30232" lon="5.68201">
        <ele>731.8</ele>
        <time>2022-03-16T13:32:03Z</time>
      </trkpt>
      <trkpt lat="43.30227" lon="5.68198">
        <ele>730.9</ele>
        <time>2022-03-16T13:32:11Z</time>
      </trkpt>
      <trkpt lat="43.30223" lon="5.68194">
        <ele>730.1</ele>
        <time>2022-03-16T13:32:19Z</time>
      </trkpt>
      <trkpt lat="43.30219" lon="5.68191">
        <ele>728.3</ele>
        <time>2022-03-16T13:32:29Z</time>
      </trkpt>
      <trkpt lat="43.30215" lon="5.68187">
        <ele>726.6</ele>
        <time>2022-03-16T13:32:39Z</time>
      </trkpt>
      <trkpt lat="43.30211" lon="5.68183">
        <ele>724.9</ele>
        <time>2022-03-16T13:32:49Z</time>
      </trkpt>
      <trkpt lat="43.30206" lon="5.6818">
        <ele>723.4</ele>
        <time>2022-03-16T13:33:09Z</time>
      </trkpt>
      <trkpt lat="43.30201" lon="5.68178">
        <ele>722.3</ele>
        <time>2022-03-16T13:33:15Z</time>
      </trkpt>
      <trkpt lat="43.30195" lon="5.68177">
        <ele>721.2</ele>
        <time>2022-03-16T13:33:23Z</time>
      </trkpt>
      <trkpt lat="43.30192" lon="5.68172">
        <ele>720</ele>
        <time>2022-03-16T13:33:33Z</time>
      </trkpt>
      <trkpt lat="43.30189" lon="5.68167">
        <ele>718.8</ele>
        <time>2022-03-16T13:33:43Z</time>
      </trkpt>
      <trkpt lat="43.30184" lon="5.68163">
        <ele>717.1</ele>
        <time>2022-03-16T13:33:53Z</time>
      </trkpt>
      <trkpt lat="43.30178" lon="5.68164">
        <ele>716.1</ele>
        <time>2022-03-16T13:34:01Z</time>
      </trkpt>
      <trkpt lat="43.30174" lon="5.68164">
        <ele>715.2</ele>
        <time>2022-03-16T13:34:07Z</time>
      </trkpt>
      <trkpt lat="43.30168" lon="5.68164">
        <ele>713.9</ele>
        <time>2022-03-16T13:34:15Z</time>
      </trkpt>
      <trkpt lat="43.30163" lon="5.68163">
        <ele>712.8</ele>
        <time>2022-03-16T13:34:21Z</time>
      </trkpt>
      <trkpt lat="43.30157" lon="5.68163">
        <ele>711.6</ele>
        <time>2022-03-16T13:34:29Z</time>
      </trkpt>
      <trkpt lat="43.30152" lon="5.68162">
        <ele>710.4</ele>
        <time>2022-03-16T13:34:37Z</time>
      </trkpt>
      <trkpt lat="43.30147" lon="5.68161">
        <ele>709.1</ele>
        <time>2022-03-16T13:34:45Z</time>
      </trkpt>
      <trkpt lat="43.30143" lon="5.68157">
        <ele>707.9</ele>
        <time>2022-03-16T13:34:53Z</time>
      </trkpt>
      <trkpt lat="43.30139" lon="5.68155">
        <ele>706.7</ele>
        <time>2022-03-16T13:35:01Z</time>
      </trkpt>
      <trkpt lat="43.30133" lon="5.68154">
        <ele>705.4</ele>
        <time>2022-03-16T13:35:09Z</time>
      </trkpt>
      <trkpt lat="43.30128" lon="5.68153">
        <ele>704.3</ele>
        <time>2022-03-16T13:35:15Z</time>
      </trkpt>
      <trkpt lat="43.30124" lon="5.6815">
        <ele>703.2</ele>
        <time>2022-03-16T13:35:23Z</time>
      </trkpt>
      <trkpt lat="43.30119" lon="5.68147">
        <ele>702.2</ele>
        <time>2022-03-16T13:35:31Z</time>
      </trkpt>
      <trkpt lat="43.30113" lon="5.68147">
        <ele>700.9</ele>
        <time>2022-03-16T13:35:39Z</time>
      </trkpt>
      <trkpt lat="43.30108" lon="5.68148">
        <ele>700.3</ele>
        <time>2022-03-16T13:35:45Z</time>
      </trkpt>
      <trkpt lat="43.30102" lon="5.68147">
        <ele>699.7</ele>
        <time>2022-03-16T13:35:51Z</time>
      </trkpt>
      <trkpt lat="43.30097" lon="5.68148">
        <ele>699.3</ele>
        <time>2022-03-16T13:35:57Z</time>
      </trkpt>
      <trkpt lat="43.30092" lon="5.68147">
        <ele>698.9</ele>
        <time>2022-03-16T13:36:11Z</time>
      </trkpt>
      <trkpt lat="43.30095" lon="5.68141">
        <ele>698.9</ele>
        <time>2022-03-16T13:37:33Z</time>
      </trkpt>
      <trkpt lat="43.30098" lon="5.68134">
        <ele>699</ele>
        <time>2022-03-16T13:37:41Z</time>
      </trkpt>
      <trkpt lat="43.30102" lon="5.68128">
        <ele>698.8</ele>
        <time>2022-03-16T13:37:49Z</time>
      </trkpt>
      <trkpt lat="43.30105" lon="5.68123">
        <ele>698.5</ele>
        <time>2022-03-16T13:37:55Z</time>
      </trkpt>
      <trkpt lat="43.30109" lon="5.68117">
        <ele>697.8</ele>
        <time>2022-03-16T13:38:01Z</time>
      </trkpt>
      <trkpt lat="43.30113" lon="5.68111">
        <ele>697.4</ele>
        <time>2022-03-16T13:38:07Z</time>
      </trkpt>
      <trkpt lat="43.30117" lon="5.68104">
        <ele>697.9</ele>
        <time>2022-03-16T13:38:13Z</time>
      </trkpt>
      <trkpt lat="43.30122" lon="5.68098">
        <ele>698.3</ele>
        <time>2022-03-16T13:38:19Z</time>
      </trkpt>
      <trkpt lat="43.30125" lon="5.68093">
        <ele>698.2</ele>
        <time>2022-03-16T13:38:23Z</time>
      </trkpt>
      <trkpt lat="43.30127" lon="5.68086">
        <ele>697.8</ele>
        <time>2022-03-16T13:38:29Z</time>
      </trkpt>
      <trkpt lat="43.3013" lon="5.68078">
        <ele>697.4</ele>
        <time>2022-03-16T13:38:35Z</time>
      </trkpt>
      <trkpt lat="43.30135" lon="5.68071">
        <ele>696.9</ele>
        <time>2022-03-16T13:38:41Z</time>
      </trkpt>
      <trkpt lat="43.30138" lon="5.68066">
        <ele>696.2</ele>
        <time>2022-03-16T13:38:45Z</time>
      </trkpt>
      <trkpt lat="43.30143" lon="5.68062">
        <ele>696.1</ele>
        <time>2022-03-16T13:38:49Z</time>
      </trkpt>
      <trkpt lat="43.30147" lon="5.68059">
        <ele>696</ele>
        <time>2022-03-16T13:38:53Z</time>
      </trkpt>
      <trkpt lat="43.30153" lon="5.68057">
        <ele>696.2</ele>
        <time>2022-03-16T13:38:59Z</time>
      </trkpt>
      <trkpt lat="43.3016" lon="5.68058">
        <ele>696.9</ele>
        <time>2022-03-16T13:39:05Z</time>
      </trkpt>
      <trkpt lat="43.30164" lon="5.68059">
        <ele>697.4</ele>
        <time>2022-03-16T13:39:09Z</time>
      </trkpt>
      <trkpt lat="43.30171" lon="5.68061">
        <ele>698.1</ele>
        <time>2022-03-16T13:39:15Z</time>
      </trkpt>
      <trkpt lat="43.30176" lon="5.6806">
        <ele>698.3</ele>
        <time>2022-03-16T13:39:21Z</time>
      </trkpt>
      <trkpt lat="43.30182" lon="5.68059">
        <ele>698.5</ele>
        <time>2022-03-16T13:39:27Z</time>
      </trkpt>
      <trkpt lat="43.30189" lon="5.68059">
        <ele>698.9</ele>
        <time>2022-03-16T13:39:33Z</time>
      </trkpt>
      <trkpt lat="43.30194" lon="5.68062">
        <ele>699.5</ele>
        <time>2022-03-16T13:39:39Z</time>
      </trkpt>
      <trkpt lat="43.30197" lon="5.68069">
        <ele>700.3</ele>
        <time>2022-03-16T13:39:45Z</time>
      </trkpt>
      <trkpt lat="43.302" lon="5.68074">
        <ele>700.9</ele>
        <time>2022-03-16T13:39:51Z</time>
      </trkpt>
      <trkpt lat="43.30205" lon="5.68075">
        <ele>701.5</ele>
        <time>2022-03-16T13:39:57Z</time>
      </trkpt>
      <trkpt lat="43.30208" lon="5.68079">
        <ele>701.9</ele>
        <time>2022-03-16T13:40:07Z</time>
      </trkpt>
      <trkpt lat="43.30213" lon="5.68083">
        <ele>702.3</ele>
        <time>2022-03-16T13:40:55Z</time>
      </trkpt>
      <trkpt lat="43.30217" lon="5.68086">
        <ele>703.1</ele>
        <time>2022-03-16T13:41:03Z</time>
      </trkpt>
      <trkpt lat="43.30222" lon="5.68088">
        <ele>703.7</ele>
        <time>2022-03-16T13:41:09Z</time>
      </trkpt>
      <trkpt lat="43.30227" lon="5.6809">
        <ele>704.7</ele>
        <time>2022-03-16T13:41:33Z</time>
      </trkpt>
      <trkpt lat="43.30226" lon="5.68084">
        <ele>703.7</ele>
        <time>2022-03-16T13:41:51Z</time>
      </trkpt>
      <trkpt lat="43.30227" lon="5.68077">
        <ele>704.1</ele>
        <time>2022-03-16T13:41:57Z</time>
      </trkpt>
      <trkpt lat="43.3023" lon="5.68072">
        <ele>704.9</ele>
        <time>2022-03-16T13:42:03Z</time>
      </trkpt>
      <trkpt lat="43.30231" lon="5.68065">
        <ele>705.6</ele>
        <time>2022-03-16T13:42:13Z</time>
      </trkpt>
      <trkpt lat="43.3023" lon="5.68058">
        <ele>705.9</ele>
        <time>2022-03-16T13:42:19Z</time>
      </trkpt>
      <trkpt lat="43.30232" lon="5.6805">
        <ele>707.2</ele>
        <time>2022-03-16T13:42:27Z</time>
      </trkpt>
      <trkpt lat="43.30236" lon="5.68046">
        <ele>708.6</ele>
        <time>2022-03-16T13:42:33Z</time>
      </trkpt>
      <trkpt lat="43.30241" lon="5.68043">
        <ele>710.3</ele>
        <time>2022-03-16T13:42:45Z</time>
      </trkpt>
      <trkpt lat="43.30242" lon="5.68037">
        <ele>711.5</ele>
        <time>2022-03-16T13:42:57Z</time>
      </trkpt>
      <trkpt lat="43.30245" lon="5.68032">
        <ele>712.9</ele>
        <time>2022-03-16T13:43:09Z</time>
      </trkpt>
      <trkpt lat="43.3025" lon="5.68029">
        <ele>714.7</ele>
        <time>2022-03-16T13:43:25Z</time>
      </trkpt>
      <trkpt lat="43.30255" lon="5.6803">
        <ele>716</ele>
        <time>2022-03-16T13:43:37Z</time>
      </trkpt>
      <trkpt lat="43.3026" lon="5.68027">
        <ele>717.5</ele>
        <time>2022-03-16T13:43:55Z</time>
      </trkpt>
      <trkpt lat="43.30264" lon="5.68024">
        <ele>718.3</ele>
        <time>2022-03-16T13:44:05Z</time>
      </trkpt>
      <trkpt lat="43.30263" lon="5.68018">
        <ele>717.7</ele>
        <time>2022-03-16T13:44:15Z</time>
      </trkpt>
      <trkpt lat="43.30262" lon="5.68011">
        <ele>717.4</ele>
        <time>2022-03-16T13:44:25Z</time>
      </trkpt>
      <trkpt lat="43.30263" lon="5.68005">
        <ele>717.1</ele>
        <time>2022-03-16T13:44:41Z</time>
      </trkpt>
      <trkpt lat="43.30267" lon="5.68007">
        <ele>716.5</ele>
        <time>2022-03-16T13:45:37Z</time>
      </trkpt>
      <trkpt lat="43.30271" lon="5.68011">
        <ele>717</ele>
        <time>2022-03-16T13:46:51Z</time>
      </trkpt>
      <trkpt lat="43.30276" lon="5.68012">
        <ele>717</ele>
        <time>2022-03-16T13:47:01Z</time>
      </trkpt>
      <trkpt lat="43.3027" lon="5.6801">
        <ele>716.8</ele>
        <time>2022-03-16T13:47:37Z</time>
      </trkpt>
      <trkpt lat="43.30266" lon="5.68007">
        <ele>716.8</ele>
        <time>2022-03-16T13:49:21Z</time>
      </trkpt>
      <trkpt lat="43.30268" lon="5.68014">
        <ele>717.5</ele>
        <time>2022-03-16T13:52:19Z</time>
      </trkpt>
      <trkpt lat="43.3027" lon="5.68019">
        <ele>718.5</ele>
        <time>2022-03-16T13:52:29Z</time>
      </trkpt>
      <trkpt lat="43.30267" lon="5.68024">
        <ele>718.9</ele>
        <time>2022-03-16T13:52:39Z</time>
      </trkpt>
      <trkpt lat="43.30262" lon="5.68026">
        <ele>718</ele>
        <time>2022-03-16T13:52:45Z</time>
      </trkpt>
      <trkpt lat="43.30258" lon="5.68026">
        <ele>717</ele>
        <time>2022-03-16T13:52:57Z</time>
      </trkpt>
      <trkpt lat="43.30254" lon="5.6803">
        <ele>715.6</ele>
        <time>2022-03-16T13:53:07Z</time>
      </trkpt>
      <trkpt lat="43.30249" lon="5.68031">
        <ele>714.3</ele>
        <time>2022-03-16T13:53:23Z</time>
      </trkpt>
      <trkpt lat="43.30245" lon="5.68036">
        <ele>712.5</ele>
        <time>2022-03-16T13:53:35Z</time>
      </trkpt>
      <trkpt lat="43.30244" lon="5.68042">
        <ele>711.2</ele>
        <time>2022-03-16T13:53:45Z</time>
      </trkpt>
      <trkpt lat="43.3024" lon="5.68047">
        <ele>709.7</ele>
        <time>2022-03-16T13:53:53Z</time>
      </trkpt>
      <trkpt lat="43.30236" lon="5.68053">
        <ele>707.9</ele>
        <time>2022-03-16T13:54:03Z</time>
      </trkpt>
      <trkpt lat="43.30234" lon="5.68059">
        <ele>706.8</ele>
        <time>2022-03-16T13:54:09Z</time>
      </trkpt>
      <trkpt lat="43.30234" lon="5.68065">
        <ele>706.4</ele>
        <time>2022-03-16T13:54:15Z</time>
      </trkpt>
      <trkpt lat="43.30233" lon="5.68072">
        <ele>705.6</ele>
        <time>2022-03-16T13:54:23Z</time>
      </trkpt>
      <trkpt lat="43.30229" lon="5.68077">
        <ele>704.7</ele>
        <time>2022-03-16T13:54:31Z</time>
      </trkpt>
      <trkpt lat="43.30225" lon="5.68082">
        <ele>703.6</ele>
        <time>2022-03-16T13:54:37Z</time>
      </trkpt>
      <trkpt lat="43.30222" lon="5.68086">
        <ele>703.3</ele>
        <time>2022-03-16T13:54:41Z</time>
      </trkpt>
      <trkpt lat="43.30219" lon="5.68091">
        <ele>704</ele>
        <time>2022-03-16T13:54:53Z</time>
      </trkpt>
      <trkpt lat="43.30218" lon="5.68083">
        <ele>702.7</ele>
        <time>2022-03-16T13:55:03Z</time>
      </trkpt>
      <trkpt lat="43.30213" lon="5.6808">
        <ele>702.3</ele>
        <time>2022-03-16T13:55:09Z</time>
      </trkpt>
      <trkpt lat="43.30209" lon="5.68077">
        <ele>701.9</ele>
        <time>2022-03-16T13:55:15Z</time>
      </trkpt>
      <trkpt lat="43.30203" lon="5.68073">
        <ele>701.2</ele>
        <time>2022-03-16T13:55:21Z</time>
      </trkpt>
      <trkpt lat="43.30198" lon="5.68069">
        <ele>700.4</ele>
        <time>2022-03-16T13:55:25Z</time>
      </trkpt>
      <trkpt lat="43.30194" lon="5.68065">
        <ele>699.7</ele>
        <time>2022-03-16T13:55:29Z</time>
      </trkpt>
      <trkpt lat="43.3019" lon="5.6806">
        <ele>699.1</ele>
        <time>2022-03-16T13:55:33Z</time>
      </trkpt>
      <trkpt lat="43.30185" lon="5.68057">
        <ele>698.5</ele>
        <time>2022-03-16T13:55:41Z</time>
      </trkpt>
      <trkpt lat="43.3018" lon="5.68058">
        <ele>698.3</ele>
        <time>2022-03-16T13:55:45Z</time>
      </trkpt>
      <trkpt lat="43.30174" lon="5.6806">
        <ele>698.2</ele>
        <time>2022-03-16T13:55:49Z</time>
      </trkpt>
      <trkpt lat="43.30168" lon="5.68062">
        <ele>698.1</ele>
        <time>2022-03-16T13:55:55Z</time>
      </trkpt>
      <trkpt lat="43.30162" lon="5.68062">
        <ele>697.7</ele>
        <time>2022-03-16T13:56:01Z</time>
      </trkpt>
      <trkpt lat="43.30157" lon="5.68061">
        <ele>697.1</ele>
        <time>2022-03-16T13:56:05Z</time>
      </trkpt>
      <trkpt lat="43.30149" lon="5.6806">
        <ele>696.4</ele>
        <time>2022-03-16T13:56:11Z</time>
      </trkpt>
      <trkpt lat="43.30144" lon="5.6806">
        <ele>695.9</ele>
        <time>2022-03-16T13:56:15Z</time>
      </trkpt>
      <trkpt lat="43.30139" lon="5.68058">
        <ele>695.3</ele>
        <time>2022-03-16T13:56:21Z</time>
      </trkpt>
      <trkpt lat="43.30133" lon="5.68058">
        <ele>696</ele>
        <time>2022-03-16T13:57:23Z</time>
      </trkpt>
      <trkpt lat="43.30128" lon="5.68058">
        <ele>696.7</ele>
        <time>2022-03-16T13:57:31Z</time>
      </trkpt>
      <trkpt lat="43.30123" lon="5.68058">
        <ele>697.4</ele>
        <time>2022-03-16T13:57:37Z</time>
      </trkpt>
      <trkpt lat="43.30117" lon="5.68057">
        <ele>698.1</ele>
        <time>2022-03-16T13:57:45Z</time>
      </trkpt>
      <trkpt lat="43.30112" lon="5.68055">
        <ele>698.9</ele>
        <time>2022-03-16T13:57:53Z</time>
      </trkpt>
      <trkpt lat="43.30108" lon="5.68051">
        <ele>699.5</ele>
        <time>2022-03-16T13:57:59Z</time>
      </trkpt>
      <trkpt lat="43.30103" lon="5.68049">
        <ele>700.3</ele>
        <time>2022-03-16T13:58:07Z</time>
      </trkpt>
      <trkpt lat="43.30099" lon="5.68046">
        <ele>701.2</ele>
        <time>2022-03-16T13:58:15Z</time>
      </trkpt>
      <trkpt lat="43.30094" lon="5.68043">
        <ele>702.1</ele>
        <time>2022-03-16T13:58:21Z</time>
      </trkpt>
      <trkpt lat="43.30089" lon="5.68042">
        <ele>703.3</ele>
        <time>2022-03-16T13:58:29Z</time>
      </trkpt>
      <trkpt lat="43.30084" lon="5.68041">
        <ele>704.3</ele>
        <time>2022-03-16T13:58:37Z</time>
      </trkpt>
      <trkpt lat="43.30079" lon="5.68042">
        <ele>705.4</ele>
        <time>2022-03-16T13:58:45Z</time>
      </trkpt>
      <trkpt lat="43.30074" lon="5.68042">
        <ele>706.6</ele>
        <time>2022-03-16T13:58:53Z</time>
      </trkpt>
      <trkpt lat="43.30068" lon="5.68041">
        <ele>707.8</ele>
        <time>2022-03-16T13:59:01Z</time>
      </trkpt>
      <trkpt lat="43.30063" lon="5.68042">
        <ele>709</ele>
        <time>2022-03-16T13:59:09Z</time>
      </trkpt>
      <trkpt lat="43.30058" lon="5.68038">
        <ele>710.2</ele>
        <time>2022-03-16T13:59:19Z</time>
      </trkpt>
      <trkpt lat="43.30054" lon="5.68034">
        <ele>711.1</ele>
        <time>2022-03-16T13:59:25Z</time>
      </trkpt>
      <trkpt lat="43.30052" lon="5.68028">
        <ele>711.7</ele>
        <time>2022-03-16T13:59:33Z</time>
      </trkpt>
      <trkpt lat="43.30049" lon="5.68023">
        <ele>712.4</ele>
        <time>2022-03-16T13:59:41Z</time>
      </trkpt>
      <trkpt lat="43.30045" lon="5.68018">
        <ele>712.9</ele>
        <time>2022-03-16T13:59:49Z</time>
      </trkpt>
      <trkpt lat="43.30049" lon="5.68014">
        <ele>712.1</ele>
        <time>2022-03-16T14:00:05Z</time>
      </trkpt>
      <trkpt lat="43.30045" lon="5.68012">
        <ele>712.8</ele>
        <time>2022-03-16T14:00:31Z</time>
      </trkpt>
      <trkpt lat="43.30042" lon="5.68006">
        <ele>713.2</ele>
        <time>2022-03-16T14:00:41Z</time>
      </trkpt>
      <trkpt lat="43.30037" lon="5.68001">
        <ele>713.7</ele>
        <time>2022-03-16T14:00:47Z</time>
      </trkpt>
      <trkpt lat="43.30034" lon="5.67997">
        <ele>714</ele>
        <time>2022-03-16T14:00:51Z</time>
      </trkpt>
      <trkpt lat="43.3003" lon="5.67993">
        <ele>714.5</ele>
        <time>2022-03-16T14:00:57Z</time>
      </trkpt>
      <trkpt lat="43.30025" lon="5.6799">
        <ele>715</ele>
        <time>2022-03-16T14:01:03Z</time>
      </trkpt>
      <trkpt lat="43.30021" lon="5.67985">
        <ele>715.4</ele>
        <time>2022-03-16T14:01:09Z</time>
      </trkpt>
      <trkpt lat="43.30018" lon="5.67978">
        <ele>715.7</ele>
        <time>2022-03-16T14:01:15Z</time>
      </trkpt>
      <trkpt lat="43.30013" lon="5.67973">
        <ele>716.1</ele>
        <time>2022-03-16T14:01:21Z</time>
      </trkpt>
      <trkpt lat="43.3001" lon="5.67965">
        <ele>716</ele>
        <time>2022-03-16T14:01:27Z</time>
      </trkpt>
      <trkpt lat="43.30007" lon="5.67958">
        <ele>716</ele>
        <time>2022-03-16T14:01:33Z</time>
      </trkpt>
      <trkpt lat="43.30004" lon="5.67953">
        <ele>716</ele>
        <time>2022-03-16T14:01:37Z</time>
      </trkpt>
      <trkpt lat="43.30002" lon="5.67944">
        <ele>715.7</ele>
        <time>2022-03-16T14:01:43Z</time>
      </trkpt>
      <trkpt lat="43.29999" lon="5.67937">
        <ele>715.6</ele>
        <time>2022-03-16T14:01:49Z</time>
      </trkpt>
      <trkpt lat="43.29996" lon="5.6793">
        <ele>715.6</ele>
        <time>2022-03-16T14:01:57Z</time>
      </trkpt>
      <trkpt lat="43.29991" lon="5.67925">
        <ele>716</ele>
        <time>2022-03-16T14:02:07Z</time>
      </trkpt>
      <trkpt lat="43.29987" lon="5.67922">
        <ele>716.3</ele>
        <time>2022-03-16T14:02:11Z</time>
      </trkpt>
      <trkpt lat="43.29983" lon="5.67916">
        <ele>716.4</ele>
        <time>2022-03-16T14:02:17Z</time>
      </trkpt>
      <trkpt lat="43.2998" lon="5.67908">
        <ele>716.3</ele>
        <time>2022-03-16T14:02:23Z</time>
      </trkpt>
      <trkpt lat="43.29978" lon="5.67899">
        <ele>715.9</ele>
        <time>2022-03-16T14:02:29Z</time>
      </trkpt>
      <trkpt lat="43.29977" lon="5.67893">
        <ele>715.6</ele>
        <time>2022-03-16T14:02:35Z</time>
      </trkpt>
      <trkpt lat="43.29974" lon="5.67889">
        <ele>715.8</ele>
        <time>2022-03-16T14:03:27Z</time>
      </trkpt>
      <trkpt lat="43.29969" lon="5.67886">
        <ele>715.6</ele>
        <time>2022-03-16T14:03:45Z</time>
      </trkpt>
      <trkpt lat="43.29964" lon="5.67881">
        <ele>714.9</ele>
        <time>2022-03-16T14:03:59Z</time>
      </trkpt>
      <trkpt lat="43.29959" lon="5.67877">
        <ele>714.1</ele>
        <time>2022-03-16T14:04:11Z</time>
      </trkpt>
      <trkpt lat="43.29955" lon="5.67873">
        <ele>713.2</ele>
        <time>2022-03-16T14:04:23Z</time>
      </trkpt>
      <trkpt lat="43.29952" lon="5.67869">
        <ele>712.3</ele>
        <time>2022-03-16T14:04:31Z</time>
      </trkpt>
      <trkpt lat="43.29947" lon="5.67867">
        <ele>711.3</ele>
        <time>2022-03-16T14:04:39Z</time>
      </trkpt>
      <trkpt lat="43.29942" lon="5.67862">
        <ele>709.9</ele>
        <time>2022-03-16T14:04:47Z</time>
      </trkpt>
      <trkpt lat="43.29941" lon="5.67856">
        <ele>709</ele>
        <time>2022-03-16T14:04:57Z</time>
      </trkpt>
      <trkpt lat="43.29938" lon="5.67851">
        <ele>707.9</ele>
        <time>2022-03-16T14:05:05Z</time>
      </trkpt>
      <trkpt lat="43.29935" lon="5.67845">
        <ele>706.7</ele>
        <time>2022-03-16T14:05:13Z</time>
      </trkpt>
      <trkpt lat="43.29932" lon="5.6784">
        <ele>705.4</ele>
        <time>2022-03-16T14:05:23Z</time>
      </trkpt>
      <trkpt lat="43.29929" lon="5.67835">
        <ele>703.9</ele>
        <time>2022-03-16T14:05:29Z</time>
      </trkpt>
      <trkpt lat="43.2993" lon="5.67828">
        <ele>703.3</ele>
        <time>2022-03-16T14:05:43Z</time>
      </trkpt>
      <trkpt lat="43.2993" lon="5.67822">
        <ele>702.5</ele>
        <time>2022-03-16T14:05:59Z</time>
      </trkpt>
      <trkpt lat="43.29927" lon="5.67816">
        <ele>701</ele>
        <time>2022-03-16T14:06:11Z</time>
      </trkpt>
      <trkpt lat="43.29926" lon="5.67809">
        <ele>699.7</ele>
        <time>2022-03-16T14:06:21Z</time>
      </trkpt>
      <trkpt lat="43.29924" lon="5.67803">
        <ele>698.3</ele>
        <time>2022-03-16T14:06:27Z</time>
      </trkpt>
      <trkpt lat="43.29922" lon="5.67797">
        <ele>697.1</ele>
        <time>2022-03-16T14:06:33Z</time>
      </trkpt>
      <trkpt lat="43.29921" lon="5.67791">
        <ele>696.1</ele>
        <time>2022-03-16T14:06:39Z</time>
      </trkpt>
      <trkpt lat="43.29917" lon="5.67784">
        <ele>693.9</ele>
        <time>2022-03-16T14:06:47Z</time>
      </trkpt>
      <trkpt lat="43.29913" lon="5.67779">
        <ele>692.1</ele>
        <time>2022-03-16T14:06:53Z</time>
      </trkpt>
      <trkpt lat="43.2991" lon="5.67773">
        <ele>691.3</ele>
        <time>2022-03-16T14:06:59Z</time>
      </trkpt>
      <trkpt lat="43.29907" lon="5.67766">
        <ele>690.7</ele>
        <time>2022-03-16T14:07:07Z</time>
      </trkpt>
      <trkpt lat="43.29903" lon="5.67761">
        <ele>689.5</ele>
        <time>2022-03-16T14:07:17Z</time>
      </trkpt>
      <trkpt lat="43.29899" lon="5.67757">
        <ele>688.4</ele>
        <time>2022-03-16T14:07:23Z</time>
      </trkpt>
      <trkpt lat="43.29896" lon="5.67752">
        <ele>687.2</ele>
        <time>2022-03-16T14:07:29Z</time>
      </trkpt>
      <trkpt lat="43.29893" lon="5.67747">
        <ele>686.4</ele>
        <time>2022-03-16T14:07:35Z</time>
      </trkpt>
      <trkpt lat="43.29889" lon="5.67748">
        <ele>684.9</ele>
        <time>2022-03-16T14:07:45Z</time>
      </trkpt>
      <trkpt lat="43.29885" lon="5.67752">
        <ele>684.3</ele>
        <time>2022-03-16T14:07:57Z</time>
      </trkpt>
      <trkpt lat="43.29883" lon="5.67758">
        <ele>684.3</ele>
        <time>2022-03-16T14:08:11Z</time>
      </trkpt>
      <trkpt lat="43.29879" lon="5.67756">
        <ele>683.4</ele>
        <time>2022-03-16T14:08:21Z</time>
      </trkpt>
      <trkpt lat="43.29873" lon="5.67753">
        <ele>682.3</ele>
        <time>2022-03-16T14:08:31Z</time>
      </trkpt>
      <trkpt lat="43.29871" lon="5.67747">
        <ele>681.3</ele>
        <time>2022-03-16T14:08:41Z</time>
      </trkpt>
      <trkpt lat="43.29869" lon="5.6774">
        <ele>680</ele>
        <time>2022-03-16T14:08:49Z</time>
      </trkpt>
      <trkpt lat="43.29867" lon="5.67734">
        <ele>678.2</ele>
        <time>2022-03-16T14:08:59Z</time>
      </trkpt>
      <trkpt lat="43.29864" lon="5.67728">
        <ele>676.1</ele>
        <time>2022-03-16T14:09:07Z</time>
      </trkpt>
      <trkpt lat="43.29861" lon="5.67723">
        <ele>674.1</ele>
        <time>2022-03-16T14:09:13Z</time>
      </trkpt>
      <trkpt lat="43.29857" lon="5.67719">
        <ele>673.9</ele>
        <time>2022-03-16T14:09:21Z</time>
      </trkpt>
      <trkpt lat="43.29853" lon="5.67714">
        <ele>673.7</ele>
        <time>2022-03-16T14:09:29Z</time>
      </trkpt>
      <trkpt lat="43.2985" lon="5.67707">
        <ele>673.2</ele>
        <time>2022-03-16T14:09:39Z</time>
      </trkpt>
      <trkpt lat="43.29847" lon="5.67701">
        <ele>672.4</ele>
        <time>2022-03-16T14:09:47Z</time>
      </trkpt>
      <trkpt lat="43.29844" lon="5.67695">
        <ele>671.7</ele>
        <time>2022-03-16T14:09:55Z</time>
      </trkpt>
      <trkpt lat="43.29842" lon="5.6769">
        <ele>670.5</ele>
        <time>2022-03-16T14:10:03Z</time>
      </trkpt>
      <trkpt lat="43.29838" lon="5.67686">
        <ele>669</ele>
        <time>2022-03-16T14:10:11Z</time>
      </trkpt>
      <trkpt lat="43.29834" lon="5.67682">
        <ele>666.8</ele>
        <time>2022-03-16T14:10:19Z</time>
      </trkpt>
      <trkpt lat="43.29828" lon="5.67678">
        <ele>665.2</ele>
        <time>2022-03-16T14:10:25Z</time>
      </trkpt>
      <trkpt lat="43.29824" lon="5.67674">
        <ele>663.9</ele>
        <time>2022-03-16T14:10:31Z</time>
      </trkpt>
      <trkpt lat="43.29818" lon="5.67671">
        <ele>663.1</ele>
        <time>2022-03-16T14:10:37Z</time>
      </trkpt>
      <trkpt lat="43.29813" lon="5.6767">
        <ele>662.5</ele>
        <time>2022-03-16T14:10:45Z</time>
      </trkpt>
      <trkpt lat="43.29809" lon="5.67666">
        <ele>662</ele>
        <time>2022-03-16T14:10:55Z</time>
      </trkpt>
      <trkpt lat="43.29805" lon="5.67661">
        <ele>660.7</ele>
        <time>2022-03-16T14:11:05Z</time>
      </trkpt>
      <trkpt lat="43.29801" lon="5.6766">
        <ele>659.2</ele>
        <time>2022-03-16T14:11:17Z</time>
      </trkpt>
      <trkpt lat="43.29796" lon="5.67658">
        <ele>657.7</ele>
        <time>2022-03-16T14:11:33Z</time>
      </trkpt>
      <trkpt lat="43.2979" lon="5.67661">
        <ele>656.5</ele>
        <time>2022-03-16T14:11:43Z</time>
      </trkpt>
      <trkpt lat="43.29785" lon="5.67665">
        <ele>655.3</ele>
        <time>2022-03-16T14:12:01Z</time>
      </trkpt>
      <trkpt lat="43.29781" lon="5.67666">
        <ele>653.9</ele>
        <time>2022-03-16T14:12:07Z</time>
      </trkpt>
      <trkpt lat="43.29776" lon="5.67665">
        <ele>652.5</ele>
        <time>2022-03-16T14:12:13Z</time>
      </trkpt>
      <trkpt lat="43.29771" lon="5.67663">
        <ele>651.4</ele>
        <time>2022-03-16T14:12:19Z</time>
      </trkpt>
      <trkpt lat="43.29766" lon="5.67663">
        <ele>650.4</ele>
        <time>2022-03-16T14:12:29Z</time>
      </trkpt>
      <trkpt lat="43.29764" lon="5.67669">
        <ele>649.9</ele>
        <time>2022-03-16T14:12:45Z</time>
      </trkpt>
      <trkpt lat="43.29758" lon="5.67671">
        <ele>648.7</ele>
        <time>2022-03-16T14:12:55Z</time>
      </trkpt>
      <trkpt lat="43.29755" lon="5.67676">
        <ele>647.8</ele>
        <time>2022-03-16T14:13:03Z</time>
      </trkpt>
      <trkpt lat="43.29752" lon="5.67683">
        <ele>646.9</ele>
        <time>2022-03-16T14:13:11Z</time>
      </trkpt>
      <trkpt lat="43.29752" lon="5.6769">
        <ele>646.6</ele>
        <time>2022-03-16T14:13:19Z</time>
      </trkpt>
      <trkpt lat="43.29752" lon="5.67698">
        <ele>646.3</ele>
        <time>2022-03-16T14:13:27Z</time>
      </trkpt>
      <trkpt lat="43.2975" lon="5.67704">
        <ele>645.3</ele>
        <time>2022-03-16T14:13:33Z</time>
      </trkpt>
      <trkpt lat="43.29747" lon="5.67711">
        <ele>644.3</ele>
        <time>2022-03-16T14:13:41Z</time>
      </trkpt>
      <trkpt lat="43.29743" lon="5.67717">
        <ele>643.3</ele>
        <time>2022-03-16T14:13:51Z</time>
      </trkpt>
      <trkpt lat="43.29741" lon="5.67723">
        <ele>642.8</ele>
        <time>2022-03-16T14:13:57Z</time>
      </trkpt>
      <trkpt lat="43.29738" lon="5.67728">
        <ele>643</ele>
        <time>2022-03-16T14:14:03Z</time>
      </trkpt>
      <trkpt lat="43.29733" lon="5.67732">
        <ele>642.8</ele>
        <time>2022-03-16T14:14:09Z</time>
      </trkpt>
      <trkpt lat="43.29728" lon="5.67736">
        <ele>642.5</ele>
        <time>2022-03-16T14:14:15Z</time>
      </trkpt>
      <trkpt lat="43.29724" lon="5.67741">
        <ele>642.3</ele>
        <time>2022-03-16T14:14:21Z</time>
      </trkpt>
      <trkpt lat="43.2972" lon="5.67744">
        <ele>642</ele>
        <time>2022-03-16T14:14:27Z</time>
      </trkpt>
      <trkpt lat="43.29716" lon="5.67748">
        <ele>641.7</ele>
        <time>2022-03-16T14:14:33Z</time>
      </trkpt>
      <trkpt lat="43.29713" lon="5.67754">
        <ele>641.9</ele>
        <time>2022-03-16T14:14:39Z</time>
      </trkpt>
      <trkpt lat="43.2971" lon="5.6776">
        <ele>642.3</ele>
        <time>2022-03-16T14:14:45Z</time>
      </trkpt>
      <trkpt lat="43.29708" lon="5.67767">
        <ele>642.8</ele>
        <time>2022-03-16T14:14:51Z</time>
      </trkpt>
      <trkpt lat="43.29705" lon="5.67774">
        <ele>643.2</ele>
        <time>2022-03-16T14:14:57Z</time>
      </trkpt>
      <trkpt lat="43.29701" lon="5.67781">
        <ele>643.1</ele>
        <time>2022-03-16T14:15:03Z</time>
      </trkpt>
      <trkpt lat="43.29698" lon="5.67788">
        <ele>642.9</ele>
        <time>2022-03-16T14:15:09Z</time>
      </trkpt>
      <trkpt lat="43.29695" lon="5.67794">
        <ele>642.8</ele>
        <time>2022-03-16T14:15:15Z</time>
      </trkpt>
      <trkpt lat="43.29691" lon="5.67803">
        <ele>643.2</ele>
        <time>2022-03-16T14:15:21Z</time>
      </trkpt>
      <trkpt lat="43.29689" lon="5.67811">
        <ele>643.4</ele>
        <time>2022-03-16T14:15:27Z</time>
      </trkpt>
      <trkpt lat="43.29686" lon="5.67818">
        <ele>643.2</ele>
        <time>2022-03-16T14:15:33Z</time>
      </trkpt>
      <trkpt lat="43.29682" lon="5.67822">
        <ele>642.9</ele>
        <time>2022-03-16T14:15:37Z</time>
      </trkpt>
      <trkpt lat="43.29676" lon="5.67825">
        <ele>642.1</ele>
        <time>2022-03-16T14:15:43Z</time>
      </trkpt>
      <trkpt lat="43.2967" lon="5.67825">
        <ele>641.1</ele>
        <time>2022-03-16T14:15:49Z</time>
      </trkpt>
      <trkpt lat="43.29664" lon="5.67827">
        <ele>640.7</ele>
        <time>2022-03-16T14:15:55Z</time>
      </trkpt>
      <trkpt lat="43.29658" lon="5.67828">
        <ele>640.5</ele>
        <time>2022-03-16T14:16:01Z</time>
      </trkpt>
      <trkpt lat="43.29654" lon="5.6783">
        <ele>640.4</ele>
        <time>2022-03-16T14:16:39Z</time>
      </trkpt>
      <trkpt lat="43.29648" lon="5.67828">
        <ele>640.2</ele>
        <time>2022-03-16T14:17:07Z</time>
      </trkpt>
      <trkpt lat="43.29644" lon="5.67829">
        <ele>640</ele>
        <time>2022-03-16T14:17:13Z</time>
      </trkpt>
      <trkpt lat="43.29639" lon="5.67825">
        <ele>639.7</ele>
        <time>2022-03-16T14:17:17Z</time>
      </trkpt>
      <trkpt lat="43.29633" lon="5.67823">
        <ele>639.8</ele>
        <time>2022-03-16T14:17:23Z</time>
      </trkpt>
      <trkpt lat="43.29628" lon="5.67822">
        <ele>640</ele>
        <time>2022-03-16T14:17:27Z</time>
      </trkpt>
      <trkpt lat="43.29623" lon="5.67822">
        <ele>640.1</ele>
        <time>2022-03-16T14:17:31Z</time>
      </trkpt>
      <trkpt lat="43.29617" lon="5.67821">
        <ele>640.3</ele>
        <time>2022-03-16T14:17:37Z</time>
      </trkpt>
      <trkpt lat="43.29611" lon="5.67818">
        <ele>640.5</ele>
        <time>2022-03-16T14:17:43Z</time>
      </trkpt>
      <trkpt lat="43.29606" lon="5.67816">
        <ele>640.4</ele>
        <time>2022-03-16T14:17:47Z</time>
      </trkpt>
      <trkpt lat="43.29602" lon="5.67815">
        <ele>640.3</ele>
        <time>2022-03-16T14:17:51Z</time>
      </trkpt>
      <trkpt lat="43.29597" lon="5.67814">
        <ele>640.3</ele>
        <time>2022-03-16T14:17:55Z</time>
      </trkpt>
      <trkpt lat="43.29591" lon="5.67811">
        <ele>640.2</ele>
        <time>2022-03-16T14:18:01Z</time>
      </trkpt>
      <trkpt lat="43.29585" lon="5.67807">
        <ele>640.1</ele>
        <time>2022-03-16T14:18:07Z</time>
      </trkpt>
      <trkpt lat="43.29581" lon="5.67804">
        <ele>639.7</ele>
        <time>2022-03-16T14:18:13Z</time>
      </trkpt>
      <trkpt lat="43.29574" lon="5.67801">
        <ele>639</ele>
        <time>2022-03-16T14:18:19Z</time>
      </trkpt>
      <trkpt lat="43.29569" lon="5.67802">
        <ele>638.7</ele>
        <time>2022-03-16T14:18:23Z</time>
      </trkpt>
      <trkpt lat="43.29565" lon="5.67803">
        <ele>638.5</ele>
        <time>2022-03-16T14:18:27Z</time>
      </trkpt>
      <trkpt lat="43.29559" lon="5.67804">
        <ele>638.1</ele>
        <time>2022-03-16T14:18:33Z</time>
      </trkpt>
      <trkpt lat="43.29553" lon="5.67804">
        <ele>637.5</ele>
        <time>2022-03-16T14:18:41Z</time>
      </trkpt>
      <trkpt lat="43.29547" lon="5.67804">
        <ele>637</ele>
        <time>2022-03-16T14:18:47Z</time>
      </trkpt>
      <trkpt lat="43.29541" lon="5.67803">
        <ele>636.3</ele>
        <time>2022-03-16T14:18:55Z</time>
      </trkpt>
      <trkpt lat="43.29536" lon="5.67802">
        <ele>635.6</ele>
        <time>2022-03-16T14:19:03Z</time>
      </trkpt>
      <trkpt lat="43.29531" lon="5.67799">
        <ele>634.9</ele>
        <time>2022-03-16T14:19:11Z</time>
      </trkpt>
      <trkpt lat="43.29531" lon="5.67791">
        <ele>634.3</ele>
        <time>2022-03-16T14:19:19Z</time>
      </trkpt>
      <trkpt lat="43.2953" lon="5.67783">
        <ele>633.6</ele>
        <time>2022-03-16T14:19:45Z</time>
      </trkpt>
      <trkpt lat="43.29527" lon="5.67777">
        <ele>632.9</ele>
        <time>2022-03-16T14:19:55Z</time>
      </trkpt>
      <trkpt lat="43.29523" lon="5.67774">
        <ele>632.5</ele>
        <time>2022-03-16T14:20:01Z</time>
      </trkpt>
      <trkpt lat="43.29518" lon="5.67772">
        <ele>632.1</ele>
        <time>2022-03-16T14:20:07Z</time>
      </trkpt>
      <trkpt lat="43.29513" lon="5.67769">
        <ele>631.6</ele>
        <time>2022-03-16T14:20:15Z</time>
      </trkpt>
      <trkpt lat="43.29507" lon="5.67768">
        <ele>631.1</ele>
        <time>2022-03-16T14:20:21Z</time>
      </trkpt>
      <trkpt lat="43.29501" lon="5.67767">
        <ele>630.7</ele>
        <time>2022-03-16T14:20:27Z</time>
      </trkpt>
      <trkpt lat="43.29495" lon="5.6777">
        <ele>630.2</ele>
        <time>2022-03-16T14:20:33Z</time>
      </trkpt>
      <trkpt lat="43.2949" lon="5.6777">
        <ele>629.7</ele>
        <time>2022-03-16T14:20:39Z</time>
      </trkpt>
      <trkpt lat="43.29485" lon="5.6777">
        <ele>629.1</ele>
        <time>2022-03-16T14:20:45Z</time>
      </trkpt>
      <trkpt lat="43.29479" lon="5.67771">
        <ele>628.5</ele>
        <time>2022-03-16T14:20:51Z</time>
      </trkpt>
      <trkpt lat="43.29474" lon="5.67773">
        <ele>628</ele>
        <time>2022-03-16T14:20:57Z</time>
      </trkpt>
      <trkpt lat="43.29469" lon="5.67774">
        <ele>627.3</ele>
        <time>2022-03-16T14:21:03Z</time>
      </trkpt>
      <trkpt lat="43.29463" lon="5.67774">
        <ele>626.6</ele>
        <time>2022-03-16T14:21:11Z</time>
      </trkpt>
      <trkpt lat="43.29458" lon="5.67775">
        <ele>625.8</ele>
        <time>2022-03-16T14:21:19Z</time>
      </trkpt>
      <trkpt lat="43.29453" lon="5.67774">
        <ele>624.9</ele>
        <time>2022-03-16T14:21:29Z</time>
      </trkpt>
      <trkpt lat="43.29447" lon="5.67772">
        <ele>624</ele>
        <time>2022-03-16T14:21:37Z</time>
      </trkpt>
      <trkpt lat="43.29443" lon="5.6777">
        <ele>623.2</ele>
        <time>2022-03-16T14:21:43Z</time>
      </trkpt>
      <trkpt lat="43.29438" lon="5.67768">
        <ele>622.3</ele>
        <time>2022-03-16T14:21:49Z</time>
      </trkpt>
      <trkpt lat="43.29433" lon="5.67768">
        <ele>621.5</ele>
        <time>2022-03-16T14:21:55Z</time>
      </trkpt>
      <trkpt lat="43.29428" lon="5.67768">
        <ele>620.7</ele>
        <time>2022-03-16T14:22:03Z</time>
      </trkpt>
      <trkpt lat="43.29423" lon="5.67767">
        <ele>619.8</ele>
        <time>2022-03-16T14:22:11Z</time>
      </trkpt>
      <trkpt lat="43.29419" lon="5.67764">
        <ele>618.8</ele>
        <time>2022-03-16T14:22:19Z</time>
      </trkpt>
      <trkpt lat="43.29414" lon="5.6776">
        <ele>617.5</ele>
        <time>2022-03-16T14:22:29Z</time>
      </trkpt>
      <trkpt lat="43.2941" lon="5.67758">
        <ele>616.2</ele>
        <time>2022-03-16T14:22:37Z</time>
      </trkpt>
      <trkpt lat="43.29404" lon="5.67757">
        <ele>614.8</ele>
        <time>2022-03-16T14:22:47Z</time>
      </trkpt>
      <trkpt lat="43.29399" lon="5.67757">
        <ele>613.6</ele>
        <time>2022-03-16T14:22:59Z</time>
      </trkpt>
      <trkpt lat="43.29394" lon="5.67756">
        <ele>612.3</ele>
        <time>2022-03-16T14:23:13Z</time>
      </trkpt>
      <trkpt lat="43.29389" lon="5.67754">
        <ele>610.8</ele>
        <time>2022-03-16T14:23:21Z</time>
      </trkpt>
      <trkpt lat="43.29385" lon="5.67753">
        <ele>609.6</ele>
        <time>2022-03-16T14:23:27Z</time>
      </trkpt>
      <trkpt lat="43.2938" lon="5.67752">
        <ele>608.3</ele>
        <time>2022-03-16T14:23:35Z</time>
      </trkpt>
      <trkpt lat="43.29375" lon="5.6775">
        <ele>607.1</ele>
        <time>2022-03-16T14:23:43Z</time>
      </trkpt>
      <trkpt lat="43.29371" lon="5.67749">
        <ele>606</ele>
        <time>2022-03-16T14:23:51Z</time>
      </trkpt>
      <trkpt lat="43.29366" lon="5.67748">
        <ele>604.8</ele>
        <time>2022-03-16T14:23:59Z</time>
      </trkpt>
      <trkpt lat="43.2936" lon="5.67746">
        <ele>603.4</ele>
        <time>2022-03-16T14:24:07Z</time>
      </trkpt>
      <trkpt lat="43.29355" lon="5.67746">
        <ele>602.4</ele>
        <time>2022-03-16T14:24:15Z</time>
      </trkpt>
      <trkpt lat="43.2935" lon="5.67747">
        <ele>601.6</ele>
        <time>2022-03-16T14:24:25Z</time>
      </trkpt>
      <trkpt lat="43.29345" lon="5.67747">
        <ele>600.7</ele>
        <time>2022-03-16T14:24:33Z</time>
      </trkpt>
      <trkpt lat="43.29341" lon="5.67746">
        <ele>599.8</ele>
        <time>2022-03-16T14:24:41Z</time>
      </trkpt>
      <trkpt lat="43.29335" lon="5.67747">
        <ele>598.9</ele>
        <time>2022-03-16T14:24:55Z</time>
      </trkpt>
      <trkpt lat="43.2933" lon="5.67748">
        <ele>597.9</ele>
        <time>2022-03-16T14:25:03Z</time>
      </trkpt>
      <trkpt lat="43.29324" lon="5.67749">
        <ele>597</ele>
        <time>2022-03-16T14:25:13Z</time>
      </trkpt>
      <trkpt lat="43.29324" lon="5.67743">
        <ele>595.9</ele>
        <time>2022-03-16T14:25:25Z</time>
      </trkpt>
      <trkpt lat="43.29327" lon="5.67737">
        <ele>595.6</ele>
        <time>2022-03-16T14:25:35Z</time>
      </trkpt>
      <trkpt lat="43.29326" lon="5.6773">
        <ele>594.5</ele>
        <time>2022-03-16T14:25:45Z</time>
      </trkpt>
      <trkpt lat="43.29321" lon="5.67728">
        <ele>593.2</ele>
        <time>2022-03-16T14:25:51Z</time>
      </trkpt>
      <trkpt lat="43.29316" lon="5.67728">
        <ele>592</ele>
        <time>2022-03-16T14:25:59Z</time>
      </trkpt>
      <trkpt lat="43.29311" lon="5.67727">
        <ele>590.9</ele>
        <time>2022-03-16T14:26:05Z</time>
      </trkpt>
      <trkpt lat="43.29306" lon="5.67728">
        <ele>590</ele>
        <time>2022-03-16T14:26:11Z</time>
      </trkpt>
      <trkpt lat="43.29302" lon="5.67724">
        <ele>588.4</ele>
        <time>2022-03-16T14:26:19Z</time>
      </trkpt>
      <trkpt lat="43.29301" lon="5.67718">
        <ele>587.3</ele>
        <time>2022-03-16T14:26:29Z</time>
      </trkpt>
      <trkpt lat="43.29299" lon="5.67711">
        <ele>586.2</ele>
        <time>2022-03-16T14:26:39Z</time>
      </trkpt>
      <trkpt lat="43.29296" lon="5.67705">
        <ele>584.8</ele>
        <time>2022-03-16T14:26:49Z</time>
      </trkpt>
      <trkpt lat="43.29291" lon="5.67701">
        <ele>583.2</ele>
        <time>2022-03-16T14:26:59Z</time>
      </trkpt>
      <trkpt lat="43.29286" lon="5.67702">
        <ele>581.9</ele>
        <time>2022-03-16T14:27:07Z</time>
      </trkpt>
      <trkpt lat="43.29282" lon="5.67707">
        <ele>581.3</ele>
        <time>2022-03-16T14:27:13Z</time>
      </trkpt>
      <trkpt lat="43.29277" lon="5.6771">
        <ele>580.5</ele>
        <time>2022-03-16T14:27:23Z</time>
      </trkpt>
      <trkpt lat="43.29274" lon="5.67715">
        <ele>580.4</ele>
        <time>2022-03-16T14:27:33Z</time>
      </trkpt>
      <trkpt lat="43.29269" lon="5.67719">
        <ele>580</ele>
        <time>2022-03-16T14:27:41Z</time>
      </trkpt>
      <trkpt lat="43.29264" lon="5.67717">
        <ele>578.6</ele>
        <time>2022-03-16T14:27:49Z</time>
      </trkpt>
      <trkpt lat="43.29259" lon="5.67714">
        <ele>577.2</ele>
        <time>2022-03-16T14:27:55Z</time>
      </trkpt>
      <trkpt lat="43.29254" lon="5.67713">
        <ele>575.8</ele>
        <time>2022-03-16T14:28:05Z</time>
      </trkpt>
      <trkpt lat="43.29248" lon="5.67711">
        <ele>574.6</ele>
        <time>2022-03-16T14:28:11Z</time>
      </trkpt>
      <trkpt lat="43.29243" lon="5.6771">
        <ele>573.9</ele>
        <time>2022-03-16T14:28:19Z</time>
      </trkpt>
      <trkpt lat="43.29238" lon="5.67707">
        <ele>573.1</ele>
        <time>2022-03-16T14:28:25Z</time>
      </trkpt>
      <trkpt lat="43.29233" lon="5.67704">
        <ele>572.2</ele>
        <time>2022-03-16T14:28:31Z</time>
      </trkpt>
      <trkpt lat="43.29228" lon="5.677">
        <ele>571.2</ele>
        <time>2022-03-16T14:28:37Z</time>
      </trkpt>
      <trkpt lat="43.29222" lon="5.67697">
        <ele>570.4</ele>
        <time>2022-03-16T14:28:43Z</time>
      </trkpt>
      <trkpt lat="43.29217" lon="5.67697">
        <ele>569.9</ele>
        <time>2022-03-16T14:28:49Z</time>
      </trkpt>
      <trkpt lat="43.29212" lon="5.67696">
        <ele>569.2</ele>
        <time>2022-03-16T14:28:57Z</time>
      </trkpt>
      <trkpt lat="43.29206" lon="5.67696">
        <ele>568.6</ele>
        <time>2022-03-16T14:29:07Z</time>
      </trkpt>
      <trkpt lat="43.29201" lon="5.67695">
        <ele>567.8</ele>
        <time>2022-03-16T14:29:15Z</time>
      </trkpt>
      <trkpt lat="43.29196" lon="5.67693">
        <ele>566.9</ele>
        <time>2022-03-16T14:29:21Z</time>
      </trkpt>
      <trkpt lat="43.29191" lon="5.67692">
        <ele>566.2</ele>
        <time>2022-03-16T14:29:27Z</time>
      </trkpt>
      <trkpt lat="43.29186" lon="5.6769">
        <ele>565.7</ele>
        <time>2022-03-16T14:29:33Z</time>
      </trkpt>
      <trkpt lat="43.29181" lon="5.67687">
        <ele>564.8</ele>
        <time>2022-03-16T14:29:39Z</time>
      </trkpt>
      <trkpt lat="43.29177" lon="5.67685">
        <ele>564.1</ele>
        <time>2022-03-16T14:29:45Z</time>
      </trkpt>
      <trkpt lat="43.29173" lon="5.67682">
        <ele>563.2</ele>
        <time>2022-03-16T14:29:51Z</time>
      </trkpt>
      <trkpt lat="43.29169" lon="5.6768">
        <ele>562.5</ele>
        <time>2022-03-16T14:29:57Z</time>
      </trkpt>
      <trkpt lat="43.29163" lon="5.67678">
        <ele>561.6</ele>
        <time>2022-03-16T14:30:05Z</time>
      </trkpt>
      <trkpt lat="43.29157" lon="5.67676">
        <ele>561</ele>
        <time>2022-03-16T14:30:13Z</time>
      </trkpt>
      <trkpt lat="43.29152" lon="5.67675">
        <ele>560.6</ele>
        <time>2022-03-16T14:30:19Z</time>
      </trkpt>
      <trkpt lat="43.29147" lon="5.67674">
        <ele>560.1</ele>
        <time>2022-03-16T14:30:25Z</time>
      </trkpt>
      <trkpt lat="43.29141" lon="5.67671">
        <ele>559.2</ele>
        <time>2022-03-16T14:30:31Z</time>
      </trkpt>
      <trkpt lat="43.29135" lon="5.67668">
        <ele>558.3</ele>
        <time>2022-03-16T14:30:39Z</time>
      </trkpt>
      <trkpt lat="43.2913" lon="5.67666">
        <ele>557.8</ele>
        <time>2022-03-16T14:30:47Z</time>
      </trkpt>
      <trkpt lat="43.29123" lon="5.67663">
        <ele>557.2</ele>
        <time>2022-03-16T14:30:53Z</time>
      </trkpt>
      <trkpt lat="43.29118" lon="5.67661">
        <ele>556.7</ele>
        <time>2022-03-16T14:30:59Z</time>
      </trkpt>
      <trkpt lat="43.29113" lon="5.67658">
        <ele>556</ele>
        <time>2022-03-16T14:31:09Z</time>
      </trkpt>
      <trkpt lat="43.29108" lon="5.67657">
        <ele>555.8</ele>
        <time>2022-03-16T14:31:13Z</time>
      </trkpt>
      <trkpt lat="43.29104" lon="5.67655">
        <ele>555.5</ele>
        <time>2022-03-16T14:31:17Z</time>
      </trkpt>
      <trkpt lat="43.29098" lon="5.67651">
        <ele>555</ele>
        <time>2022-03-16T14:31:23Z</time>
      </trkpt>
      <trkpt lat="43.29092" lon="5.67648">
        <ele>554.7</ele>
        <time>2022-03-16T14:31:29Z</time>
      </trkpt>
      <trkpt lat="43.29088" lon="5.67643">
        <ele>554.2</ele>
        <time>2022-03-16T14:31:35Z</time>
      </trkpt>
      <trkpt lat="43.29085" lon="5.67637">
        <ele>553.6</ele>
        <time>2022-03-16T14:31:41Z</time>
      </trkpt>
      <trkpt lat="43.29082" lon="5.6763">
        <ele>552.5</ele>
        <time>2022-03-16T14:31:47Z</time>
      </trkpt>
      <trkpt lat="43.29079" lon="5.67625">
        <ele>551.4</ele>
        <time>2022-03-16T14:31:53Z</time>
      </trkpt>
      <trkpt lat="43.29074" lon="5.67621">
        <ele>550.5</ele>
        <time>2022-03-16T14:31:59Z</time>
      </trkpt>
      <trkpt lat="43.29069" lon="5.67617">
        <ele>549.8</ele>
        <time>2022-03-16T14:32:05Z</time>
      </trkpt>
      <trkpt lat="43.29064" lon="5.67614">
        <ele>549.4</ele>
        <time>2022-03-16T14:32:11Z</time>
      </trkpt>
      <trkpt lat="43.29059" lon="5.67612">
        <ele>549.1</ele>
        <time>2022-03-16T14:32:17Z</time>
      </trkpt>
      <trkpt lat="43.29054" lon="5.67608">
        <ele>548.4</ele>
        <time>2022-03-16T14:32:23Z</time>
      </trkpt>
      <trkpt lat="43.29052" lon="5.67602">
        <ele>547.4</ele>
        <time>2022-03-16T14:32:29Z</time>
      </trkpt>
      <trkpt lat="43.29049" lon="5.67596">
        <ele>546.7</ele>
        <time>2022-03-16T14:32:35Z</time>
      </trkpt>
      <trkpt lat="43.29045" lon="5.67589">
        <ele>546.4</ele>
        <time>2022-03-16T14:32:41Z</time>
      </trkpt>
      <trkpt lat="43.29047" lon="5.67583">
        <ele>546.3</ele>
        <time>2022-03-16T14:34:25Z</time>
      </trkpt>
      <trkpt lat="43.29045" lon="5.67578">
        <ele>545.8</ele>
        <time>2022-03-16T14:35:03Z</time>
      </trkpt>
      <trkpt lat="43.29042" lon="5.67571">
        <ele>545.3</ele>
        <time>2022-03-16T14:35:09Z</time>
      </trkpt>
      <trkpt lat="43.29039" lon="5.67563">
        <ele>545.1</ele>
        <time>2022-03-16T14:35:15Z</time>
      </trkpt>
      <trkpt lat="43.29036" lon="5.67556">
        <ele>545.2</ele>
        <time>2022-03-16T14:35:21Z</time>
      </trkpt>
      <trkpt lat="43.29034" lon="5.67551">
        <ele>545.5</ele>
        <time>2022-03-16T14:35:25Z</time>
      </trkpt>
      <trkpt lat="43.29031" lon="5.67543">
        <ele>545.8</ele>
        <time>2022-03-16T14:35:31Z</time>
      </trkpt>
      <trkpt lat="43.29028" lon="5.67534">
        <ele>546.1</ele>
        <time>2022-03-16T14:35:37Z</time>
      </trkpt>
      <trkpt lat="43.29027" lon="5.67528">
        <ele>546</ele>
        <time>2022-03-16T14:35:41Z</time>
      </trkpt>
      <trkpt lat="43.29026" lon="5.6752">
        <ele>546</ele>
        <time>2022-03-16T14:35:47Z</time>
      </trkpt>
      <trkpt lat="43.29026" lon="5.67513">
        <ele>546.1</ele>
        <time>2022-03-16T14:35:53Z</time>
      </trkpt>
      <trkpt lat="43.29026" lon="5.67504">
        <ele>546.3</ele>
        <time>2022-03-16T14:35:59Z</time>
      </trkpt>
      <trkpt lat="43.29025" lon="5.67496">
        <ele>546.3</ele>
        <time>2022-03-16T14:36:05Z</time>
      </trkpt>
      <trkpt lat="43.29023" lon="5.6749">
        <ele>546.6</ele>
        <time>2022-03-16T14:36:09Z</time>
      </trkpt>
      <trkpt lat="43.29018" lon="5.67486">
        <ele>547</ele>
        <time>2022-03-16T14:36:15Z</time>
      </trkpt>
      <trkpt lat="43.29015" lon="5.6748">
        <ele>547.2</ele>
        <time>2022-03-16T14:36:23Z</time>
      </trkpt>
      <trkpt lat="43.29011" lon="5.67474">
        <ele>547.3</ele>
        <time>2022-03-16T14:36:29Z</time>
      </trkpt>
      <trkpt lat="43.29007" lon="5.67468">
        <ele>546.8</ele>
        <time>2022-03-16T14:36:35Z</time>
      </trkpt>
      <trkpt lat="43.29002" lon="5.67463">
        <ele>546.4</ele>
        <time>2022-03-16T14:36:41Z</time>
      </trkpt>
      <trkpt lat="43.29" lon="5.67456">
        <ele>545.7</ele>
        <time>2022-03-16T14:36:47Z</time>
      </trkpt>
      <trkpt lat="43.29003" lon="5.6745">
        <ele>544.4</ele>
        <time>2022-03-16T14:36:53Z</time>
      </trkpt>
      <trkpt lat="43.29009" lon="5.67444">
        <ele>542.9</ele>
        <time>2022-03-16T14:36:59Z</time>
      </trkpt>
      <trkpt lat="43.29014" lon="5.67441">
        <ele>541.8</ele>
        <time>2022-03-16T14:37:05Z</time>
      </trkpt>
      <trkpt lat="43.2902" lon="5.6744">
        <ele>541</ele>
        <time>2022-03-16T14:37:13Z</time>
      </trkpt>
      <trkpt lat="43.29024" lon="5.67438">
        <ele>540</ele>
        <time>2022-03-16T14:37:19Z</time>
      </trkpt>
      <trkpt lat="43.2903" lon="5.67436">
        <ele>538.4</ele>
        <time>2022-03-16T14:37:25Z</time>
      </trkpt>
      <trkpt lat="43.29035" lon="5.67431">
        <ele>536.4</ele>
        <time>2022-03-16T14:37:33Z</time>
      </trkpt>
      <trkpt lat="43.29035" lon="5.67424">
        <ele>534.9</ele>
        <time>2022-03-16T14:37:41Z</time>
      </trkpt>
      <trkpt lat="43.29033" lon="5.67419">
        <ele>534.3</ele>
        <time>2022-03-16T14:37:53Z</time>
      </trkpt>
      <trkpt lat="43.2903" lon="5.67413">
        <ele>533.8</ele>
        <time>2022-03-16T14:38:01Z</time>
      </trkpt>
      <trkpt lat="43.29029" lon="5.67405">
        <ele>532.7</ele>
        <time>2022-03-16T14:38:09Z</time>
      </trkpt>
      <trkpt lat="43.2903" lon="5.67398">
        <ele>531.3</ele>
        <time>2022-03-16T14:38:15Z</time>
      </trkpt>
      <trkpt lat="43.29029" lon="5.6739">
        <ele>530</ele>
        <time>2022-03-16T14:38:21Z</time>
      </trkpt>
      <trkpt lat="43.29028" lon="5.67383">
        <ele>528.8</ele>
        <time>2022-03-16T14:38:25Z</time>
      </trkpt>
      <trkpt lat="43.29026" lon="5.67377">
        <ele>527.7</ele>
        <time>2022-03-16T14:38:31Z</time>
      </trkpt>
      <trkpt lat="43.29023" lon="5.67371">
        <ele>526.7</ele>
        <time>2022-03-16T14:38:37Z</time>
      </trkpt>
      <trkpt lat="43.29021" lon="5.67365">
        <ele>525.6</ele>
        <time>2022-03-16T14:38:43Z</time>
      </trkpt>
      <trkpt lat="43.29019" lon="5.67357">
        <ele>524.3</ele>
        <time>2022-03-16T14:38:49Z</time>
      </trkpt>
      <trkpt lat="43.29017" lon="5.67349">
        <ele>523.1</ele>
        <time>2022-03-16T14:38:55Z</time>
      </trkpt>
      <trkpt lat="43.29018" lon="5.67343">
        <ele>521.9</ele>
        <time>2022-03-16T14:39:01Z</time>
      </trkpt>
      <trkpt lat="43.29018" lon="5.67335">
        <ele>520.6</ele>
        <time>2022-03-16T14:39:07Z</time>
      </trkpt>
      <trkpt lat="43.29019" lon="5.67326">
        <ele>519.6</ele>
        <time>2022-03-16T14:39:13Z</time>
      </trkpt>
      <trkpt lat="43.29021" lon="5.6732">
        <ele>518.9</ele>
        <time>2022-03-16T14:39:19Z</time>
      </trkpt>
      <trkpt lat="43.29024" lon="5.67314">
        <ele>518.4</ele>
        <time>2022-03-16T14:39:27Z</time>
      </trkpt>
      <trkpt lat="43.29027" lon="5.67306">
        <ele>518</ele>
        <time>2022-03-16T14:39:33Z</time>
      </trkpt>
      <trkpt lat="43.29031" lon="5.673">
        <ele>516.9</ele>
        <time>2022-03-16T14:39:41Z</time>
      </trkpt>
      <trkpt lat="43.29034" lon="5.67295">
        <ele>515.7</ele>
        <time>2022-03-16T14:39:49Z</time>
      </trkpt>
      <trkpt lat="43.29036" lon="5.67288">
        <ele>514.8</ele>
        <time>2022-03-16T14:39:55Z</time>
      </trkpt>
      <trkpt lat="43.29038" lon="5.67282">
        <ele>513.9</ele>
        <time>2022-03-16T14:40:01Z</time>
      </trkpt>
      <trkpt lat="43.2904" lon="5.67276">
        <ele>513</ele>
        <time>2022-03-16T14:40:07Z</time>
      </trkpt>
      <trkpt lat="43.29042" lon="5.67269">
        <ele>512</ele>
        <time>2022-03-16T14:40:13Z</time>
      </trkpt>
      <trkpt lat="43.29044" lon="5.67262">
        <ele>511.2</ele>
        <time>2022-03-16T14:40:19Z</time>
      </trkpt>
      <trkpt lat="43.29045" lon="5.67256">
        <ele>510.5</ele>
        <time>2022-03-16T14:40:23Z</time>
      </trkpt>
      <trkpt lat="43.29047" lon="5.67249">
        <ele>509.9</ele>
        <time>2022-03-16T14:40:29Z</time>
      </trkpt>
      <trkpt lat="43.29049" lon="5.67243">
        <ele>509</ele>
        <time>2022-03-16T14:40:37Z</time>
      </trkpt>
      <trkpt lat="43.29052" lon="5.67237">
        <ele>508.4</ele>
        <time>2022-03-16T14:40:45Z</time>
      </trkpt>
      <trkpt lat="43.29054" lon="5.67231">
        <ele>507.8</ele>
        <time>2022-03-16T14:40:51Z</time>
      </trkpt>
      <trkpt lat="43.29055" lon="5.67223">
        <ele>507.1</ele>
        <time>2022-03-16T14:40:57Z</time>
      </trkpt>
      <trkpt lat="43.29056" lon="5.67217">
        <ele>506.4</ele>
        <time>2022-03-16T14:41:01Z</time>
      </trkpt>
      <trkpt lat="43.29058" lon="5.67208">
        <ele>505.3</ele>
        <time>2022-03-16T14:41:07Z</time>
      </trkpt>
      <trkpt lat="43.29059" lon="5.672">
        <ele>504.4</ele>
        <time>2022-03-16T14:41:13Z</time>
      </trkpt>
      <trkpt lat="43.29059" lon="5.67194">
        <ele>503.8</ele>
        <time>2022-03-16T14:41:17Z</time>
      </trkpt>
      <trkpt lat="43.2906" lon="5.67186">
        <ele>502.7</ele>
        <time>2022-03-16T14:41:35Z</time>
      </trkpt>
      <trkpt lat="43.2906" lon="5.67179">
        <ele>501.9</ele>
        <time>2022-03-16T14:41:41Z</time>
      </trkpt>
      <trkpt lat="43.29059" lon="5.67173">
        <ele>501.5</ele>
        <time>2022-03-16T14:41:49Z</time>
      </trkpt>
      <trkpt lat="43.29056" lon="5.67166">
        <ele>501.8</ele>
        <time>2022-03-16T14:41:57Z</time>
      </trkpt>
      <trkpt lat="43.29051" lon="5.67163">
        <ele>500.5</ele>
        <time>2022-03-16T14:42:03Z</time>
      </trkpt>
      <trkpt lat="43.29046" lon="5.67165">
        <ele>499.6</ele>
        <time>2022-03-16T14:42:07Z</time>
      </trkpt>
      <trkpt lat="43.29041" lon="5.67167">
        <ele>499</ele>
        <time>2022-03-16T14:42:11Z</time>
      </trkpt>
      <trkpt lat="43.29037" lon="5.67169">
        <ele>498.3</ele>
        <time>2022-03-16T14:42:15Z</time>
      </trkpt>
      <trkpt lat="43.29033" lon="5.67175">
        <ele>497.9</ele>
        <time>2022-03-16T14:42:21Z</time>
      </trkpt>
      <trkpt lat="43.29031" lon="5.67181">
        <ele>498.2</ele>
        <time>2022-03-16T14:44:29Z</time>
      </trkpt>
      <trkpt lat="43.29028" lon="5.67187">
        <ele>498.3</ele>
        <time>2022-03-16T14:44:39Z</time>
      </trkpt>
      <trkpt lat="43.29024" lon="5.67192">
        <ele>497.3</ele>
        <time>2022-03-16T14:44:45Z</time>
      </trkpt>
      <trkpt lat="43.29021" lon="5.67198">
        <ele>497.2</ele>
        <time>2022-03-16T14:44:51Z</time>
      </trkpt>
      <trkpt lat="43.29019" lon="5.67203">
        <ele>497.3</ele>
        <time>2022-03-16T14:44:59Z</time>
      </trkpt>
      <trkpt lat="43.29014" lon="5.67207">
        <ele>496.4</ele>
        <time>2022-03-16T14:45:17Z</time>
      </trkpt>
      <trkpt lat="43.29009" lon="5.67209">
        <ele>495.4</ele>
        <time>2022-03-16T14:45:21Z</time>
      </trkpt>
      <trkpt lat="43.29004" lon="5.67213">
        <ele>494.4</ele>
        <time>2022-03-16T14:45:27Z</time>
      </trkpt>
      <trkpt lat="43.29" lon="5.67215">
        <ele>493.5</ele>
        <time>2022-03-16T14:45:33Z</time>
      </trkpt>
      <trkpt lat="43.28995" lon="5.67218">
        <ele>492.2</ele>
        <time>2022-03-16T14:46:13Z</time>
      </trkpt>
      <trkpt lat="43.28991" lon="5.67222">
        <ele>490.9</ele>
        <time>2022-03-16T14:46:19Z</time>
      </trkpt>
      <trkpt lat="43.28987" lon="5.67227">
        <ele>490.3</ele>
        <time>2022-03-16T14:46:27Z</time>
      </trkpt>
      <trkpt lat="43.28983" lon="5.67232">
        <ele>489.8</ele>
        <time>2022-03-16T14:46:37Z</time>
      </trkpt>
      <trkpt lat="43.28979" lon="5.67237">
        <ele>489.1</ele>
        <time>2022-03-16T14:46:43Z</time>
      </trkpt>
      <trkpt lat="43.28975" lon="5.67242">
        <ele>488.4</ele>
        <time>2022-03-16T14:46:53Z</time>
      </trkpt>
      <trkpt lat="43.2897" lon="5.67246">
        <ele>487.4</ele>
        <time>2022-03-16T14:46:59Z</time>
      </trkpt>
      <trkpt lat="43.28965" lon="5.6725">
        <ele>486.9</ele>
        <time>2022-03-16T14:47:05Z</time>
      </trkpt>
      <trkpt lat="43.2896" lon="5.67254">
        <ele>486.6</ele>
        <time>2022-03-16T14:47:11Z</time>
      </trkpt>
      <trkpt lat="43.28955" lon="5.67257">
        <ele>486</ele>
        <time>2022-03-16T14:47:15Z</time>
      </trkpt>
      <trkpt lat="43.28948" lon="5.6726">
        <ele>485.1</ele>
        <time>2022-03-16T14:47:21Z</time>
      </trkpt>
      <trkpt lat="43.28943" lon="5.67263">
        <ele>484.8</ele>
        <time>2022-03-16T14:47:29Z</time>
      </trkpt>
      <trkpt lat="43.28938" lon="5.67264">
        <ele>484.7</ele>
        <time>2022-03-16T14:47:35Z</time>
      </trkpt>
      <trkpt lat="43.28933" lon="5.67266">
        <ele>484.8</ele>
        <time>2022-03-16T14:47:41Z</time>
      </trkpt>
      <trkpt lat="43.28927" lon="5.67268">
        <ele>484.9</ele>
        <time>2022-03-16T14:47:47Z</time>
      </trkpt>
      <trkpt lat="43.28922" lon="5.67267">
        <ele>484.4</ele>
        <time>2022-03-16T14:47:53Z</time>
      </trkpt>
      <trkpt lat="43.28918" lon="5.67264">
        <ele>483.1</ele>
        <time>2022-03-16T14:47:59Z</time>
      </trkpt>
      <trkpt lat="43.28913" lon="5.67258">
        <ele>481.2</ele>
        <time>2022-03-16T14:48:05Z</time>
      </trkpt>
      <trkpt lat="43.28908" lon="5.67253">
        <ele>479.6</ele>
        <time>2022-03-16T14:48:11Z</time>
      </trkpt>
      <trkpt lat="43.28904" lon="5.67249">
        <ele>478.3</ele>
        <time>2022-03-16T14:48:23Z</time>
      </trkpt>
      <trkpt lat="43.28899" lon="5.67248">
        <ele>477.9</ele>
        <time>2022-03-16T14:48:37Z</time>
      </trkpt>
      <trkpt lat="43.28894" lon="5.67248">
        <ele>477.7</ele>
        <time>2022-03-16T14:48:43Z</time>
      </trkpt>
      <trkpt lat="43.28888" lon="5.67249">
        <ele>477.7</ele>
        <time>2022-03-16T14:48:49Z</time>
      </trkpt>
      <trkpt lat="43.28883" lon="5.67248">
        <ele>477.4</ele>
        <time>2022-03-16T14:48:55Z</time>
      </trkpt>
      <trkpt lat="43.28878" lon="5.67247">
        <ele>477.1</ele>
        <time>2022-03-16T14:49:01Z</time>
      </trkpt>
      <trkpt lat="43.28873" lon="5.67247">
        <ele>476.9</ele>
        <time>2022-03-16T14:49:07Z</time>
      </trkpt>
      <trkpt lat="43.28868" lon="5.67246">
        <ele>476.5</ele>
        <time>2022-03-16T14:49:13Z</time>
      </trkpt>
      <trkpt lat="43.28863" lon="5.67246">
        <ele>476.5</ele>
        <time>2022-03-16T14:49:19Z</time>
      </trkpt>
      <trkpt lat="43.28858" lon="5.67247">
        <ele>476.6</ele>
        <time>2022-03-16T14:49:25Z</time>
      </trkpt>
      <trkpt lat="43.28853" lon="5.67246">
        <ele>476.3</ele>
        <time>2022-03-16T14:49:31Z</time>
      </trkpt>
      <trkpt lat="43.28847" lon="5.67246">
        <ele>476.2</ele>
        <time>2022-03-16T14:49:37Z</time>
      </trkpt>
      <trkpt lat="43.28841" lon="5.67247">
        <ele>476.1</ele>
        <time>2022-03-16T14:49:43Z</time>
      </trkpt>
      <trkpt lat="43.28835" lon="5.67247">
        <ele>475.9</ele>
        <time>2022-03-16T14:49:49Z</time>
      </trkpt>
      <trkpt lat="43.28829" lon="5.67248">
        <ele>476.3</ele>
        <time>2022-03-16T14:49:55Z</time>
      </trkpt>
      <trkpt lat="43.28824" lon="5.6725">
        <ele>476.7</ele>
        <time>2022-03-16T14:50:01Z</time>
      </trkpt>
      <trkpt lat="43.28818" lon="5.67253">
        <ele>477.4</ele>
        <time>2022-03-16T14:50:07Z</time>
      </trkpt>
      <trkpt lat="43.28812" lon="5.67254">
        <ele>477.3</ele>
        <time>2022-03-16T14:50:13Z</time>
      </trkpt>
      <trkpt lat="43.28807" lon="5.67254">
        <ele>477.2</ele>
        <time>2022-03-16T14:50:19Z</time>
      </trkpt>
      <trkpt lat="43.28801" lon="5.67253">
        <ele>477.3</ele>
        <time>2022-03-16T14:50:25Z</time>
      </trkpt>
      <trkpt lat="43.28797" lon="5.67252">
        <ele>477.6</ele>
        <time>2022-03-16T14:50:31Z</time>
      </trkpt>
      <trkpt lat="43.28792" lon="5.67247">
        <ele>477.1</ele>
        <time>2022-03-16T14:50:37Z</time>
      </trkpt>
      <trkpt lat="43.28789" lon="5.67242">
        <ele>476.9</ele>
        <time>2022-03-16T14:50:43Z</time>
      </trkpt>
      <trkpt lat="43.28785" lon="5.67236">
        <ele>476.8</ele>
        <time>2022-03-16T14:50:49Z</time>
      </trkpt>
      <trkpt lat="43.2878" lon="5.6723">
        <ele>477.1</ele>
        <time>2022-03-16T14:50:55Z</time>
      </trkpt>
      <trkpt lat="43.28777" lon="5.67225">
        <ele>477.3</ele>
        <time>2022-03-16T14:51:01Z</time>
      </trkpt>
      <trkpt lat="43.28773" lon="5.67221">
        <ele>477.6</ele>
        <time>2022-03-16T14:51:07Z</time>
      </trkpt>
      <trkpt lat="43.28768" lon="5.67218">
        <ele>477.9</ele>
        <time>2022-03-16T14:51:31Z</time>
      </trkpt>
      <trkpt lat="43.28765" lon="5.67211">
        <ele>477.5</ele>
        <time>2022-03-16T14:51:37Z</time>
      </trkpt>
      <trkpt lat="43.28761" lon="5.67206">
        <ele>477</ele>
        <time>2022-03-16T14:51:43Z</time>
      </trkpt>
      <trkpt lat="43.28756" lon="5.67204">
        <ele>476.9</ele>
        <time>2022-03-16T14:51:53Z</time>
      </trkpt>
      <trkpt lat="43.2875" lon="5.67207">
        <ele>477.6</ele>
        <time>2022-03-16T14:52:01Z</time>
      </trkpt>
      <trkpt lat="43.28745" lon="5.6721">
        <ele>477.8</ele>
        <time>2022-03-16T14:52:07Z</time>
      </trkpt>
      <trkpt lat="43.2874" lon="5.67213">
        <ele>478</ele>
        <time>2022-03-16T14:52:13Z</time>
      </trkpt>
      <trkpt lat="43.28735" lon="5.67215">
        <ele>478</ele>
        <time>2022-03-16T14:52:19Z</time>
      </trkpt>
      <trkpt lat="43.28729" lon="5.67219">
        <ele>478.1</ele>
        <time>2022-03-16T14:52:27Z</time>
      </trkpt>
      <trkpt lat="43.28725" lon="5.67223">
        <ele>478.2</ele>
        <time>2022-03-16T14:52:35Z</time>
      </trkpt>
      <trkpt lat="43.28723" lon="5.67229">
        <ele>477.8</ele>
        <time>2022-03-16T14:52:41Z</time>
      </trkpt>
      <trkpt lat="43.28723" lon="5.67238">
        <ele>477.5</ele>
        <time>2022-03-16T14:52:47Z</time>
      </trkpt>
      <trkpt lat="43.28723" lon="5.67246">
        <ele>477.2</ele>
        <time>2022-03-16T14:52:53Z</time>
      </trkpt>
      <trkpt lat="43.28722" lon="5.67253">
        <ele>476.7</ele>
        <time>2022-03-16T14:52:59Z</time>
      </trkpt>
      <trkpt lat="43.28723" lon="5.6726">
        <ele>476.4</ele>
        <time>2022-03-16T14:53:05Z</time>
      </trkpt>
      <trkpt lat="43.28724" lon="5.67268">
        <ele>476</ele>
        <time>2022-03-16T14:53:11Z</time>
      </trkpt>
      <trkpt lat="43.28724" lon="5.67276">
        <ele>475.5</ele>
        <time>2022-03-16T14:53:17Z</time>
      </trkpt>
      <trkpt lat="43.28724" lon="5.67284">
        <ele>475.7</ele>
        <time>2022-03-16T14:53:23Z</time>
      </trkpt>
      <trkpt lat="43.28721" lon="5.6729">
        <ele>475.3</ele>
        <time>2022-03-16T14:53:29Z</time>
      </trkpt>
      <trkpt lat="43.28716" lon="5.67295">
        <ele>475</ele>
        <time>2022-03-16T14:53:35Z</time>
      </trkpt>
      <trkpt lat="43.28711" lon="5.67299">
        <ele>474.7</ele>
        <time>2022-03-16T14:53:41Z</time>
      </trkpt>
      <trkpt lat="43.28706" lon="5.67302">
        <ele>474.6</ele>
        <time>2022-03-16T14:53:47Z</time>
      </trkpt>
      <trkpt lat="43.28701" lon="5.67302">
        <ele>474.1</ele>
        <time>2022-03-16T14:53:53Z</time>
      </trkpt>
      <trkpt lat="43.28696" lon="5.67302">
        <ele>473.7</ele>
        <time>2022-03-16T14:53:57Z</time>
      </trkpt>
      <trkpt lat="43.28691" lon="5.67303">
        <ele>474.3</ele>
        <time>2022-03-16T14:54:01Z</time>
      </trkpt>
      <trkpt lat="43.28686" lon="5.67301">
        <ele>474.9</ele>
        <time>2022-03-16T14:54:05Z</time>
      </trkpt>
      <trkpt lat="43.28682" lon="5.67296">
        <ele>475.1</ele>
        <time>2022-03-16T14:54:11Z</time>
      </trkpt>
      <trkpt lat="43.28679" lon="5.67291">
        <ele>474.9</ele>
        <time>2022-03-16T14:54:17Z</time>
      </trkpt>
      <trkpt lat="43.28676" lon="5.67285">
        <ele>474.6</ele>
        <time>2022-03-16T14:54:23Z</time>
      </trkpt>
      <trkpt lat="43.28673" lon="5.6728">
        <ele>474.5</ele>
        <time>2022-03-16T14:54:27Z</time>
      </trkpt>
      <trkpt lat="43.28669" lon="5.67274">
        <ele>473.8</ele>
        <time>2022-03-16T14:54:33Z</time>
      </trkpt>
      <trkpt lat="43.28664" lon="5.6727">
        <ele>473.2</ele>
        <time>2022-03-16T14:54:39Z</time>
      </trkpt>
      <trkpt lat="43.28659" lon="5.67266">
        <ele>472.8</ele>
        <time>2022-03-16T14:54:45Z</time>
      </trkpt>
      <trkpt lat="43.28654" lon="5.67262">
        <ele>472.4</ele>
        <time>2022-03-16T14:54:49Z</time>
      </trkpt>
      <trkpt lat="43.28649" lon="5.67257">
        <ele>471.9</ele>
        <time>2022-03-16T14:54:55Z</time>
      </trkpt>
      <trkpt lat="43.28644" lon="5.67252">
        <ele>471.6</ele>
        <time>2022-03-16T14:55:01Z</time>
      </trkpt>
      <trkpt lat="43.2864" lon="5.67249">
        <ele>471.6</ele>
        <time>2022-03-16T14:55:05Z</time>
      </trkpt>
      <trkpt lat="43.28635" lon="5.67245">
        <ele>471.5</ele>
        <time>2022-03-16T14:55:11Z</time>
      </trkpt>
      <trkpt lat="43.28631" lon="5.67241">
        <ele>471.3</ele>
        <time>2022-03-16T14:55:17Z</time>
      </trkpt>
      <trkpt lat="43.28625" lon="5.67238">
        <ele>471.3</ele>
        <time>2022-03-16T14:55:23Z</time>
      </trkpt>
      <trkpt lat="43.28621" lon="5.67234">
        <ele>471.1</ele>
        <time>2022-03-16T14:55:29Z</time>
      </trkpt>
      <trkpt lat="43.28615" lon="5.67229">
        <ele>470.8</ele>
        <time>2022-03-16T14:55:35Z</time>
      </trkpt>
      <trkpt lat="43.28609" lon="5.67225">
        <ele>470.5</ele>
        <time>2022-03-16T14:55:41Z</time>
      </trkpt>
      <trkpt lat="43.28605" lon="5.67222">
        <ele>470.2</ele>
        <time>2022-03-16T14:55:45Z</time>
      </trkpt>
      <trkpt lat="43.28599" lon="5.67219">
        <ele>470.1</ele>
        <time>2022-03-16T14:55:51Z</time>
      </trkpt>
      <trkpt lat="43.28594" lon="5.67219">
        <ele>470.4</ele>
        <time>2022-03-16T14:55:57Z</time>
      </trkpt>
      <trkpt lat="43.28595" lon="5.67209">
        <ele>469.6</ele>
        <time>2022-03-16T14:56:55Z</time>
      </trkpt>
      <trkpt lat="43.28593" lon="5.67204">
        <ele>469.5</ele>
        <time>2022-03-16T14:56:59Z</time>
      </trkpt>
      <trkpt lat="43.2859" lon="5.67196">
        <ele>469.7</ele>
        <time>2022-03-16T14:57:03Z</time>
      </trkpt>
      <trkpt lat="43.28588" lon="5.67189">
        <ele>469.5</ele>
        <time>2022-03-16T14:57:07Z</time>
      </trkpt>
      <trkpt lat="43.28586" lon="5.67182">
        <ele>469.3</ele>
        <time>2022-03-16T14:57:11Z</time>
      </trkpt>
      <trkpt lat="43.28584" lon="5.67176">
        <ele>469.4</ele>
        <time>2022-03-16T14:57:15Z</time>
      </trkpt>
      <trkpt lat="43.28583" lon="5.67169">
        <ele>469.3</ele>
        <time>2022-03-16T14:57:21Z</time>
      </trkpt>
      <trkpt lat="43.28581" lon="5.67163">
        <ele>469</ele>
        <time>2022-03-16T14:57:25Z</time>
      </trkpt>
      <trkpt lat="43.28578" lon="5.67156">
        <ele>468.4</ele>
        <time>2022-03-16T14:57:31Z</time>
      </trkpt>
      <trkpt lat="43.28576" lon="5.67149">
        <ele>468</ele>
        <time>2022-03-16T14:57:35Z</time>
      </trkpt>
      <trkpt lat="43.28575" lon="5.67142">
        <ele>467.2</ele>
        <time>2022-03-16T14:57:41Z</time>
      </trkpt>
      <trkpt lat="43.28574" lon="5.67136">
        <ele>466.8</ele>
        <time>2022-03-16T14:57:47Z</time>
      </trkpt>
      <trkpt lat="43.28573" lon="5.6713">
        <ele>466.7</ele>
        <time>2022-03-16T14:57:51Z</time>
      </trkpt>
      <trkpt lat="43.28571" lon="5.67124">
        <ele>466.8</ele>
        <time>2022-03-16T14:57:55Z</time>
      </trkpt>
      <trkpt lat="43.2857" lon="5.67114">
        <ele>466.6</ele>
        <time>2022-03-16T14:58:01Z</time>
      </trkpt>
      <trkpt lat="43.28569" lon="5.67105">
        <ele>466.4</ele>
        <time>2022-03-16T14:58:07Z</time>
      </trkpt>
      <trkpt lat="43.28568" lon="5.67099">
        <ele>466.8</ele>
        <time>2022-03-16T14:58:11Z</time>
      </trkpt>
      <trkpt lat="43.28568" lon="5.6709">
        <ele>466.8</ele>
        <time>2022-03-16T14:58:17Z</time>
      </trkpt>
      <trkpt lat="43.28568" lon="5.67082">
        <ele>466.5</ele>
        <time>2022-03-16T14:58:23Z</time>
      </trkpt>
      <trkpt lat="43.28568" lon="5.67074">
        <ele>466.1</ele>
        <time>2022-03-16T14:58:29Z</time>
      </trkpt>
      <trkpt lat="43.28567" lon="5.67067">
        <ele>466.1</ele>
        <time>2022-03-16T14:58:35Z</time>
      </trkpt>
      <trkpt lat="43.28566" lon="5.67059">
        <ele>466.2</ele>
        <time>2022-03-16T14:58:41Z</time>
      </trkpt>
      <trkpt lat="43.28565" lon="5.67052">
        <ele>465.9</ele>
        <time>2022-03-16T14:58:47Z</time>
      </trkpt>
      <trkpt lat="43.28563" lon="5.67045">
        <ele>465.5</ele>
        <time>2022-03-16T14:58:53Z</time>
      </trkpt>
      <trkpt lat="43.2856" lon="5.67037">
        <ele>465.2</ele>
        <time>2022-03-16T14:58:59Z</time>
      </trkpt>
      <trkpt lat="43.28556" lon="5.6703">
        <ele>465.2</ele>
        <time>2022-03-16T14:59:05Z</time>
      </trkpt>
      <trkpt lat="43.28552" lon="5.67024">
        <ele>464.5</ele>
        <time>2022-03-16T14:59:11Z</time>
      </trkpt>
      <trkpt lat="43.28548" lon="5.67018">
        <ele>463.9</ele>
        <time>2022-03-16T14:59:17Z</time>
      </trkpt>
      <trkpt lat="43.28544" lon="5.67012">
        <ele>462.9</ele>
        <time>2022-03-16T14:59:23Z</time>
      </trkpt>
      <trkpt lat="43.28541" lon="5.67005">
        <ele>461.8</ele>
        <time>2022-03-16T14:59:29Z</time>
      </trkpt>
      <trkpt lat="43.28537" lon="5.67">
        <ele>461.2</ele>
        <time>2022-03-16T14:59:35Z</time>
      </trkpt>
      <trkpt lat="43.28533" lon="5.66994">
        <ele>460.6</ele>
        <time>2022-03-16T14:59:41Z</time>
      </trkpt>
      <trkpt lat="43.2853" lon="5.66988">
        <ele>459.8</ele>
        <time>2022-03-16T14:59:47Z</time>
      </trkpt>
      <trkpt lat="43.28526" lon="5.66981">
        <ele>459</ele>
        <time>2022-03-16T14:59:53Z</time>
      </trkpt>
      <trkpt lat="43.28524" lon="5.66975">
        <ele>457.8</ele>
        <time>2022-03-16T14:59:59Z</time>
      </trkpt>
      <trkpt lat="43.28523" lon="5.66969">
        <ele>456.8</ele>
        <time>2022-03-16T15:00:07Z</time>
      </trkpt>
      <trkpt lat="43.28522" lon="5.66961">
        <ele>455.5</ele>
        <time>2022-03-16T15:02:09Z</time>
      </trkpt>
      <trkpt lat="43.28522" lon="5.66954">
        <ele>454.3</ele>
        <time>2022-03-16T15:02:19Z</time>
      </trkpt>
      <trkpt lat="43.28522" lon="5.66947">
        <ele>453.1</ele>
        <time>2022-03-16T15:02:27Z</time>
      </trkpt>
      <trkpt lat="43.2852" lon="5.6694">
        <ele>452.3</ele>
        <time>2022-03-16T15:02:35Z</time>
      </trkpt>
      <trkpt lat="43.28517" lon="5.66934">
        <ele>451.8</ele>
        <time>2022-03-16T15:02:41Z</time>
      </trkpt>
      <trkpt lat="43.28515" lon="5.66928">
        <ele>451.1</ele>
        <time>2022-03-16T15:02:47Z</time>
      </trkpt>
      <trkpt lat="43.28513" lon="5.66921">
        <ele>450.2</ele>
        <time>2022-03-16T15:02:53Z</time>
      </trkpt>
      <trkpt lat="43.2851" lon="5.66913">
        <ele>449</ele>
        <time>2022-03-16T15:02:59Z</time>
      </trkpt>
      <trkpt lat="43.28507" lon="5.66907">
        <ele>447.9</ele>
        <time>2022-03-16T15:03:07Z</time>
      </trkpt>
      <trkpt lat="43.28503" lon="5.66902">
        <ele>447.2</ele>
        <time>2022-03-16T15:03:15Z</time>
      </trkpt>
      <trkpt lat="43.28499" lon="5.66899">
        <ele>446.6</ele>
        <time>2022-03-16T15:03:21Z</time>
      </trkpt>
      <trkpt lat="43.28494" lon="5.66895">
        <ele>445</ele>
        <time>2022-03-16T15:03:27Z</time>
      </trkpt>
      <trkpt lat="43.2849" lon="5.66892">
        <ele>443.6</ele>
        <time>2022-03-16T15:03:33Z</time>
      </trkpt>
      <trkpt lat="43.28484" lon="5.66891">
        <ele>442.4</ele>
        <time>2022-03-16T15:03:39Z</time>
      </trkpt>
      <trkpt lat="43.28479" lon="5.6689">
        <ele>441.4</ele>
        <time>2022-03-16T15:03:45Z</time>
      </trkpt>
      <trkpt lat="43.28473" lon="5.66891">
        <ele>440.5</ele>
        <time>2022-03-16T15:03:53Z</time>
      </trkpt>
      <trkpt lat="43.28469" lon="5.66895">
        <ele>440.2</ele>
        <time>2022-03-16T15:04:01Z</time>
      </trkpt>
      <trkpt lat="43.28466" lon="5.66902">
        <ele>440.6</ele>
        <time>2022-03-16T15:04:15Z</time>
      </trkpt>
      <trkpt lat="43.28462" lon="5.66909">
        <ele>440.6</ele>
        <time>2022-03-16T15:04:21Z</time>
      </trkpt>
      <trkpt lat="43.28458" lon="5.66913">
        <ele>440.1</ele>
        <time>2022-03-16T15:04:27Z</time>
      </trkpt>
      <trkpt lat="43.28454" lon="5.66919">
        <ele>439.8</ele>
        <time>2022-03-16T15:04:33Z</time>
      </trkpt>
      <trkpt lat="43.2845" lon="5.66916">
        <ele>438.4</ele>
        <time>2022-03-16T15:04:45Z</time>
      </trkpt>
      <trkpt lat="43.28452" lon="5.66909">
        <ele>438.1</ele>
        <time>2022-03-16T15:04:51Z</time>
      </trkpt>
      <trkpt lat="43.28452" lon="5.66903">
        <ele>437.6</ele>
        <time>2022-03-16T15:04:57Z</time>
      </trkpt>
      <trkpt lat="43.28452" lon="5.66897">
        <ele>437.1</ele>
        <time>2022-03-16T15:05:05Z</time>
      </trkpt>
      <trkpt lat="43.28454" lon="5.66889">
        <ele>436.7</ele>
        <time>2022-03-16T15:05:11Z</time>
      </trkpt>
      <trkpt lat="43.28456" lon="5.66883">
        <ele>436.3</ele>
        <time>2022-03-16T15:05:17Z</time>
      </trkpt>
      <trkpt lat="43.28457" lon="5.66876">
        <ele>435.4</ele>
        <time>2022-03-16T15:05:23Z</time>
      </trkpt>
      <trkpt lat="43.28457" lon="5.66869">
        <ele>434.5</ele>
        <time>2022-03-16T15:05:31Z</time>
      </trkpt>
      <trkpt lat="43.28457" lon="5.66863">
        <ele>433.6</ele>
        <time>2022-03-16T15:05:37Z</time>
      </trkpt>
      <trkpt lat="43.28457" lon="5.66855">
        <ele>432.3</ele>
        <time>2022-03-16T15:05:45Z</time>
      </trkpt>
      <trkpt lat="43.28459" lon="5.66849">
        <ele>431.4</ele>
        <time>2022-03-16T15:05:55Z</time>
      </trkpt>
      <trkpt lat="43.28462" lon="5.66844">
        <ele>430.6</ele>
        <time>2022-03-16T15:06:19Z</time>
      </trkpt>
      <trkpt lat="43.28459" lon="5.6684">
        <ele>429.8</ele>
        <time>2022-03-16T15:06:57Z</time>
      </trkpt>
      <trkpt lat="43.28464" lon="5.66835">
        <ele>428.6</ele>
        <time>2022-03-16T15:09:01Z</time>
      </trkpt>
      <trkpt lat="43.28466" lon="5.66829">
        <ele>428.3</ele>
        <time>2022-03-16T15:09:19Z</time>
      </trkpt>
      <trkpt lat="43.2847" lon="5.66823">
        <ele>428.2</ele>
        <time>2022-03-16T15:09:25Z</time>
      </trkpt>
      <trkpt lat="43.28476" lon="5.66818">
        <ele>427.8</ele>
        <time>2022-03-16T15:09:31Z</time>
      </trkpt>
      <trkpt lat="43.28482" lon="5.66817">
        <ele>427.3</ele>
        <time>2022-03-16T15:09:37Z</time>
      </trkpt>
      <trkpt lat="43.28487" lon="5.66815">
        <ele>426.6</ele>
        <time>2022-03-16T15:09:41Z</time>
      </trkpt>
      <trkpt lat="43.28493" lon="5.66813">
        <ele>425.7</ele>
        <time>2022-03-16T15:09:45Z</time>
      </trkpt>
      <trkpt lat="43.28498" lon="5.66812">
        <ele>424.8</ele>
        <time>2022-03-16T15:09:49Z</time>
      </trkpt>
      <trkpt lat="43.28505" lon="5.6681">
        <ele>424.1</ele>
        <time>2022-03-16T15:09:55Z</time>
      </trkpt>
      <trkpt lat="43.2851" lon="5.66809">
        <ele>423.8</ele>
        <time>2022-03-16T15:09:59Z</time>
      </trkpt>
      <trkpt lat="43.28515" lon="5.66808">
        <ele>423.6</ele>
        <time>2022-03-16T15:10:03Z</time>
      </trkpt>
      <trkpt lat="43.2852" lon="5.66808">
        <ele>423.5</ele>
        <time>2022-03-16T15:10:07Z</time>
      </trkpt>
      <trkpt lat="43.28525" lon="5.66808">
        <ele>423.6</ele>
        <time>2022-03-16T15:10:11Z</time>
      </trkpt>
      <trkpt lat="43.28532" lon="5.66809">
        <ele>423.3</ele>
        <time>2022-03-16T15:10:17Z</time>
      </trkpt>
      <trkpt lat="43.28536" lon="5.6681">
        <ele>422.8</ele>
        <time>2022-03-16T15:10:21Z</time>
      </trkpt>
      <trkpt lat="43.28541" lon="5.6681">
        <ele>422.2</ele>
        <time>2022-03-16T15:10:25Z</time>
      </trkpt>
      <trkpt lat="43.28547" lon="5.66812">
        <ele>421.9</ele>
        <time>2022-03-16T15:10:31Z</time>
      </trkpt>
      <trkpt lat="43.28552" lon="5.66814">
        <ele>421.6</ele>
        <time>2022-03-16T15:10:35Z</time>
      </trkpt>
      <trkpt lat="43.28557" lon="5.66816">
        <ele>421.1</ele>
        <time>2022-03-16T15:10:39Z</time>
      </trkpt>
      <trkpt lat="43.28562" lon="5.66819">
        <ele>420.5</ele>
        <time>2022-03-16T15:10:43Z</time>
      </trkpt>
      <trkpt lat="43.28566" lon="5.66823">
        <ele>420.1</ele>
        <time>2022-03-16T15:10:47Z</time>
      </trkpt>
      <trkpt lat="43.2857" lon="5.66827">
        <ele>419.7</ele>
        <time>2022-03-16T15:11:09Z</time>
      </trkpt>
      <trkpt lat="43.28574" lon="5.66831">
        <ele>419.4</ele>
        <time>2022-03-16T15:11:13Z</time>
      </trkpt>
      <trkpt lat="43.28578" lon="5.66836">
        <ele>418.9</ele>
        <time>2022-03-16T15:11:17Z</time>
      </trkpt>
      <trkpt lat="43.28582" lon="5.6684">
        <ele>418.1</ele>
        <time>2022-03-16T15:11:21Z</time>
      </trkpt>
      <trkpt lat="43.28585" lon="5.66845">
        <ele>416.9</ele>
        <time>2022-03-16T15:11:25Z</time>
      </trkpt>
      <trkpt lat="43.28588" lon="5.66851">
        <ele>414.9</ele>
        <time>2022-03-16T15:11:29Z</time>
      </trkpt>
      <trkpt lat="43.28591" lon="5.66857">
        <ele>413.7</ele>
        <time>2022-03-16T15:11:33Z</time>
      </trkpt>
      <trkpt lat="43.28593" lon="5.66864">
        <ele>412.6</ele>
        <time>2022-03-16T15:11:37Z</time>
      </trkpt>
      <trkpt lat="43.28594" lon="5.6687">
        <ele>412.1</ele>
        <time>2022-03-16T15:11:41Z</time>
      </trkpt>
      <trkpt lat="43.28595" lon="5.66878">
        <ele>412</ele>
        <time>2022-03-16T15:11:47Z</time>
      </trkpt>
      <trkpt lat="43.28598" lon="5.66887">
        <ele>410.9</ele>
        <time>2022-03-16T15:11:53Z</time>
      </trkpt>
      <trkpt lat="43.28599" lon="5.66895">
        <ele>411</ele>
        <time>2022-03-16T15:11:59Z</time>
      </trkpt>
      <trkpt lat="43.28601" lon="5.66901">
        <ele>411</ele>
        <time>2022-03-16T15:12:07Z</time>
      </trkpt>
      <trkpt lat="43.28605" lon="5.66908">
        <ele>410.1</ele>
        <time>2022-03-16T15:12:13Z</time>
      </trkpt>
      <trkpt lat="43.28608" lon="5.66913">
        <ele>409.1</ele>
        <time>2022-03-16T15:12:21Z</time>
      </trkpt>
      <trkpt lat="43.28612" lon="5.66918">
        <ele>408</ele>
        <time>2022-03-16T15:12:31Z</time>
      </trkpt>
      <trkpt lat="43.28616" lon="5.66921">
        <ele>407.2</ele>
        <time>2022-03-16T15:12:35Z</time>
      </trkpt>
      <trkpt lat="43.28621" lon="5.66926">
        <ele>406.2</ele>
        <time>2022-03-16T15:12:41Z</time>
      </trkpt>
      <trkpt lat="43.28625" lon="5.66931">
        <ele>405.5</ele>
        <time>2022-03-16T15:12:49Z</time>
      </trkpt>
      <trkpt lat="43.28628" lon="5.66936">
        <ele>405.4</ele>
        <time>2022-03-16T15:12:53Z</time>
      </trkpt>
      <trkpt lat="43.28631" lon="5.66941">
        <ele>405</ele>
        <time>2022-03-16T15:12:59Z</time>
      </trkpt>
      <trkpt lat="43.28634" lon="5.66946">
        <ele>405</ele>
        <time>2022-03-16T15:13:07Z</time>
      </trkpt>
      <trkpt lat="43.28638" lon="5.66949">
        <ele>403.9</ele>
        <time>2022-03-16T15:13:15Z</time>
      </trkpt>
      <trkpt lat="43.28643" lon="5.66949">
        <ele>402.5</ele>
        <time>2022-03-16T15:13:49Z</time>
      </trkpt>
      <trkpt lat="43.28647" lon="5.66949">
        <ele>401.3</ele>
        <time>2022-03-16T15:13:55Z</time>
      </trkpt>
      <trkpt lat="43.28654" lon="5.66949">
        <ele>399.6</ele>
        <time>2022-03-16T15:14:01Z</time>
      </trkpt>
      <trkpt lat="43.28658" lon="5.66951">
        <ele>399.1</ele>
        <time>2022-03-16T15:14:07Z</time>
      </trkpt>
      <trkpt lat="43.28663" lon="5.66955">
        <ele>398.9</ele>
        <time>2022-03-16T15:14:15Z</time>
      </trkpt>
      <trkpt lat="43.28666" lon="5.66949">
        <ele>396.7</ele>
        <time>2022-03-16T15:15:05Z</time>
      </trkpt>
      <trkpt lat="43.28664" lon="5.66943">
        <ele>395.2</ele>
        <time>2022-03-16T15:15:11Z</time>
      </trkpt>
      <trkpt lat="43.28661" lon="5.66937">
        <ele>394.5</ele>
        <time>2022-03-16T15:15:19Z</time>
      </trkpt>
      <trkpt lat="43.28659" lon="5.66931">
        <ele>393.9</ele>
        <time>2022-03-16T15:15:25Z</time>
      </trkpt>
      <trkpt lat="43.28655" lon="5.66925">
        <ele>393.3</ele>
        <time>2022-03-16T15:15:33Z</time>
      </trkpt>
      <trkpt lat="43.2865" lon="5.6692">
        <ele>392.9</ele>
        <time>2022-03-16T15:15:39Z</time>
      </trkpt>
      <trkpt lat="43.28647" lon="5.66914">
        <ele>391.9</ele>
        <time>2022-03-16T15:15:45Z</time>
      </trkpt>
      <trkpt lat="43.28646" lon="5.66908">
        <ele>390.5</ele>
        <time>2022-03-16T15:15:51Z</time>
      </trkpt>
      <trkpt lat="43.28643" lon="5.66902">
        <ele>389.5</ele>
        <time>2022-03-16T15:15:57Z</time>
      </trkpt>
      <trkpt lat="43.28643" lon="5.66895">
        <ele>387.7</ele>
        <time>2022-03-16T15:16:03Z</time>
      </trkpt>
      <trkpt lat="43.28644" lon="5.66886">
        <ele>385.6</ele>
        <time>2022-03-16T15:16:11Z</time>
      </trkpt>
      <trkpt lat="43.28646" lon="5.66879">
        <ele>384</ele>
        <time>2022-03-16T15:16:17Z</time>
      </trkpt>
      <trkpt lat="43.28647" lon="5.66872">
        <ele>382.5</ele>
        <time>2022-03-16T15:16:23Z</time>
      </trkpt>
      <trkpt lat="43.28648" lon="5.66865">
        <ele>381.1</ele>
        <time>2022-03-16T15:16:27Z</time>
      </trkpt>
      <trkpt lat="43.28647" lon="5.66856">
        <ele>380.5</ele>
        <time>2022-03-16T15:16:33Z</time>
      </trkpt>
      <trkpt lat="43.28645" lon="5.66849">
        <ele>380.4</ele>
        <time>2022-03-16T15:16:37Z</time>
      </trkpt>
      <trkpt lat="43.28643" lon="5.6684">
        <ele>380.4</ele>
        <time>2022-03-16T15:16:43Z</time>
      </trkpt>
      <trkpt lat="43.2864" lon="5.66833">
        <ele>380.4</ele>
        <time>2022-03-16T15:16:49Z</time>
      </trkpt>
      <trkpt lat="43.28637" lon="5.66825">
        <ele>380.4</ele>
        <time>2022-03-16T15:16:55Z</time>
      </trkpt>
      <trkpt lat="43.28635" lon="5.66819">
        <ele>380.4</ele>
        <time>2022-03-16T15:16:59Z</time>
      </trkpt>
      <trkpt lat="43.28632" lon="5.66813">
        <ele>380.6</ele>
        <time>2022-03-16T15:17:05Z</time>
      </trkpt>
      <trkpt lat="43.28635" lon="5.66807">
        <ele>378.1</ele>
        <time>2022-03-16T15:17:17Z</time>
      </trkpt>
      <trkpt lat="43.2864" lon="5.66804">
        <ele>375.9</ele>
        <time>2022-03-16T15:17:29Z</time>
      </trkpt>
      <trkpt lat="43.28644" lon="5.66801">
        <ele>375.6</ele>
        <time>2022-03-16T15:17:35Z</time>
      </trkpt>
      <trkpt lat="43.28649" lon="5.66796">
        <ele>375.6</ele>
        <time>2022-03-16T15:17:45Z</time>
      </trkpt>
      <trkpt lat="43.28655" lon="5.66794">
        <ele>374.7</ele>
        <time>2022-03-16T15:17:51Z</time>
      </trkpt>
      <trkpt lat="43.28661" lon="5.66792">
        <ele>373.6</ele>
        <time>2022-03-16T15:17:57Z</time>
      </trkpt>
      <trkpt lat="43.28667" lon="5.6679">
        <ele>372.8</ele>
        <time>2022-03-16T15:18:03Z</time>
      </trkpt>
      <trkpt lat="43.28673" lon="5.66788">
        <ele>371.4</ele>
        <time>2022-03-16T15:18:11Z</time>
      </trkpt>
      <trkpt lat="43.28678" lon="5.66786">
        <ele>370.3</ele>
        <time>2022-03-16T15:18:19Z</time>
      </trkpt>
      <trkpt lat="43.28682" lon="5.66782">
        <ele>369.6</ele>
        <time>2022-03-16T15:18:27Z</time>
      </trkpt>
      <trkpt lat="43.28687" lon="5.66779">
        <ele>368.4</ele>
        <time>2022-03-16T15:18:31Z</time>
      </trkpt>
      <trkpt lat="43.28691" lon="5.66777">
        <ele>367.4</ele>
        <time>2022-03-16T15:18:35Z</time>
      </trkpt>
      <trkpt lat="43.28696" lon="5.66772">
        <ele>366.6</ele>
        <time>2022-03-16T15:18:41Z</time>
      </trkpt>
      <trkpt lat="43.28701" lon="5.66766">
        <ele>366</ele>
        <time>2022-03-16T15:18:47Z</time>
      </trkpt>
      <trkpt lat="43.28705" lon="5.66762">
        <ele>365.2</ele>
        <time>2022-03-16T15:18:53Z</time>
      </trkpt>
      <trkpt lat="43.28709" lon="5.66758">
        <ele>364.5</ele>
        <time>2022-03-16T15:18:59Z</time>
      </trkpt>
      <trkpt lat="43.28713" lon="5.66753">
        <ele>363.9</ele>
        <time>2022-03-16T15:19:05Z</time>
      </trkpt>
      <trkpt lat="43.28717" lon="5.66746">
        <ele>363.7</ele>
        <time>2022-03-16T15:19:11Z</time>
      </trkpt>
      <trkpt lat="43.28721" lon="5.66739">
        <ele>363.2</ele>
        <time>2022-03-16T15:19:17Z</time>
      </trkpt>
      <trkpt lat="43.28725" lon="5.66735">
        <ele>362.2</ele>
        <time>2022-03-16T15:19:23Z</time>
      </trkpt>
      <trkpt lat="43.28728" lon="5.66731">
        <ele>361.4</ele>
        <time>2022-03-16T15:19:29Z</time>
      </trkpt>
      <trkpt lat="43.28732" lon="5.66726">
        <ele>360.3</ele>
        <time>2022-03-16T15:19:35Z</time>
      </trkpt>
      <trkpt lat="43.28737" lon="5.66721">
        <ele>358.7</ele>
        <time>2022-03-16T15:19:41Z</time>
      </trkpt>
      <trkpt lat="43.28741" lon="5.66714">
        <ele>358.1</ele>
        <time>2022-03-16T15:19:47Z</time>
      </trkpt>
      <trkpt lat="43.28744" lon="5.66709">
        <ele>357.9</ele>
        <time>2022-03-16T15:19:51Z</time>
      </trkpt>
      <trkpt lat="43.28747" lon="5.66704">
        <ele>357.5</ele>
        <time>2022-03-16T15:19:55Z</time>
      </trkpt>
      <trkpt lat="43.28749" lon="5.66699">
        <ele>357.5</ele>
        <time>2022-03-16T15:19:59Z</time>
      </trkpt>
      <trkpt lat="43.28752" lon="5.66691">
        <ele>358.1</ele>
        <time>2022-03-16T15:20:03Z</time>
      </trkpt>
      <trkpt lat="43.28755" lon="5.66683">
        <ele>358.8</ele>
        <time>2022-03-16T15:20:07Z</time>
      </trkpt>
      <trkpt lat="43.28758" lon="5.66677">
        <ele>359</ele>
        <time>2022-03-16T15:20:13Z</time>
      </trkpt>
      <trkpt lat="43.28761" lon="5.66672">
        <ele>358.8</ele>
        <time>2022-03-16T15:20:21Z</time>
      </trkpt>
      <trkpt lat="43.28765" lon="5.66666">
        <ele>358.7</ele>
        <time>2022-03-16T15:20:27Z</time>
      </trkpt>
      <trkpt lat="43.28767" lon="5.66661">
        <ele>358.4</ele>
        <time>2022-03-16T15:20:31Z</time>
      </trkpt>
      <trkpt lat="43.28771" lon="5.66655">
        <ele>357.9</ele>
        <time>2022-03-16T15:20:37Z</time>
      </trkpt>
      <trkpt lat="43.28773" lon="5.66647">
        <ele>358.2</ele>
        <time>2022-03-16T15:20:43Z</time>
      </trkpt>
      <trkpt lat="43.28773" lon="5.66638">
        <ele>359.3</ele>
        <time>2022-03-16T15:20:49Z</time>
      </trkpt>
      <trkpt lat="43.28773" lon="5.66632">
        <ele>358.7</ele>
        <time>2022-03-16T15:20:55Z</time>
      </trkpt>
      <trkpt lat="43.28772" lon="5.66625">
        <ele>358.1</ele>
        <time>2022-03-16T15:21:05Z</time>
      </trkpt>
      <trkpt lat="43.28773" lon="5.66617">
        <ele>356.8</ele>
        <time>2022-03-16T15:21:21Z</time>
      </trkpt>
      <trkpt lat="43.28771" lon="5.66609">
        <ele>356.1</ele>
        <time>2022-03-16T15:21:27Z</time>
      </trkpt>
      <trkpt lat="43.28769" lon="5.66603">
        <ele>355.1</ele>
        <time>2022-03-16T15:21:33Z</time>
      </trkpt>
      <trkpt lat="43.28769" lon="5.66594">
        <ele>353.4</ele>
        <time>2022-03-16T15:21:39Z</time>
      </trkpt>
      <trkpt lat="43.28771" lon="5.66588">
        <ele>351.8</ele>
        <time>2022-03-16T15:21:45Z</time>
      </trkpt>
      <trkpt lat="43.28774" lon="5.66582">
        <ele>350.3</ele>
        <time>2022-03-16T15:21:51Z</time>
      </trkpt>
      <trkpt lat="43.28776" lon="5.66572">
        <ele>348.4</ele>
        <time>2022-03-16T15:21:57Z</time>
      </trkpt>
      <trkpt lat="43.28779" lon="5.66565">
        <ele>346.8</ele>
        <time>2022-03-16T15:22:03Z</time>
      </trkpt>
      <trkpt lat="43.28781" lon="5.66559">
        <ele>345.7</ele>
        <time>2022-03-16T15:22:09Z</time>
      </trkpt>
      <trkpt lat="43.28782" lon="5.66553">
        <ele>345.2</ele>
        <time>2022-03-16T15:22:17Z</time>
      </trkpt>
      <trkpt lat="43.28787" lon="5.66549">
        <ele>345.1</ele>
        <time>2022-03-16T15:22:27Z</time>
      </trkpt>
      <trkpt lat="43.2879" lon="5.66542">
        <ele>344.5</ele>
        <time>2022-03-16T15:22:37Z</time>
      </trkpt>
      <trkpt lat="43.28795" lon="5.66537">
        <ele>343.1</ele>
        <time>2022-03-16T15:22:47Z</time>
      </trkpt>
      <trkpt lat="43.288" lon="5.66531">
        <ele>341.2</ele>
        <time>2022-03-16T15:22:55Z</time>
      </trkpt>
      <trkpt lat="43.28804" lon="5.66527">
        <ele>339.3</ele>
        <time>2022-03-16T15:23:01Z</time>
      </trkpt>
      <trkpt lat="43.28809" lon="5.66525">
        <ele>337.3</ele>
        <time>2022-03-16T15:23:05Z</time>
      </trkpt>
      <trkpt lat="43.28814" lon="5.6652">
        <ele>335</ele>
        <time>2022-03-16T15:23:11Z</time>
      </trkpt>
      <trkpt lat="43.28819" lon="5.66519">
        <ele>333.3</ele>
        <time>2022-03-16T15:23:15Z</time>
      </trkpt>
      <trkpt lat="43.28824" lon="5.66518">
        <ele>331.7</ele>
        <time>2022-03-16T15:23:19Z</time>
      </trkpt>
      <trkpt lat="43.28826" lon="5.66524">
        <ele>330.5</ele>
        <time>2022-03-16T15:23:27Z</time>
      </trkpt>
      <trkpt lat="43.28826" lon="5.66532">
        <ele>330.9</ele>
        <time>2022-03-16T15:23:39Z</time>
      </trkpt>
      <trkpt lat="43.28828" lon="5.66539">
        <ele>331</ele>
        <time>2022-03-16T15:23:53Z</time>
      </trkpt>
      <trkpt lat="43.28831" lon="5.66545">
        <ele>330</ele>
        <time>2022-03-16T15:24:03Z</time>
      </trkpt>
      <trkpt lat="43.28834" lon="5.66549">
        <ele>329.2</ele>
        <time>2022-03-16T15:24:09Z</time>
      </trkpt>
      <trkpt lat="43.28838" lon="5.66553">
        <ele>328.8</ele>
        <time>2022-03-16T15:24:15Z</time>
      </trkpt>
      <trkpt lat="43.28844" lon="5.66555">
        <ele>328.5</ele>
        <time>2022-03-16T15:24:21Z</time>
      </trkpt>
      <trkpt lat="43.28847" lon="5.66559">
        <ele>329.1</ele>
        <time>2022-03-16T15:24:33Z</time>
      </trkpt>
      <trkpt lat="43.28852" lon="5.66557">
        <ele>327.8</ele>
        <time>2022-03-16T15:25:47Z</time>
      </trkpt>
      <trkpt lat="43.2885" lon="5.66549">
        <ele>325.5</ele>
        <time>2022-03-16T15:26:07Z</time>
      </trkpt>
      <trkpt lat="43.28848" lon="5.66543">
        <ele>324.3</ele>
        <time>2022-03-16T15:26:13Z</time>
      </trkpt>
      <trkpt lat="43.28847" lon="5.66537">
        <ele>322.5</ele>
        <time>2022-03-16T15:26:25Z</time>
      </trkpt>
      <trkpt lat="43.28846" lon="5.66531">
        <ele>321.5</ele>
        <time>2022-03-16T15:26:33Z</time>
      </trkpt>
      <trkpt lat="43.28848" lon="5.66524">
        <ele>319.4</ele>
        <time>2022-03-16T15:26:41Z</time>
      </trkpt>
      <trkpt lat="43.2885" lon="5.66518">
        <ele>318.1</ele>
        <time>2022-03-16T15:26:47Z</time>
      </trkpt>
      <trkpt lat="43.28852" lon="5.66512">
        <ele>316.6</ele>
        <time>2022-03-16T15:26:51Z</time>
      </trkpt>
      <trkpt lat="43.28855" lon="5.66505">
        <ele>314.1</ele>
        <time>2022-03-16T15:26:57Z</time>
      </trkpt>
      <trkpt lat="43.28861" lon="5.66505">
        <ele>310.1</ele>
        <time>2022-03-16T15:27:07Z</time>
      </trkpt>
      <trkpt lat="43.28864" lon="5.66499">
        <ele>310.6</ele>
        <time>2022-03-16T15:27:17Z</time>
      </trkpt>
      <trkpt lat="43.28866" lon="5.66492">
        <ele>311.3</ele>
        <time>2022-03-16T15:27:25Z</time>
      </trkpt>
      <trkpt lat="43.28866" lon="5.66485">
        <ele>310.8</ele>
        <time>2022-03-16T15:27:33Z</time>
      </trkpt>
      <trkpt lat="43.28867" lon="5.66478">
        <ele>310.7</ele>
        <time>2022-03-16T15:27:41Z</time>
      </trkpt>
      <trkpt lat="43.28871" lon="5.66473">
        <ele>310.4</ele>
        <time>2022-03-16T15:27:51Z</time>
      </trkpt>
      <trkpt lat="43.28873" lon="5.66467">
        <ele>309.4</ele>
        <time>2022-03-16T15:27:59Z</time>
      </trkpt>
      <trkpt lat="43.28875" lon="5.66461">
        <ele>308.1</ele>
        <time>2022-03-16T15:28:07Z</time>
      </trkpt>
      <trkpt lat="43.28878" lon="5.66457">
        <ele>306.6</ele>
        <time>2022-03-16T15:28:15Z</time>
      </trkpt>
      <trkpt lat="43.28882" lon="5.66451">
        <ele>304.1</ele>
        <time>2022-03-16T15:28:21Z</time>
      </trkpt>
      <trkpt lat="43.28887" lon="5.66446">
        <ele>301.2</ele>
        <time>2022-03-16T15:28:27Z</time>
      </trkpt>
      <trkpt lat="43.28891" lon="5.66442">
        <ele>301.2</ele>
        <time>2022-03-16T15:28:33Z</time>
      </trkpt>
      <trkpt lat="43.28895" lon="5.66436">
        <ele>303.5</ele>
        <time>2022-03-16T15:28:41Z</time>
      </trkpt>
      <trkpt lat="43.289" lon="5.66431">
        <ele>304.8</ele>
        <time>2022-03-16T15:28:47Z</time>
      </trkpt>
      <trkpt lat="43.28903" lon="5.66426">
        <ele>305.2</ele>
        <time>2022-03-16T15:28:53Z</time>
      </trkpt>
      <trkpt lat="43.28906" lon="5.6642">
        <ele>304.4</ele>
        <time>2022-03-16T15:28:59Z</time>
      </trkpt>
      <trkpt lat="43.28909" lon="5.66414">
        <ele>303.6</ele>
        <time>2022-03-16T15:29:05Z</time>
      </trkpt>
      <trkpt lat="43.2891" lon="5.66408">
        <ele>302.6</ele>
        <time>2022-03-16T15:29:11Z</time>
      </trkpt>
      <trkpt lat="43.28913" lon="5.66401">
        <ele>300.8</ele>
        <time>2022-03-16T15:29:17Z</time>
      </trkpt>
      <trkpt lat="43.28916" lon="5.66396">
        <ele>298.6</ele>
        <time>2022-03-16T15:29:23Z</time>
      </trkpt>
      <trkpt lat="43.28917" lon="5.66388">
        <ele>296.2</ele>
        <time>2022-03-16T15:29:29Z</time>
      </trkpt>
      <trkpt lat="43.2892" lon="5.66381">
        <ele>296.5</ele>
        <time>2022-03-16T15:29:35Z</time>
      </trkpt>
      <trkpt lat="43.28924" lon="5.66374">
        <ele>296.2</ele>
        <time>2022-03-16T15:29:41Z</time>
      </trkpt>
      <trkpt lat="43.28927" lon="5.66368">
        <ele>295.2</ele>
        <time>2022-03-16T15:29:47Z</time>
      </trkpt>
      <trkpt lat="43.28931" lon="5.66361">
        <ele>293.3</ele>
        <time>2022-03-16T15:29:53Z</time>
      </trkpt>
      <trkpt lat="43.28935" lon="5.66357">
        <ele>292.5</ele>
        <time>2022-03-16T15:29:57Z</time>
      </trkpt>
      <trkpt lat="43.2894" lon="5.66353">
        <ele>291.3</ele>
        <time>2022-03-16T15:30:01Z</time>
      </trkpt>
      <trkpt lat="43.28944" lon="5.6635">
        <ele>290.1</ele>
        <time>2022-03-16T15:30:05Z</time>
      </trkpt>
      <trkpt lat="43.28947" lon="5.66345">
        <ele>289.9</ele>
        <time>2022-03-16T15:30:09Z</time>
      </trkpt>
      <trkpt lat="43.28951" lon="5.6634">
        <ele>289.5</ele>
        <time>2022-03-16T15:30:15Z</time>
      </trkpt>
      <trkpt lat="43.28955" lon="5.66335">
        <ele>289</ele>
        <time>2022-03-16T15:30:21Z</time>
      </trkpt>
      <trkpt lat="43.28957" lon="5.66328">
        <ele>288.5</ele>
        <time>2022-03-16T15:30:27Z</time>
      </trkpt>
      <trkpt lat="43.28961" lon="5.66322">
        <ele>287.8</ele>
        <time>2022-03-16T15:30:35Z</time>
      </trkpt>
      <trkpt lat="43.28965" lon="5.66319">
        <ele>287.1</ele>
        <time>2022-03-16T15:30:41Z</time>
      </trkpt>
      <trkpt lat="43.28969" lon="5.66314">
        <ele>286.1</ele>
        <time>2022-03-16T15:30:49Z</time>
      </trkpt>
      <trkpt lat="43.28972" lon="5.66309">
        <ele>285.3</ele>
        <time>2022-03-16T15:30:55Z</time>
      </trkpt>
      <trkpt lat="43.28975" lon="5.66304">
        <ele>284.2</ele>
        <time>2022-03-16T15:31:01Z</time>
      </trkpt>
      <trkpt lat="43.28978" lon="5.66298">
        <ele>282.6</ele>
        <time>2022-03-16T15:31:09Z</time>
      </trkpt>
      <trkpt lat="43.28979" lon="5.66291">
        <ele>281.2</ele>
        <time>2022-03-16T15:31:17Z</time>
      </trkpt>
      <trkpt lat="43.28981" lon="5.66284">
        <ele>279.7</ele>
        <time>2022-03-16T15:31:27Z</time>
      </trkpt>
      <trkpt lat="43.28987" lon="5.66284">
        <ele>278.4</ele>
        <time>2022-03-16T15:31:37Z</time>
      </trkpt>
      <trkpt lat="43.2899" lon="5.6629">
        <ele>278.6</ele>
        <time>2022-03-16T15:31:45Z</time>
      </trkpt>
      <trkpt lat="43.28996" lon="5.66291">
        <ele>277.4</ele>
        <time>2022-03-16T15:31:53Z</time>
      </trkpt>
      <trkpt lat="43.28999" lon="5.66286">
        <ele>275.7</ele>
        <time>2022-03-16T15:32:03Z</time>
      </trkpt>
      <trkpt lat="43.28999" lon="5.6628">
        <ele>274.7</ele>
        <time>2022-03-16T15:32:11Z</time>
      </trkpt>
      <trkpt lat="43.28997" lon="5.66273">
        <ele>273.8</ele>
        <time>2022-03-16T15:32:19Z</time>
      </trkpt>
      <trkpt lat="43.28995" lon="5.66266">
        <ele>273.1</ele>
        <time>2022-03-16T15:32:29Z</time>
      </trkpt>
      <trkpt lat="43.28995" lon="5.66258">
        <ele>271.9</ele>
        <time>2022-03-16T15:32:39Z</time>
      </trkpt>
      <trkpt lat="43.28994" lon="5.66252">
        <ele>270.9</ele>
        <time>2022-03-16T15:32:45Z</time>
      </trkpt>
      <trkpt lat="43.28994" lon="5.66245">
        <ele>270</ele>
        <time>2022-03-16T15:32:53Z</time>
      </trkpt>
      <trkpt lat="43.28992" lon="5.66238">
        <ele>269.3</ele>
        <time>2022-03-16T15:33:15Z</time>
      </trkpt>
      <trkpt lat="43.28993" lon="5.6623">
        <ele>267.9</ele>
        <time>2022-03-16T15:33:21Z</time>
      </trkpt>
      <trkpt lat="43.28993" lon="5.66223">
        <ele>266.5</ele>
        <time>2022-03-16T15:33:27Z</time>
      </trkpt>
      <trkpt lat="43.28995" lon="5.66217">
        <ele>265.4</ele>
        <time>2022-03-16T15:33:31Z</time>
      </trkpt>
      <trkpt lat="43.28996" lon="5.66211">
        <ele>264.5</ele>
        <time>2022-03-16T15:33:35Z</time>
      </trkpt>
      <trkpt lat="43.28997" lon="5.66204">
        <ele>263.6</ele>
        <time>2022-03-16T15:33:39Z</time>
      </trkpt>
      <trkpt lat="43.28997" lon="5.66198">
        <ele>262.8</ele>
        <time>2022-03-16T15:33:45Z</time>
      </trkpt>
      <trkpt lat="43.28999" lon="5.6619">
        <ele>261.1</ele>
        <time>2022-03-16T15:33:53Z</time>
      </trkpt>
      <trkpt lat="43.29002" lon="5.66184">
        <ele>260</ele>
        <time>2022-03-16T15:33:59Z</time>
      </trkpt>
      <trkpt lat="43.29005" lon="5.66176">
        <ele>259.2</ele>
        <time>2022-03-16T15:34:05Z</time>
      </trkpt>
      <trkpt lat="43.2901" lon="5.66169">
        <ele>258.5</ele>
        <time>2022-03-16T15:34:11Z</time>
      </trkpt>
      <trkpt lat="43.29014" lon="5.66165">
        <ele>258</ele>
        <time>2022-03-16T15:34:19Z</time>
      </trkpt>
      <trkpt lat="43.29019" lon="5.66162">
        <ele>257.6</ele>
        <time>2022-03-16T15:34:33Z</time>
      </trkpt>
      <trkpt lat="43.29014" lon="5.66165">
        <ele>258</ele>
        <time>2022-03-16T15:35:01Z</time>
      </trkpt>
      <trkpt lat="43.29015" lon="5.66159">
        <ele>258</ele>
        <time>2022-03-16T15:35:13Z</time>
      </trkpt>
      <trkpt lat="43.29016" lon="5.66152">
        <ele>257.9</ele>
        <time>2022-03-16T15:35:17Z</time>
      </trkpt>
      <trkpt lat="43.29018" lon="5.66145">
        <ele>257.5</ele>
        <time>2022-03-16T15:35:21Z</time>
      </trkpt>
      <trkpt lat="43.29021" lon="5.6614">
        <ele>256.7</ele>
        <time>2022-03-16T15:35:25Z</time>
      </trkpt>
      <trkpt lat="43.29023" lon="5.66133">
        <ele>256</ele>
        <time>2022-03-16T15:35:29Z</time>
      </trkpt>
      <trkpt lat="43.29025" lon="5.66127">
        <ele>255.4</ele>
        <time>2022-03-16T15:35:33Z</time>
      </trkpt>
      <trkpt lat="43.29026" lon="5.6612">
        <ele>254.8</ele>
        <time>2022-03-16T15:35:37Z</time>
      </trkpt>
      <trkpt lat="43.29027" lon="5.66112">
        <ele>254.4</ele>
        <time>2022-03-16T15:35:41Z</time>
      </trkpt>
      <trkpt lat="43.29027" lon="5.66104">
        <ele>254.1</ele>
        <time>2022-03-16T15:35:45Z</time>
      </trkpt>
      <trkpt lat="43.29026" lon="5.66096">
        <ele>254.2</ele>
        <time>2022-03-16T15:35:49Z</time>
      </trkpt>
      <trkpt lat="43.29026" lon="5.66089">
        <ele>254.1</ele>
        <time>2022-03-16T15:35:53Z</time>
      </trkpt>
      <trkpt lat="43.29025" lon="5.66081">
        <ele>253.8</ele>
        <time>2022-03-16T15:35:59Z</time>
      </trkpt>
      <trkpt lat="43.29024" lon="5.66075">
        <ele>254</ele>
        <time>2022-03-16T15:36:05Z</time>
      </trkpt>
      <trkpt lat="43.29024" lon="5.66068">
        <ele>253.6</ele>
        <time>2022-03-16T15:36:11Z</time>
      </trkpt>
      <trkpt lat="43.29024" lon="5.66061">
        <ele>253.2</ele>
        <time>2022-03-16T15:36:15Z</time>
      </trkpt>
      <trkpt lat="43.29023" lon="5.66053">
        <ele>252.8</ele>
        <time>2022-03-16T15:36:19Z</time>
      </trkpt>
      <trkpt lat="43.29023" lon="5.66046">
        <ele>252.2</ele>
        <time>2022-03-16T15:36:23Z</time>
      </trkpt>
      <trkpt lat="43.29022" lon="5.66038">
        <ele>251.5</ele>
        <time>2022-03-16T15:36:27Z</time>
      </trkpt>
      <trkpt lat="43.2902" lon="5.6603">
        <ele>251</ele>
        <time>2022-03-16T15:36:31Z</time>
      </trkpt>
      <trkpt lat="43.29019" lon="5.66022">
        <ele>250.9</ele>
        <time>2022-03-16T15:36:35Z</time>
      </trkpt>
      <trkpt lat="43.29019" lon="5.66015">
        <ele>250.5</ele>
        <time>2022-03-16T15:36:39Z</time>
      </trkpt>
      <trkpt lat="43.29018" lon="5.66009">
        <ele>250.3</ele>
        <time>2022-03-16T15:36:43Z</time>
      </trkpt>
      <trkpt lat="43.29018" lon="5.66">
        <ele>249.9</ele>
        <time>2022-03-16T15:36:49Z</time>
      </trkpt>
      <trkpt lat="43.29018" lon="5.65992">
        <ele>248.6</ele>
        <time>2022-03-16T15:36:55Z</time>
      </trkpt>
      <trkpt lat="43.29022" lon="5.65987">
        <ele>245.8</ele>
        <time>2022-03-16T15:36:59Z</time>
      </trkpt>
      <trkpt lat="43.29026" lon="5.65984">
        <ele>242.1</ele>
        <time>2022-03-16T15:37:05Z</time>
      </trkpt>
      <trkpt lat="43.29031" lon="5.65981">
        <ele>240.1</ele>
        <time>2022-03-16T15:37:15Z</time>
      </trkpt>
      <trkpt lat="43.29034" lon="5.65976">
        <ele>239.2</ele>
        <time>2022-03-16T15:37:23Z</time>
      </trkpt>
      <trkpt lat="43.29038" lon="5.65971">
        <ele>238.5</ele>
        <time>2022-03-16T15:37:29Z</time>
      </trkpt>
      <trkpt lat="43.29038" lon="5.65965">
        <ele>238.1</ele>
        <time>2022-03-16T15:37:39Z</time>
      </trkpt>
      <trkpt lat="43.29037" lon="5.65956">
        <ele>237.5</ele>
        <time>2022-03-16T15:37:49Z</time>
      </trkpt>
      <trkpt lat="43.29036" lon="5.6595">
        <ele>237.1</ele>
        <time>2022-03-16T15:37:55Z</time>
      </trkpt>
      <trkpt lat="43.29035" lon="5.65941">
        <ele>236.6</ele>
        <time>2022-03-16T15:38:01Z</time>
      </trkpt>
      <trkpt lat="43.29034" lon="5.65934">
        <ele>236.4</ele>
        <time>2022-03-16T15:38:05Z</time>
      </trkpt>
      <trkpt lat="43.29032" lon="5.65927">
        <ele>236.2</ele>
        <time>2022-03-16T15:38:11Z</time>
      </trkpt>
      <trkpt lat="43.29031" lon="5.6592">
        <ele>236</ele>
        <time>2022-03-16T15:38:15Z</time>
      </trkpt>
      <trkpt lat="43.29031" lon="5.65912">
        <ele>235.7</ele>
        <time>2022-03-16T15:38:21Z</time>
      </trkpt>
      <trkpt lat="43.29031" lon="5.65905">
        <ele>235.4</ele>
        <time>2022-03-16T15:38:27Z</time>
      </trkpt>
      <trkpt lat="43.29032" lon="5.65897">
        <ele>235.2</ele>
        <time>2022-03-16T15:38:31Z</time>
      </trkpt>
      <trkpt lat="43.29031" lon="5.6589">
        <ele>234.9</ele>
        <time>2022-03-16T15:38:35Z</time>
      </trkpt>
      <trkpt lat="43.29032" lon="5.65882">
        <ele>234.6</ele>
        <time>2022-03-16T15:38:43Z</time>
      </trkpt>
      <trkpt lat="43.29034" lon="5.65875">
        <ele>234.3</ele>
        <time>2022-03-16T15:38:47Z</time>
      </trkpt>
      <trkpt lat="43.29035" lon="5.65868">
        <ele>234</ele>
        <time>2022-03-16T15:38:51Z</time>
      </trkpt>
      <trkpt lat="43.29036" lon="5.65858">
        <ele>234.1</ele>
        <time>2022-03-16T15:38:55Z</time>
      </trkpt>
      <trkpt lat="43.29036" lon="5.6585">
        <ele>235.1</ele>
        <time>2022-03-16T15:38:59Z</time>
      </trkpt>
      <trkpt lat="43.29037" lon="5.65843">
        <ele>235.9</ele>
        <time>2022-03-16T15:39:05Z</time>
      </trkpt>
      <trkpt lat="43.29039" lon="5.65835">
        <ele>236.5</ele>
        <time>2022-03-16T15:39:13Z</time>
      </trkpt>
      <trkpt lat="43.29042" lon="5.65827">
        <ele>236.6</ele>
        <time>2022-03-16T15:39:19Z</time>
      </trkpt>
      <trkpt lat="43.29043" lon="5.6582">
        <ele>237.1</ele>
        <time>2022-03-16T15:39:25Z</time>
      </trkpt>
      <trkpt lat="43.29046" lon="5.65813">
        <ele>236.6</ele>
        <time>2022-03-16T15:39:31Z</time>
      </trkpt>
      <trkpt lat="43.2905" lon="5.65806">
        <ele>234.8</ele>
        <time>2022-03-16T15:39:37Z</time>
      </trkpt>
      <trkpt lat="43.29053" lon="5.65801">
        <ele>233.8</ele>
        <time>2022-03-16T15:39:41Z</time>
      </trkpt>
      <trkpt lat="43.29056" lon="5.65796">
        <ele>232.7</ele>
        <time>2022-03-16T15:39:47Z</time>
      </trkpt>
      <trkpt lat="43.2906" lon="5.65791">
        <ele>232.9</ele>
        <time>2022-03-16T15:39:53Z</time>
      </trkpt>
      <trkpt lat="43.29065" lon="5.65786">
        <ele>233</ele>
        <time>2022-03-16T15:39:59Z</time>
      </trkpt>
      <trkpt lat="43.29069" lon="5.65782">
        <ele>232.9</ele>
        <time>2022-03-16T15:40:03Z</time>
      </trkpt>
      <trkpt lat="43.29074" lon="5.65776">
        <ele>232.9</ele>
        <time>2022-03-16T15:40:09Z</time>
      </trkpt>
      <trkpt lat="43.29076" lon="5.65771">
        <ele>233.1</ele>
        <time>2022-03-16T15:40:13Z</time>
      </trkpt>
      <trkpt lat="43.2908" lon="5.65766">
        <ele>232.5</ele>
        <time>2022-03-16T15:40:17Z</time>
      </trkpt>
      <trkpt lat="43.29084" lon="5.65759">
        <ele>231.3</ele>
        <time>2022-03-16T15:40:23Z</time>
      </trkpt>
      <trkpt lat="43.29087" lon="5.65751">
        <ele>231</ele>
        <time>2022-03-16T15:40:29Z</time>
      </trkpt>
      <trkpt lat="43.2909" lon="5.65745">
        <ele>231</ele>
        <time>2022-03-16T15:40:33Z</time>
      </trkpt>
      <trkpt lat="43.29091" lon="5.65737">
        <ele>231.1</ele>
        <time>2022-03-16T15:40:39Z</time>
      </trkpt>
      <trkpt lat="43.2909" lon="5.65729">
        <ele>231.2</ele>
        <time>2022-03-16T15:40:47Z</time>
      </trkpt>
      <trkpt lat="43.2909" lon="5.65719">
        <ele>231.2</ele>
        <time>2022-03-16T15:40:53Z</time>
      </trkpt>
      <trkpt lat="43.29089" lon="5.65713">
        <ele>231.1</ele>
        <time>2022-03-16T15:40:57Z</time>
      </trkpt>
      <trkpt lat="43.29087" lon="5.65705">
        <ele>231.1</ele>
        <time>2022-03-16T15:41:03Z</time>
      </trkpt>
      <trkpt lat="43.29087" lon="5.65698">
        <ele>231</ele>
        <time>2022-03-16T15:41:07Z</time>
      </trkpt>
      <trkpt lat="43.29087" lon="5.65692">
        <ele>230.9</ele>
        <time>2022-03-16T15:41:11Z</time>
      </trkpt>
      <trkpt lat="43.29088" lon="5.65684">
        <ele>230.6</ele>
        <time>2022-03-16T15:41:15Z</time>
      </trkpt>
      <trkpt lat="43.29087" lon="5.65676">
        <ele>230.3</ele>
        <time>2022-03-16T15:41:19Z</time>
      </trkpt>
      <trkpt lat="43.29085" lon="5.65668">
        <ele>230</ele>
        <time>2022-03-16T15:41:25Z</time>
      </trkpt>
      <trkpt lat="43.29082" lon="5.65663">
        <ele>230.4</ele>
        <time>2022-03-16T15:41:31Z</time>
      </trkpt>
      <trkpt lat="43.29079" lon="5.65657">
        <ele>230.9</ele>
        <time>2022-03-16T15:41:37Z</time>
      </trkpt>
      <trkpt lat="43.29077" lon="5.65651">
        <ele>230.5</ele>
        <time>2022-03-16T15:41:41Z</time>
      </trkpt>
      <trkpt lat="43.29076" lon="5.65643">
        <ele>229.8</ele>
        <time>2022-03-16T15:41:45Z</time>
      </trkpt>
      <trkpt lat="43.29074" lon="5.65637">
        <ele>229.3</ele>
        <time>2022-03-16T15:41:49Z</time>
      </trkpt>
      <trkpt lat="43.29071" lon="5.65632">
        <ele>229.3</ele>
        <time>2022-03-16T15:41:53Z</time>
      </trkpt>
      <trkpt lat="43.29068" lon="5.65624">
        <ele>229.3</ele>
        <time>2022-03-16T15:41:59Z</time>
      </trkpt>
      <trkpt lat="43.29066" lon="5.65618">
        <ele>229.2</ele>
        <time>2022-03-16T15:42:03Z</time>
      </trkpt>
      <trkpt lat="43.29064" lon="5.65612">
        <ele>229</ele>
        <time>2022-03-16T15:42:07Z</time>
      </trkpt>
      <trkpt lat="43.29063" lon="5.65605">
        <ele>228.9</ele>
        <time>2022-03-16T15:42:11Z</time>
      </trkpt>
      <trkpt lat="43.29062" lon="5.65598">
        <ele>228.9</ele>
        <time>2022-03-16T15:42:17Z</time>
      </trkpt>
      <trkpt lat="43.29064" lon="5.65591">
        <ele>228.8</ele>
        <time>2022-03-16T15:42:23Z</time>
      </trkpt>
      <trkpt lat="43.29067" lon="5.65585">
        <ele>228.6</ele>
        <time>2022-03-16T15:42:29Z</time>
      </trkpt>
      <trkpt lat="43.29069" lon="5.65577">
        <ele>229.1</ele>
        <time>2022-03-16T15:42:35Z</time>
      </trkpt>
      <trkpt lat="43.29071" lon="5.6557">
        <ele>229.4</ele>
        <time>2022-03-16T15:42:41Z</time>
      </trkpt>
      <trkpt lat="43.29075" lon="5.65568">
        <ele>229.1</ele>
        <time>2022-03-16T15:42:47Z</time>
      </trkpt>
      <trkpt lat="43.2908" lon="5.65561">
        <ele>228.6</ele>
        <time>2022-03-16T15:42:53Z</time>
      </trkpt>
      <trkpt lat="43.29083" lon="5.65555">
        <ele>228.1</ele>
        <time>2022-03-16T15:42:57Z</time>
      </trkpt>
      <trkpt lat="43.29085" lon="5.65549">
        <ele>228.4</ele>
        <time>2022-03-16T15:43:01Z</time>
      </trkpt>
      <trkpt lat="43.29087" lon="5.65543">
        <ele>228.8</ele>
        <time>2022-03-16T15:43:05Z</time>
      </trkpt>
      <trkpt lat="43.29091" lon="5.65537">
        <ele>229</ele>
        <time>2022-03-16T15:43:13Z</time>
      </trkpt>
      <trkpt lat="43.29095" lon="5.6553">
        <ele>229.1</ele>
        <time>2022-03-16T15:43:19Z</time>
      </trkpt>
      <trkpt lat="43.29098" lon="5.65523">
        <ele>229.3</ele>
        <time>2022-03-16T15:43:25Z</time>
      </trkpt>
      <trkpt lat="43.29102" lon="5.65516">
        <ele>229.3</ele>
        <time>2022-03-16T15:43:29Z</time>
      </trkpt>
      <trkpt lat="43.29104" lon="5.65509">
        <ele>229.4</ele>
        <time>2022-03-16T15:43:33Z</time>
      </trkpt>
      <trkpt lat="43.29106" lon="5.65503">
        <ele>229.3</ele>
        <time>2022-03-16T15:43:37Z</time>
      </trkpt>
      <trkpt lat="43.29106" lon="5.65495">
        <ele>229.2</ele>
        <time>2022-03-16T15:43:41Z</time>
      </trkpt>
      <trkpt lat="43.29106" lon="5.65488">
        <ele>229.1</ele>
        <time>2022-03-16T15:43:45Z</time>
      </trkpt>
      <trkpt lat="43.29106" lon="5.6548">
        <ele>229</ele>
        <time>2022-03-16T15:43:49Z</time>
      </trkpt>
      <trkpt lat="43.29107" lon="5.6547">
        <ele>228.8</ele>
        <time>2022-03-16T15:43:53Z</time>
      </trkpt>
      <trkpt lat="43.29108" lon="5.65463">
        <ele>228.5</ele>
        <time>2022-03-16T15:43:57Z</time>
      </trkpt>
      <trkpt lat="43.2911" lon="5.65454">
        <ele>228</ele>
        <time>2022-03-16T15:44:03Z</time>
      </trkpt>
      <trkpt lat="43.29111" lon="5.65448">
        <ele>227</ele>
        <time>2022-03-16T15:44:09Z</time>
      </trkpt>
      <trkpt lat="43.29112" lon="5.65441">
        <ele>226.8</ele>
        <time>2022-03-16T15:44:15Z</time>
      </trkpt>
      <trkpt lat="43.29115" lon="5.65434">
        <ele>226.5</ele>
        <time>2022-03-16T15:44:21Z</time>
      </trkpt>
      <trkpt lat="43.29115" lon="5.65426">
        <ele>226.2</ele>
        <time>2022-03-16T15:44:25Z</time>
      </trkpt>
      <trkpt lat="43.29116" lon="5.65418">
        <ele>225.9</ele>
        <time>2022-03-16T15:44:31Z</time>
      </trkpt>
      <trkpt lat="43.29117" lon="5.65411">
        <ele>225.8</ele>
        <time>2022-03-16T15:44:37Z</time>
      </trkpt>
      <trkpt lat="43.29119" lon="5.65404">
        <ele>225.7</ele>
        <time>2022-03-16T15:44:43Z</time>
      </trkpt>
      <trkpt lat="43.29118" lon="5.65396">
        <ele>225.7</ele>
        <time>2022-03-16T15:44:49Z</time>
      </trkpt>
      <trkpt lat="43.29117" lon="5.6539">
        <ele>225.8</ele>
        <time>2022-03-16T15:44:53Z</time>
      </trkpt>
      <trkpt lat="43.29116" lon="5.65383">
        <ele>225.6</ele>
        <time>2022-03-16T15:44:57Z</time>
      </trkpt>
      <trkpt lat="43.29116" lon="5.65375">
        <ele>225.4</ele>
        <time>2022-03-16T15:45:03Z</time>
      </trkpt>
      <trkpt lat="43.29116" lon="5.65368">
        <ele>225.2</ele>
        <time>2022-03-16T15:45:07Z</time>
      </trkpt>
      <trkpt lat="43.29116" lon="5.65359">
        <ele>225</ele>
        <time>2022-03-16T15:45:13Z</time>
      </trkpt>
      <trkpt lat="43.29116" lon="5.65351">
        <ele>224.9</ele>
        <time>2022-03-16T15:45:19Z</time>
      </trkpt>
      <trkpt lat="43.29115" lon="5.65341">
        <ele>224.9</ele>
        <time>2022-03-16T15:45:25Z</time>
      </trkpt>
      <trkpt lat="43.29112" lon="5.65331">
        <ele>224.9</ele>
        <time>2022-03-16T15:45:29Z</time>
      </trkpt>
      <trkpt lat="43.2911" lon="5.65321">
        <ele>225.1</ele>
        <time>2022-03-16T15:45:33Z</time>
      </trkpt>
      <trkpt lat="43.29108" lon="5.65312">
        <ele>225.7</ele>
        <time>2022-03-16T15:45:37Z</time>
      </trkpt>
      <trkpt lat="43.29107" lon="5.65304">
        <ele>226</ele>
        <time>2022-03-16T15:45:43Z</time>
      </trkpt>
      <trkpt lat="43.29106" lon="5.65296">
        <ele>226.5</ele>
        <time>2022-03-16T15:45:47Z</time>
      </trkpt>
      <trkpt lat="43.29104" lon="5.65289">
        <ele>227.2</ele>
        <time>2022-03-16T15:45:51Z</time>
      </trkpt>
      <trkpt lat="43.29102" lon="5.65283">
        <ele>227.5</ele>
        <time>2022-03-16T15:45:55Z</time>
      </trkpt>
      <trkpt lat="43.29101" lon="5.65276">
        <ele>227.3</ele>
        <time>2022-03-16T15:45:59Z</time>
      </trkpt>
      <trkpt lat="43.291" lon="5.65268">
        <ele>227.2</ele>
        <time>2022-03-16T15:46:05Z</time>
      </trkpt>
      <trkpt lat="43.29098" lon="5.65261">
        <ele>226.9</ele>
        <time>2022-03-16T15:46:11Z</time>
      </trkpt>
      <trkpt lat="43.29096" lon="5.65253">
        <ele>226.5</ele>
        <time>2022-03-16T15:46:17Z</time>
      </trkpt>
      <trkpt lat="43.29094" lon="5.65247">
        <ele>226.4</ele>
        <time>2022-03-16T15:46:21Z</time>
      </trkpt>
      <trkpt lat="43.29093" lon="5.65241">
        <ele>225.9</ele>
        <time>2022-03-16T15:46:25Z</time>
      </trkpt>
      <trkpt lat="43.29091" lon="5.65233">
        <ele>225.2</ele>
        <time>2022-03-16T15:46:31Z</time>
      </trkpt>
      <trkpt lat="43.29089" lon="5.65227">
        <ele>224.4</ele>
        <time>2022-03-16T15:46:37Z</time>
      </trkpt>
      <trkpt lat="43.29087" lon="5.65219">
        <ele>223.8</ele>
        <time>2022-03-16T15:46:43Z</time>
      </trkpt>
      <trkpt lat="43.29086" lon="5.6521">
        <ele>223.9</ele>
        <time>2022-03-16T15:46:49Z</time>
      </trkpt>
      <trkpt lat="43.29084" lon="5.65202">
        <ele>224</ele>
        <time>2022-03-16T15:46:55Z</time>
      </trkpt>
      <trkpt lat="43.29083" lon="5.65196">
        <ele>224.3</ele>
        <time>2022-03-16T15:46:59Z</time>
      </trkpt>
      <trkpt lat="43.29083" lon="5.65188">
        <ele>223.9</ele>
        <time>2022-03-16T15:47:05Z</time>
      </trkpt>
      <trkpt lat="43.29084" lon="5.6518">
        <ele>223.4</ele>
        <time>2022-03-16T15:47:11Z</time>
      </trkpt>
      <trkpt lat="43.29085" lon="5.65174">
        <ele>223.1</ele>
        <time>2022-03-16T15:47:15Z</time>
      </trkpt>
      <trkpt lat="43.29088" lon="5.65166">
        <ele>222.7</ele>
        <time>2022-03-16T15:47:19Z</time>
      </trkpt>
      <trkpt lat="43.29089" lon="5.6516">
        <ele>223</ele>
        <time>2022-03-16T15:47:23Z</time>
      </trkpt>
      <trkpt lat="43.29091" lon="5.65153">
        <ele>223.2</ele>
        <time>2022-03-16T15:47:27Z</time>
      </trkpt>
      <trkpt lat="43.29094" lon="5.65147">
        <ele>223.1</ele>
        <time>2022-03-16T15:47:31Z</time>
      </trkpt>
      <trkpt lat="43.29098" lon="5.65142">
        <ele>222.8</ele>
        <time>2022-03-16T15:47:35Z</time>
      </trkpt>
      <trkpt lat="43.29101" lon="5.65136">
        <ele>222.6</ele>
        <time>2022-03-16T15:47:39Z</time>
      </trkpt>
      <trkpt lat="43.29103" lon="5.65127">
        <ele>222.9</ele>
        <time>2022-03-16T15:47:45Z</time>
      </trkpt>
      <trkpt lat="43.29105" lon="5.6512">
        <ele>222.7</ele>
        <time>2022-03-16T15:47:51Z</time>
      </trkpt>
      <trkpt lat="43.29107" lon="5.65113">
        <ele>222.2</ele>
        <time>2022-03-16T15:47:55Z</time>
      </trkpt>
      <trkpt lat="43.29109" lon="5.65105">
        <ele>221.5</ele>
        <time>2022-03-16T15:47:59Z</time>
      </trkpt>
      <trkpt lat="43.29112" lon="5.65098">
        <ele>221</ele>
        <time>2022-03-16T15:48:05Z</time>
      </trkpt>
      <trkpt lat="43.29114" lon="5.6509">
        <ele>221</ele>
        <time>2022-03-16T15:48:11Z</time>
      </trkpt>
      <trkpt lat="43.29116" lon="5.65084">
        <ele>221</ele>
        <time>2022-03-16T15:48:15Z</time>
      </trkpt>
      <trkpt lat="43.29117" lon="5.65077">
        <ele>220.8</ele>
        <time>2022-03-16T15:48:23Z</time>
      </trkpt>
      <trkpt lat="43.29119" lon="5.65071">
        <ele>220.6</ele>
        <time>2022-03-16T15:48:29Z</time>
      </trkpt>
      <trkpt lat="43.2912" lon="5.65064">
        <ele>220.3</ele>
        <time>2022-03-16T15:48:33Z</time>
      </trkpt>
      <trkpt lat="43.2912" lon="5.65057">
        <ele>220.1</ele>
        <time>2022-03-16T15:48:37Z</time>
      </trkpt>
      <trkpt lat="43.29118" lon="5.65049">
        <ele>220</ele>
        <time>2022-03-16T15:48:41Z</time>
      </trkpt>
      <trkpt lat="43.29114" lon="5.65042">
        <ele>220</ele>
        <time>2022-03-16T15:48:47Z</time>
      </trkpt>
      <trkpt lat="43.2911" lon="5.65039">
        <ele>220</ele>
        <time>2022-03-16T15:48:51Z</time>
      </trkpt>
      <trkpt lat="43.29105" lon="5.65038">
        <ele>220.1</ele>
        <time>2022-03-16T15:49:01Z</time>
      </trkpt>
      <trkpt lat="43.291" lon="5.65037">
        <ele>220.1</ele>
        <time>2022-03-16T15:49:17Z</time>
      </trkpt>
      <trkpt lat="43.29098" lon="5.65043">
        <ele>220.3</ele>
        <time>2022-03-16T15:49:47Z</time>
      </trkpt>
      <trkpt lat="43.29092" lon="5.65044">
        <ele>220.4</ele>
        <time>2022-03-16T15:51:15Z</time>
      </trkpt>
      <trkpt lat="43.29087" lon="5.65042">
        <ele>220.4</ele>
        <time>2022-03-16T15:51:21Z</time>
      </trkpt>
      <trkpt lat="43.29084" lon="5.65037">
        <ele>220.3</ele>
        <time>2022-03-16T15:51:27Z</time>
      </trkpt>
      <trkpt lat="43.29082" lon="5.6503">
        <ele>220.7</ele>
        <time>2022-03-16T15:51:33Z</time>
      </trkpt>
      <trkpt lat="43.29081" lon="5.65022">
        <ele>220.7</ele>
        <time>2022-03-16T15:51:41Z</time>
      </trkpt>
      <trkpt lat="43.29081" lon="5.65014">
        <ele>220.1</ele>
        <time>2022-03-16T15:51:47Z</time>
      </trkpt>
      <trkpt lat="43.29081" lon="5.65009">
        <ele>219.7</ele>
        <time>2022-03-16T15:51:52Z</time>
      </trkpt>
      <trkpt lat="43.2908" lon="5.65">
        <ele>219.7</ele>
        <time>2022-03-16T15:51:59Z</time>
      </trkpt>
      <trkpt lat="43.29079" lon="5.64993">
        <ele>219.4</ele>
        <time>2022-03-16T15:52:03Z</time>
      </trkpt>
      <trkpt lat="43.29078" lon="5.64987">
        <ele>219</ele>
        <time>2022-03-16T15:52:07Z</time>
      </trkpt>
      <trkpt lat="43.29076" lon="5.64976">
        <ele>218.4</ele>
        <time>2022-03-16T15:52:13Z</time>
      </trkpt>
      <trkpt lat="43.29075" lon="5.64969">
        <ele>217.3</ele>
        <time>2022-03-16T15:52:17Z</time>
      </trkpt>
      <trkpt lat="43.29074" lon="5.64962">
        <ele>215.9</ele>
        <time>2022-03-16T15:52:21Z</time>
      </trkpt>
      <trkpt lat="43.29073" lon="5.64955">
        <ele>214.5</ele>
        <time>2022-03-16T15:52:25Z</time>
      </trkpt>
      <trkpt lat="43.29071" lon="5.6495">
        <ele>213.3</ele>
        <time>2022-03-16T15:52:29Z</time>
      </trkpt>
      <trkpt lat="43.29067" lon="5.64946">
        <ele>212.7</ele>
        <time>2022-03-16T15:52:35Z</time>
      </trkpt>
      <trkpt lat="43.29062" lon="5.64949">
        <ele>214</ele>
        <time>2022-03-16T15:52:47Z</time>
      </trkpt>
      <trkpt lat="43.29056" lon="5.64951">
        <ele>215.5</ele>
        <time>2022-03-16T15:52:53Z</time>
      </trkpt>
      <trkpt lat="43.29051" lon="5.64952">
        <ele>215.7</ele>
        <time>2022-03-16T15:52:59Z</time>
      </trkpt>
      <trkpt lat="43.29046" lon="5.64952">
        <ele>216</ele>
        <time>2022-03-16T15:53:05Z</time>
      </trkpt>
      <trkpt lat="43.29041" lon="5.64949">
        <ele>214.9</ele>
        <time>2022-03-16T15:53:11Z</time>
      </trkpt>
      <trkpt lat="43.29036" lon="5.64949">
        <ele>214.8</ele>
        <time>2022-03-16T15:53:17Z</time>
      </trkpt>
      <trkpt lat="43.29031" lon="5.64949">
        <ele>215.1</ele>
        <time>2022-03-16T15:53:21Z</time>
      </trkpt>
      <trkpt lat="43.29025" lon="5.64948">
        <ele>214.5</ele>
        <time>2022-03-16T15:53:29Z</time>
      </trkpt>
      <trkpt lat="43.2902" lon="5.64948">
        <ele>214.8</ele>
        <time>2022-03-16T15:53:33Z</time>
      </trkpt>
      <trkpt lat="43.29015" lon="5.64948">
        <ele>214.8</ele>
        <time>2022-03-16T15:53:37Z</time>
      </trkpt>
      <trkpt lat="43.29009" lon="5.64945">
        <ele>213.9</ele>
        <time>2022-03-16T15:53:43Z</time>
      </trkpt>
      <trkpt lat="43.29003" lon="5.64939">
        <ele>213.5</ele>
        <time>2022-03-16T15:53:49Z</time>
      </trkpt>
      <trkpt lat="43.29001" lon="5.64933">
        <ele>213.1</ele>
        <time>2022-03-16T15:53:55Z</time>
      </trkpt>
      <trkpt lat="43.29003" lon="5.64927">
        <ele>212.5</ele>
        <time>2022-03-16T15:54:01Z</time>
      </trkpt>
      <trkpt lat="43.29007" lon="5.64922">
        <ele>211.7</ele>
        <time>2022-03-16T15:54:07Z</time>
      </trkpt>
      <trkpt lat="43.29012" lon="5.64918">
        <ele>210.8</ele>
        <time>2022-03-16T15:54:13Z</time>
      </trkpt>
      <trkpt lat="43.29016" lon="5.64915">
        <ele>210.2</ele>
        <time>2022-03-16T15:54:17Z</time>
      </trkpt>
      <trkpt lat="43.29021" lon="5.64913">
        <ele>209.7</ele>
        <time>2022-03-16T15:54:21Z</time>
      </trkpt>
      <trkpt lat="43.29026" lon="5.64912">
        <ele>209.2</ele>
        <time>2022-03-16T15:54:25Z</time>
      </trkpt>
      <trkpt lat="43.29031" lon="5.64912">
        <ele>209</ele>
        <time>2022-03-16T15:54:29Z</time>
      </trkpt>
      <trkpt lat="43.29036" lon="5.64913">
        <ele>208.9</ele>
        <time>2022-03-16T15:54:33Z</time>
      </trkpt>
      <trkpt lat="43.29041" lon="5.64913">
        <ele>208.9</ele>
        <time>2022-03-16T15:54:37Z</time>
      </trkpt>
      <trkpt lat="43.29046" lon="5.64912">
        <ele>208.8</ele>
        <time>2022-03-16T15:54:43Z</time>
      </trkpt>
      <trkpt lat="43.29053" lon="5.64911">
        <ele>208.6</ele>
        <time>2022-03-16T15:54:49Z</time>
      </trkpt>
      <trkpt lat="43.29057" lon="5.64909">
        <ele>208.4</ele>
        <time>2022-03-16T15:54:53Z</time>
      </trkpt>
      <trkpt lat="43.29063" lon="5.64907">
        <ele>208.1</ele>
        <time>2022-03-16T15:54:57Z</time>
      </trkpt>
      <trkpt lat="43.29068" lon="5.64905">
        <ele>207.7</ele>
        <time>2022-03-16T15:55:01Z</time>
      </trkpt>
      <trkpt lat="43.29073" lon="5.64905">
        <ele>207.5</ele>
        <time>2022-03-16T15:55:05Z</time>
      </trkpt>
      <trkpt lat="43.29079" lon="5.64904">
        <ele>207.3</ele>
        <time>2022-03-16T15:55:09Z</time>
      </trkpt>
      <trkpt lat="43.29083" lon="5.64903">
        <ele>207</ele>
        <time>2022-03-16T15:55:13Z</time>
      </trkpt>
      <trkpt lat="43.29087" lon="5.649">
        <ele>207.1</ele>
        <time>2022-03-16T15:55:17Z</time>
      </trkpt>
      <trkpt lat="43.29093" lon="5.64896">
        <ele>207.3</ele>
        <time>2022-03-16T15:55:23Z</time>
      </trkpt>
      <trkpt lat="43.29098" lon="5.6489">
        <ele>207.1</ele>
        <time>2022-03-16T15:55:29Z</time>
      </trkpt>
      <trkpt lat="43.29102" lon="5.64883">
        <ele>207.1</ele>
        <time>2022-03-16T15:55:33Z</time>
      </trkpt>
      <trkpt lat="43.29105" lon="5.64879">
        <ele>207</ele>
        <time>2022-03-16T15:55:37Z</time>
      </trkpt>
      <trkpt lat="43.29108" lon="5.64874">
        <ele>206.8</ele>
        <time>2022-03-16T15:55:41Z</time>
      </trkpt>
      <trkpt lat="43.29112" lon="5.6487">
        <ele>206.5</ele>
        <time>2022-03-16T15:55:45Z</time>
      </trkpt>
      <trkpt lat="43.29116" lon="5.64867">
        <ele>205.4</ele>
        <time>2022-03-16T15:55:49Z</time>
      </trkpt>
      <trkpt lat="43.29122" lon="5.64866">
        <ele>203.9</ele>
        <time>2022-03-16T15:55:55Z</time>
      </trkpt>
      <trkpt lat="43.29127" lon="5.64867">
        <ele>202.8</ele>
        <time>2022-03-16T15:56:01Z</time>
      </trkpt>
      <trkpt lat="43.29128" lon="5.6486">
        <ele>202.5</ele>
        <time>2022-03-16T15:57:59Z</time>
      </trkpt>
      <trkpt lat="43.29124" lon="5.64855">
        <ele>203.3</ele>
        <time>2022-03-16T15:58:05Z</time>
      </trkpt>
      <trkpt lat="43.29119" lon="5.64851">
        <ele>204.3</ele>
        <time>2022-03-16T15:58:11Z</time>
      </trkpt>
      <trkpt lat="43.29114" lon="5.64845">
        <ele>204.9</ele>
        <time>2022-03-16T15:58:17Z</time>
      </trkpt>
      <trkpt lat="43.29113" lon="5.64837">
        <ele>204.9</ele>
        <time>2022-03-16T15:58:23Z</time>
      </trkpt>
      <trkpt lat="43.29114" lon="5.64829">
        <ele>204.5</ele>
        <time>2022-03-16T15:58:29Z</time>
      </trkpt>
      <trkpt lat="43.29115" lon="5.64823">
        <ele>204.2</ele>
        <time>2022-03-16T15:58:33Z</time>
      </trkpt>
      <trkpt lat="43.29119" lon="5.64821">
        <ele>203.5</ele>
        <time>2022-03-16T15:58:41Z</time>
      </trkpt>
      <trkpt lat="43.29124" lon="5.64817">
        <ele>202.8</ele>
        <time>2022-03-16T15:58:47Z</time>
      </trkpt>
      <trkpt lat="43.2913" lon="5.64816">
        <ele>202</ele>
        <time>2022-03-16T15:58:53Z</time>
      </trkpt>
      <trkpt lat="43.29135" lon="5.64816">
        <ele>201.2</ele>
        <time>2022-03-16T15:58:57Z</time>
      </trkpt>
      <trkpt lat="43.29141" lon="5.64815">
        <ele>200.5</ele>
        <time>2022-03-16T15:59:01Z</time>
      </trkpt>
      <trkpt lat="43.29146" lon="5.64812">
        <ele>199.8</ele>
        <time>2022-03-16T15:59:07Z</time>
      </trkpt>
      <trkpt lat="43.2915" lon="5.64808">
        <ele>199.2</ele>
        <time>2022-03-16T15:59:13Z</time>
      </trkpt>
      <trkpt lat="43.29152" lon="5.64802">
        <ele>199.1</ele>
        <time>2022-03-16T15:59:17Z</time>
      </trkpt>
      <trkpt lat="43.29154" lon="5.64796">
        <ele>199</ele>
        <time>2022-03-16T15:59:21Z</time>
      </trkpt>
      <trkpt lat="43.29157" lon="5.64791">
        <ele>198.7</ele>
        <time>2022-03-16T15:59:25Z</time>
      </trkpt>
      <trkpt lat="43.29159" lon="5.64783">
        <ele>198.4</ele>
        <time>2022-03-16T15:59:31Z</time>
      </trkpt>
      <trkpt lat="43.2916" lon="5.64775">
        <ele>198.2</ele>
        <time>2022-03-16T15:59:37Z</time>
      </trkpt>
      <trkpt lat="43.29162" lon="5.64767">
        <ele>197.9</ele>
        <time>2022-03-16T15:59:43Z</time>
      </trkpt>
      <trkpt lat="43.29164" lon="5.64761">
        <ele>197.3</ele>
        <time>2022-03-16T15:59:49Z</time>
      </trkpt>
      <trkpt lat="43.29168" lon="5.64763">
        <ele>196.3</ele>
        <time>2022-03-16T15:59:57Z</time>
      </trkpt>
      <trkpt lat="43.29172" lon="5.64768">
        <ele>196.2</ele>
        <time>2022-03-16T16:00:03Z</time>
      </trkpt>
      <trkpt lat="43.29177" lon="5.64763">
        <ele>195.6</ele>
        <time>2022-03-16T16:00:11Z</time>
      </trkpt>
      <trkpt lat="43.29178" lon="5.64757">
        <ele>195.1</ele>
        <time>2022-03-16T16:00:15Z</time>
      </trkpt>
      <trkpt lat="43.29177" lon="5.64751">
        <ele>194.9</ele>
        <time>2022-03-16T16:00:19Z</time>
      </trkpt>
      <trkpt lat="43.29176" lon="5.64742">
        <ele>194.6</ele>
        <time>2022-03-16T16:00:23Z</time>
      </trkpt>
      <trkpt lat="43.29172" lon="5.64736">
        <ele>194.6</ele>
        <time>2022-03-16T16:00:29Z</time>
      </trkpt>
      <trkpt lat="43.2917" lon="5.6473">
        <ele>194.4</ele>
        <time>2022-03-16T16:00:33Z</time>
      </trkpt>
      <trkpt lat="43.29171" lon="5.64723">
        <ele>193.9</ele>
        <time>2022-03-16T16:00:39Z</time>
      </trkpt>
      <trkpt lat="43.29173" lon="5.64714">
        <ele>193.4</ele>
        <time>2022-03-16T16:00:45Z</time>
      </trkpt>
      <trkpt lat="43.29175" lon="5.64708">
        <ele>193</ele>
        <time>2022-03-16T16:00:49Z</time>
      </trkpt>
      <trkpt lat="43.29176" lon="5.64699">
        <ele>192.5</ele>
        <time>2022-03-16T16:00:55Z</time>
      </trkpt>
      <trkpt lat="43.29176" lon="5.6469">
        <ele>192.2</ele>
        <time>2022-03-16T16:01:01Z</time>
      </trkpt>
      <trkpt lat="43.29176" lon="5.64682">
        <ele>192</ele>
        <time>2022-03-16T16:01:07Z</time>
      </trkpt>
      <trkpt lat="43.29178" lon="5.64675">
        <ele>191.6</ele>
        <time>2022-03-16T16:01:11Z</time>
      </trkpt>
      <trkpt lat="43.29182" lon="5.6467">
        <ele>190.9</ele>
        <time>2022-03-16T16:01:15Z</time>
      </trkpt>
      <trkpt lat="43.29185" lon="5.64664">
        <ele>190.2</ele>
        <time>2022-03-16T16:01:21Z</time>
      </trkpt>
      <trkpt lat="43.29187" lon="5.64657">
        <ele>189.5</ele>
        <time>2022-03-16T16:01:27Z</time>
      </trkpt>
      <trkpt lat="43.29189" lon="5.6465">
        <ele>189</ele>
        <time>2022-03-16T16:01:31Z</time>
      </trkpt>
      <trkpt lat="43.2919" lon="5.64644">
        <ele>188.5</ele>
        <time>2022-03-16T16:01:35Z</time>
      </trkpt>
      <trkpt lat="43.29192" lon="5.64637">
        <ele>188.1</ele>
        <time>2022-03-16T16:01:39Z</time>
      </trkpt>
      <trkpt lat="43.29195" lon="5.64628">
        <ele>187.6</ele>
        <time>2022-03-16T16:01:45Z</time>
      </trkpt>
      <trkpt lat="43.29196" lon="5.64621">
        <ele>187.3</ele>
        <time>2022-03-16T16:01:49Z</time>
      </trkpt>
      <trkpt lat="43.29196" lon="5.64615">
        <ele>187.1</ele>
        <time>2022-03-16T16:01:53Z</time>
      </trkpt>
      <trkpt lat="43.29196" lon="5.64608">
        <ele>186.8</ele>
        <time>2022-03-16T16:01:59Z</time>
      </trkpt>
      <trkpt lat="43.29195" lon="5.64602">
        <ele>186.3</ele>
        <time>2022-03-16T16:02:03Z</time>
      </trkpt>
      <trkpt lat="43.29193" lon="5.64593">
        <ele>185.7</ele>
        <time>2022-03-16T16:02:09Z</time>
      </trkpt>
      <trkpt lat="43.2919" lon="5.64588">
        <ele>185.3</ele>
        <time>2022-03-16T16:02:13Z</time>
      </trkpt>
      <trkpt lat="43.29185" lon="5.64583">
        <ele>185</ele>
        <time>2022-03-16T16:02:17Z</time>
      </trkpt>
      <trkpt lat="43.29181" lon="5.64575">
        <ele>184.7</ele>
        <time>2022-03-16T16:02:23Z</time>
      </trkpt>
      <trkpt lat="43.29177" lon="5.6457">
        <ele>184.5</ele>
        <time>2022-03-16T16:02:29Z</time>
      </trkpt>
      <trkpt lat="43.29173" lon="5.64564">
        <ele>184.3</ele>
        <time>2022-03-16T16:02:35Z</time>
      </trkpt>
      <trkpt lat="43.29171" lon="5.64558">
        <ele>184.1</ele>
        <time>2022-03-16T16:02:41Z</time>
      </trkpt>
      <trkpt lat="43.29169" lon="5.64551">
        <ele>183.9</ele>
        <time>2022-03-16T16:02:47Z</time>
      </trkpt>
      <trkpt lat="43.29169" lon="5.64544">
        <ele>183.7</ele>
        <time>2022-03-16T16:02:51Z</time>
      </trkpt>
      <trkpt lat="43.29169" lon="5.64537">
        <ele>183.5</ele>
        <time>2022-03-16T16:02:55Z</time>
      </trkpt>
      <trkpt lat="43.2917" lon="5.64529">
        <ele>183.2</ele>
        <time>2022-03-16T16:02:59Z</time>
      </trkpt>
      <trkpt lat="43.29169" lon="5.64522">
        <ele>182.8</ele>
        <time>2022-03-16T16:03:03Z</time>
      </trkpt>
      <trkpt lat="43.29167" lon="5.64513">
        <ele>181.9</ele>
        <time>2022-03-16T16:03:09Z</time>
      </trkpt>
      <trkpt lat="43.29165" lon="5.64507">
        <ele>181.5</ele>
        <time>2022-03-16T16:03:13Z</time>
      </trkpt>
      <trkpt lat="43.29162" lon="5.64501">
        <ele>181.1</ele>
        <time>2022-03-16T16:03:17Z</time>
      </trkpt>
      <trkpt lat="43.2916" lon="5.64494">
        <ele>181</ele>
        <time>2022-03-16T16:03:21Z</time>
      </trkpt>
      <trkpt lat="43.29156" lon="5.64488">
        <ele>181</ele>
        <time>2022-03-16T16:03:27Z</time>
      </trkpt>
      <trkpt lat="43.29155" lon="5.6448">
        <ele>181</ele>
        <time>2022-03-16T16:03:37Z</time>
      </trkpt>
      <trkpt lat="43.29156" lon="5.64473">
        <ele>181</ele>
        <time>2022-03-16T16:03:45Z</time>
      </trkpt>
      <trkpt lat="43.29158" lon="5.64466">
        <ele>180.8</ele>
        <time>2022-03-16T16:03:49Z</time>
      </trkpt>
      <trkpt lat="43.29159" lon="5.64461">
        <ele>180.6</ele>
        <time>2022-03-16T16:03:53Z</time>
      </trkpt>
      <trkpt lat="43.29162" lon="5.64454">
        <ele>180.3</ele>
        <time>2022-03-16T16:03:57Z</time>
      </trkpt>
      <trkpt lat="43.29165" lon="5.64449">
        <ele>180.2</ele>
        <time>2022-03-16T16:04:01Z</time>
      </trkpt>
      <trkpt lat="43.2917" lon="5.64444">
        <ele>180.1</ele>
        <time>2022-03-16T16:04:07Z</time>
      </trkpt>
      <trkpt lat="43.29176" lon="5.6444">
        <ele>180.2</ele>
        <time>2022-03-16T16:04:13Z</time>
      </trkpt>
      <trkpt lat="43.2918" lon="5.64435">
        <ele>180.1</ele>
        <time>2022-03-16T16:04:19Z</time>
      </trkpt>
      <trkpt lat="43.29184" lon="5.64429">
        <ele>180.1</ele>
        <time>2022-03-16T16:04:25Z</time>
      </trkpt>
      <trkpt lat="43.29186" lon="5.64422">
        <ele>179.9</ele>
        <time>2022-03-16T16:04:31Z</time>
      </trkpt>
      <trkpt lat="43.29187" lon="5.64416">
        <ele>179.7</ele>
        <time>2022-03-16T16:04:37Z</time>
      </trkpt>
      <trkpt lat="43.29188" lon="5.64406">
        <ele>179.2</ele>
        <time>2022-03-16T16:04:43Z</time>
      </trkpt>
      <trkpt lat="43.2919" lon="5.64399">
        <ele>178.8</ele>
        <time>2022-03-16T16:04:47Z</time>
      </trkpt>
      <trkpt lat="43.29194" lon="5.64391">
        <ele>178.2</ele>
        <time>2022-03-16T16:04:53Z</time>
      </trkpt>
      <trkpt lat="43.29196" lon="5.64384">
        <ele>178.1</ele>
        <time>2022-03-16T16:04:57Z</time>
      </trkpt>
      <trkpt lat="43.29197" lon="5.64377">
        <ele>178.2</ele>
        <time>2022-03-16T16:05:01Z</time>
      </trkpt>
      <trkpt lat="43.29198" lon="5.64369">
        <ele>178.2</ele>
        <time>2022-03-16T16:05:05Z</time>
      </trkpt>
      <trkpt lat="43.29201" lon="5.64362">
        <ele>178.5</ele>
        <time>2022-03-16T16:05:11Z</time>
      </trkpt>
      <trkpt lat="43.29202" lon="5.64355">
        <ele>178.2</ele>
        <time>2022-03-16T16:05:17Z</time>
      </trkpt>
      <trkpt lat="43.29202" lon="5.64348">
        <ele>178</ele>
        <time>2022-03-16T16:05:21Z</time>
      </trkpt>
      <trkpt lat="43.29206" lon="5.64343">
        <ele>177.9</ele>
        <time>2022-03-16T16:05:27Z</time>
      </trkpt>
      <trkpt lat="43.29209" lon="5.64335">
        <ele>177.6</ele>
        <time>2022-03-16T16:05:33Z</time>
      </trkpt>
      <trkpt lat="43.2921" lon="5.64328">
        <ele>177.3</ele>
        <time>2022-03-16T16:05:37Z</time>
      </trkpt>
      <trkpt lat="43.29212" lon="5.64319">
        <ele>176.8</ele>
        <time>2022-03-16T16:05:43Z</time>
      </trkpt>
      <trkpt lat="43.29214" lon="5.64312">
        <ele>176.4</ele>
        <time>2022-03-16T16:05:47Z</time>
      </trkpt>
      <trkpt lat="43.29216" lon="5.64306">
        <ele>176</ele>
        <time>2022-03-16T16:05:51Z</time>
      </trkpt>
      <trkpt lat="43.29219" lon="5.64301">
        <ele>175.8</ele>
        <time>2022-03-16T16:05:55Z</time>
      </trkpt>
      <trkpt lat="43.29221" lon="5.64294">
        <ele>175.6</ele>
        <time>2022-03-16T16:05:59Z</time>
      </trkpt>
      <trkpt lat="43.29223" lon="5.64286">
        <ele>175.4</ele>
        <time>2022-03-16T16:06:03Z</time>
      </trkpt>
      <trkpt lat="43.29223" lon="5.64278">
        <ele>175.1</ele>
        <time>2022-03-16T16:06:07Z</time>
      </trkpt>
      <trkpt lat="43.29225" lon="5.64269">
        <ele>174.9</ele>
        <time>2022-03-16T16:06:13Z</time>
      </trkpt>
      <trkpt lat="43.29228" lon="5.64262">
        <ele>174.9</ele>
        <time>2022-03-16T16:06:19Z</time>
      </trkpt>
      <trkpt lat="43.29231" lon="5.64256">
        <ele>174.8</ele>
        <time>2022-03-16T16:06:23Z</time>
      </trkpt>
      <trkpt lat="43.29232" lon="5.6425">
        <ele>174.7</ele>
        <time>2022-03-16T16:06:27Z</time>
      </trkpt>
      <trkpt lat="43.29235" lon="5.64243">
        <ele>174.6</ele>
        <time>2022-03-16T16:06:33Z</time>
      </trkpt>
      <trkpt lat="43.29236" lon="5.64237">
        <ele>174.3</ele>
        <time>2022-03-16T16:06:37Z</time>
      </trkpt>
      <trkpt lat="43.29235" lon="5.64231">
        <ele>173.9</ele>
        <time>2022-03-16T16:06:41Z</time>
      </trkpt>
      <trkpt lat="43.29233" lon="5.64224">
        <ele>173.5</ele>
        <time>2022-03-16T16:06:45Z</time>
      </trkpt>
      <trkpt lat="43.29229" lon="5.64219">
        <ele>173.2</ele>
        <time>2022-03-16T16:06:49Z</time>
      </trkpt>
      <trkpt lat="43.29227" lon="5.64213">
        <ele>173.1</ele>
        <time>2022-03-16T16:06:53Z</time>
      </trkpt>
      <trkpt lat="43.29228" lon="5.64205">
        <ele>173.1</ele>
        <time>2022-03-16T16:06:57Z</time>
      </trkpt>
      <trkpt lat="43.29231" lon="5.64199">
        <ele>173.1</ele>
        <time>2022-03-16T16:07:01Z</time>
      </trkpt>
      <trkpt lat="43.29235" lon="5.64196">
        <ele>173</ele>
        <time>2022-03-16T16:07:05Z</time>
      </trkpt>
      <trkpt lat="43.29239" lon="5.64193">
        <ele>173</ele>
        <time>2022-03-16T16:07:11Z</time>
      </trkpt>
      <trkpt lat="43.29246" lon="5.64195">
        <ele>173</ele>
        <time>2022-03-16T16:07:17Z</time>
      </trkpt>
      <trkpt lat="43.29251" lon="5.64195">
        <ele>173.1</ele>
        <time>2022-03-16T16:07:23Z</time>
      </trkpt>
      <trkpt lat="43.29257" lon="5.64193">
        <ele>174</ele>
        <time>2022-03-16T16:07:29Z</time>
      </trkpt>
      <trkpt lat="43.29262" lon="5.64192">
        <ele>174.6</ele>
        <time>2022-03-16T16:07:33Z</time>
      </trkpt>
      <trkpt lat="43.29268" lon="5.64187">
        <ele>175</ele>
        <time>2022-03-16T16:07:39Z</time>
      </trkpt>
      <trkpt lat="43.2927" lon="5.64179">
        <ele>174.6</ele>
        <time>2022-03-16T16:07:45Z</time>
      </trkpt>
      <trkpt lat="43.29271" lon="5.64171">
        <ele>173.9</ele>
        <time>2022-03-16T16:07:51Z</time>
      </trkpt>
      <trkpt lat="43.29272" lon="5.64164">
        <ele>173.4</ele>
        <time>2022-03-16T16:07:57Z</time>
      </trkpt>
      <trkpt lat="43.29273" lon="5.64158">
        <ele>173.1</ele>
        <time>2022-03-16T16:08:03Z</time>
      </trkpt>
      <trkpt lat="43.29275" lon="5.64152">
        <ele>172.8</ele>
        <time>2022-03-16T16:08:11Z</time>
      </trkpt>
      <trkpt lat="43.29277" lon="5.64145">
        <ele>172.4</ele>
        <time>2022-03-16T16:08:21Z</time>
      </trkpt>
    </trkseg>
  </trk>
</gpx>